<?xml version='1.0' encoding='UTF-8'?><gpx version="1.1" creator="JPX - https://github.com/jenetics/jpx" xmlns="http://www.topografix.com/GPX/1/1"><trk><trkseg><trkpt lat="40.0037385" lon="18.1657469"><ele>81.0</ele><time>2026-03-29T09:32:14.958Z</time></trkpt><trkpt lat="40.0037591" lon="18.1658376"><ele>81.0</ele><time>2026-03-29T09:32:16.989Z</time></trkpt><trkpt lat="40.0037735" lon="18.1659203"><ele>81.0</ele><time>2026-03-29T09:32:18.856Z</time></trkpt><trkpt lat="40.003811" lon="18.1660924"><ele>81.0</ele><time>2026-03-29T09:32:33.856Z</time></trkpt><trkpt lat="40.0038231" lon="18.1662112"><ele>81.0</ele><time>2026-03-29T09:32:36.857Z</time></trkpt><trkpt lat="40.0038186" lon="18.1663264"><ele>81.0</ele><time>2026-03-29T09:32:38.857Z</time></trkpt><trkpt lat="40.0038026" lon="18.1664576"><ele>81.0</ele><time>2026-03-29T09:32:40.857Z</time></trkpt><trkpt lat="40.0038719" lon="18.1667462"><ele>81.0</ele><time>2026-03-29T09:32:44.856Z</time></trkpt><trkpt lat="40.003932" lon="18.16689"><ele>81.0</ele><time>2026-03-29T09:32:46.857Z</time></trkpt><trkpt lat="40.0039816" lon="18.1670312"><ele>81.0</ele><time>2026-03-29T09:32:48.856Z</time></trkpt><trkpt lat="40.0040321" lon="18.1671567"><ele>81.0</ele><time>2026-03-29T09:32:50.856Z</time></trkpt><trkpt lat="40.0040807" lon="18.1672647"><ele>81.0</ele><time>2026-03-29T09:32:52.856Z</time></trkpt><trkpt lat="40.0041615" lon="18.1673089"><ele>81.0</ele><time>2026-03-29T09:32:54.857Z</time></trkpt><trkpt lat="40.004246" lon="18.167247"><ele>81.5</ele><time>2026-03-29T09:32:56.856Z</time></trkpt><trkpt lat="40.0043152" lon="18.1671493"><ele>82.0</ele><time>2026-03-29T09:32:58.857Z</time></trkpt><trkpt lat="40.004386" lon="18.1670521"><ele>82.5</ele><time>2026-03-29T09:33:00.857Z</time></trkpt><trkpt lat="40.0044737" lon="18.1669769"><ele>83.0</ele><time>2026-03-29T09:33:02.857Z</time></trkpt><trkpt lat="40.0046139" lon="18.1668422"><ele>83.0</ele><time>2026-03-29T09:33:06.857Z</time></trkpt><trkpt lat="40.0046813" lon="18.1668361"><ele>83.0</ele><time>2026-03-29T09:33:09.857Z</time></trkpt><trkpt lat="40.0047252" lon="18.1669386"><ele>83.0</ele><time>2026-03-29T09:33:12.858Z</time></trkpt><trkpt lat="40.0047826" lon="18.1670055"><ele>83.0</ele><time>2026-03-29T09:33:14.858Z</time></trkpt><trkpt lat="40.0048439" lon="18.1670726"><ele>83.0</ele><time>2026-03-29T09:33:16.857Z</time></trkpt><trkpt lat="40.0048925" lon="18.1671535"><ele>83.0</ele><time>2026-03-29T09:33:18.857Z</time></trkpt><trkpt lat="40.0049062" lon="18.1672499"><ele>83.0</ele><time>2026-03-29T09:33:20.858Z</time></trkpt><trkpt lat="40.0048635" lon="18.1673465"><ele>83.0</ele><time>2026-03-29T09:33:22.857Z</time></trkpt><trkpt lat="40.004802" lon="18.1674514"><ele>83.0</ele><time>2026-03-29T09:33:24.858Z</time></trkpt><trkpt lat="40.0046514" lon="18.1676933"><ele>83.0</ele><time>2026-03-29T09:33:28.857Z</time></trkpt><trkpt lat="40.004601" lon="18.1677524"><ele>83.0</ele><time>2026-03-29T09:33:29.858Z</time></trkpt><trkpt lat="40.0045469" lon="18.1678109"><ele>83.0</ele><time>2026-03-29T09:33:30.857Z</time></trkpt><trkpt lat="40.0044935" lon="18.1678708"><ele>83.0</ele><time>2026-03-29T09:33:31.857Z</time></trkpt><trkpt lat="40.0044412" lon="18.1679326"><ele>83.0</ele><time>2026-03-29T09:33:32.857Z</time></trkpt><trkpt lat="40.0043974" lon="18.1680023"><ele>83.0</ele><time>2026-03-29T09:33:33.858Z</time></trkpt><trkpt lat="40.004356" lon="18.1680723"><ele>83.0</ele><time>2026-03-29T09:33:34.857Z</time></trkpt><trkpt lat="40.0043117" lon="18.1681377"><ele>83.0</ele><time>2026-03-29T09:33:35.857Z</time></trkpt><trkpt lat="40.0042678" lon="18.1682033"><ele>83.0</ele><time>2026-03-29T09:33:36.857Z</time></trkpt><trkpt lat="40.004231" lon="18.1682762"><ele>83.0</ele><time>2026-03-29T09:33:37.858Z</time></trkpt><trkpt lat="40.0041959" lon="18.1683521"><ele>83.0</ele><time>2026-03-29T09:33:38.858Z</time></trkpt><trkpt lat="40.0041615" lon="18.1684309"><ele>83.0</ele><time>2026-03-29T09:33:39.857Z</time></trkpt><trkpt lat="40.0041334" lon="18.1685135"><ele>83.0</ele><time>2026-03-29T09:33:40.857Z</time></trkpt><trkpt lat="40.0041072" lon="18.1685887"><ele>83.0</ele><time>2026-03-29T09:33:41.858Z</time></trkpt><trkpt lat="40.0040661" lon="18.1687438"><ele>83.0</ele><time>2026-03-29T09:33:43.857Z</time></trkpt><trkpt lat="40.0040492" lon="18.1688244"><ele>83.0</ele><time>2026-03-29T09:33:44.857Z</time></trkpt><trkpt lat="40.0040178" lon="18.168993"><ele>83.0</ele><time>2026-03-29T09:33:46.857Z</time></trkpt><trkpt lat="40.0039974" lon="18.1690749"><ele>83.0</ele><time>2026-03-29T09:33:47.857Z</time></trkpt><trkpt lat="40.0039792" lon="18.1691559"><ele>83.0</ele><time>2026-03-29T09:33:48.857Z</time></trkpt><trkpt lat="40.0039606" lon="18.1692363"><ele>83.0</ele><time>2026-03-29T09:33:49.858Z</time></trkpt><trkpt lat="40.0039439" lon="18.1693157"><ele>83.0</ele><time>2026-03-29T09:33:50.857Z</time></trkpt><trkpt lat="40.0039171" lon="18.1694757"><ele>83.0</ele><time>2026-03-29T09:33:52.857Z</time></trkpt><trkpt lat="40.0038792" lon="18.1696206"><ele>83.0</ele><time>2026-03-29T09:33:54.857Z</time></trkpt><trkpt lat="40.0038424" lon="18.1697673"><ele>83.0</ele><time>2026-03-29T09:33:56.857Z</time></trkpt><trkpt lat="40.0037983" lon="18.1699139"><ele>83.25</ele><time>2026-03-29T09:33:58.858Z</time></trkpt><trkpt lat="40.0037571" lon="18.1700646"><ele>83.5</ele><time>2026-03-29T09:34:00.857Z</time></trkpt><trkpt lat="40.0037156" lon="18.1702149"><ele>83.75</ele><time>2026-03-29T09:34:02.857Z</time></trkpt><trkpt lat="40.0036839" lon="18.1703606"><ele>84.0</ele><time>2026-03-29T09:34:04.857Z</time></trkpt><trkpt lat="40.0036483" lon="18.1705097"><ele>84.66666666666667</ele><time>2026-03-29T09:34:06.858Z</time></trkpt><trkpt lat="40.0035714" lon="18.1707907"><ele>85.33333333333334</ele><time>2026-03-29T09:34:10.859Z</time></trkpt><trkpt lat="40.003551" lon="18.1709347"><ele>86.0</ele><time>2026-03-29T09:34:12.859Z</time></trkpt><trkpt lat="40.0035295" lon="18.1710813"><ele>86.0</ele><time>2026-03-29T09:34:14.859Z</time></trkpt><trkpt lat="40.0034998" lon="18.1712256"><ele>86.0</ele><time>2026-03-29T09:34:16.859Z</time></trkpt><trkpt lat="40.0034645" lon="18.1713629"><ele>86.0</ele><time>2026-03-29T09:34:18.859Z</time></trkpt><trkpt lat="40.0034464" lon="18.1714486"><ele>86.0</ele><time>2026-03-29T09:34:19.858Z</time></trkpt><trkpt lat="40.0033871" lon="18.1715926"><ele>86.0</ele><time>2026-03-29T09:34:21.858Z</time></trkpt><trkpt lat="40.0033089" lon="18.1717205"><ele>86.0</ele><time>2026-03-29T09:34:23.858Z</time></trkpt><trkpt lat="40.0032222" lon="18.1718341"><ele>86.0</ele><time>2026-03-29T09:34:25.858Z</time></trkpt><trkpt lat="40.0031407" lon="18.1719385"><ele>86.0</ele><time>2026-03-29T09:34:27.858Z</time></trkpt><trkpt lat="40.0030101" lon="18.1721904"><ele>86.0</ele><time>2026-03-29T09:34:31.859Z</time></trkpt><trkpt lat="40.0029254" lon="18.1723157"><ele>86.0</ele><time>2026-03-29T09:34:33.858Z</time></trkpt><trkpt lat="40.0028755" lon="18.1723724"><ele>86.0</ele><time>2026-03-29T09:34:34.858Z</time></trkpt><trkpt lat="40.0028212" lon="18.1724288"><ele>86.0</ele><time>2026-03-29T09:34:35.859Z</time></trkpt><trkpt lat="40.0027705" lon="18.1724837"><ele>86.0</ele><time>2026-03-29T09:34:36.858Z</time></trkpt><trkpt lat="40.0027217" lon="18.1725409"><ele>86.0</ele><time>2026-03-29T09:34:37.858Z</time></trkpt><trkpt lat="40.0026732" lon="18.1725995"><ele>86.00000000000001</ele><time>2026-03-29T09:34:38.858Z</time></trkpt><trkpt lat="40.0026264" lon="18.172659"><ele>86.0</ele><time>2026-03-29T09:34:39.859Z</time></trkpt><trkpt lat="40.002578" lon="18.172716"><ele>86.0</ele><time>2026-03-29T09:34:40.859Z</time></trkpt><trkpt lat="40.002526" lon="18.1727734"><ele>86.0</ele><time>2026-03-29T09:34:41.858Z</time></trkpt><trkpt lat="40.0024693" lon="18.1728365"><ele>86.0</ele><time>2026-03-29T09:34:42.858Z</time></trkpt><trkpt lat="40.0024165" lon="18.1728916"><ele>86.00000000000001</ele><time>2026-03-29T09:34:43.858Z</time></trkpt><trkpt lat="40.0023653" lon="18.1729469"><ele>86.0</ele><time>2026-03-29T09:34:44.858Z</time></trkpt><trkpt lat="40.002313" lon="18.1730056"><ele>86.0</ele><time>2026-03-29T09:34:45.858Z</time></trkpt><trkpt lat="40.0022644" lon="18.1730679"><ele>86.0</ele><time>2026-03-29T09:34:46.859Z</time></trkpt><trkpt lat="40.0022157" lon="18.1731237"><ele>86.0</ele><time>2026-03-29T09:34:47.858Z</time></trkpt><trkpt lat="40.0021609" lon="18.1731852"><ele>86.0</ele><time>2026-03-29T09:34:48.859Z</time></trkpt><trkpt lat="40.0020448" lon="18.173287"><ele>86.0</ele><time>2026-03-29T09:34:50.858Z</time></trkpt><trkpt lat="40.0019877" lon="18.1733346"><ele>86.0</ele><time>2026-03-29T09:34:51.858Z</time></trkpt><trkpt lat="40.0019335" lon="18.1733868"><ele>86.0</ele><time>2026-03-29T09:34:52.858Z</time></trkpt><trkpt lat="40.0018774" lon="18.1734389"><ele>86.0</ele><time>2026-03-29T09:34:53.858Z</time></trkpt><trkpt lat="40.0018194" lon="18.1734979"><ele>86.0</ele><time>2026-03-29T09:34:54.858Z</time></trkpt><trkpt lat="40.0017708" lon="18.1735519"><ele>86.0</ele><time>2026-03-29T09:34:55.858Z</time></trkpt><trkpt lat="40.0016839" lon="18.1736704"><ele>86.0</ele><time>2026-03-29T09:34:57.858Z</time></trkpt><trkpt lat="40.0015752" lon="18.1737651"><ele>85.42857142857143</ele><time>2026-03-29T09:34:59.859Z</time></trkpt><trkpt lat="40.0015125" lon="18.1738031"><ele>84.85714285714286</ele><time>2026-03-29T09:35:00.858Z</time></trkpt><trkpt lat="40.0014471" lon="18.1738354"><ele>84.28571428571428</ele><time>2026-03-29T09:35:01.859Z</time></trkpt><trkpt lat="40.0013785" lon="18.1738627"><ele>83.71428571428572</ele><time>2026-03-29T09:35:02.859Z</time></trkpt><trkpt lat="40.0013097" lon="18.1738774"><ele>83.14285714285714</ele><time>2026-03-29T09:35:03.859Z</time></trkpt><trkpt lat="40.0012387" lon="18.1738836"><ele>82.57142857142857</ele><time>2026-03-29T09:35:04.859Z</time></trkpt><trkpt lat="40.0011665" lon="18.1738839"><ele>82.0</ele><time>2026-03-29T09:35:05.858Z</time></trkpt><trkpt lat="40.0010944" lon="18.1738905"><ele>82.0</ele><time>2026-03-29T09:35:06.858Z</time></trkpt><trkpt lat="40.0010276" lon="18.1739034"><ele>82.0</ele><time>2026-03-29T09:35:07.859Z</time></trkpt><trkpt lat="40.0009585" lon="18.173929"><ele>82.0</ele><time>2026-03-29T09:35:08.858Z</time></trkpt><trkpt lat="40.0008945" lon="18.173961"><ele>82.0</ele><time>2026-03-29T09:35:09.858Z</time></trkpt><trkpt lat="40.0007667" lon="18.1740439"><ele>82.0</ele><time>2026-03-29T09:35:11.859Z</time></trkpt><trkpt lat="40.0007089" lon="18.1740889"><ele>82.0</ele><time>2026-03-29T09:35:12.859Z</time></trkpt><trkpt lat="40.0006513" lon="18.1741369"><ele>82.14285714285714</ele><time>2026-03-29T09:35:13.859Z</time></trkpt><trkpt lat="40.0005908" lon="18.1741846"><ele>82.28571428571428</ele><time>2026-03-29T09:35:14.859Z</time></trkpt><trkpt lat="40.0005319" lon="18.1742314"><ele>82.42857142857142</ele><time>2026-03-29T09:35:15.859Z</time></trkpt><trkpt lat="40.0004708" lon="18.1742784"><ele>82.57142857142857</ele><time>2026-03-29T09:35:16.859Z</time></trkpt><trkpt lat="40.0004141" lon="18.174326"><ele>82.71428571428572</ele><time>2026-03-29T09:35:17.859Z</time></trkpt><trkpt lat="40.0003598" lon="18.1743822"><ele>82.85714285714285</ele><time>2026-03-29T09:35:18.859Z</time></trkpt><trkpt lat="40.0003107" lon="18.1744445"><ele>83.0</ele><time>2026-03-29T09:35:19.86Z</time></trkpt><trkpt lat="40.0002649" lon="18.1745113"><ele>83.0</ele><time>2026-03-29T09:35:20.859Z</time></trkpt><trkpt lat="40.0002248" lon="18.1745813"><ele>83.0</ele><time>2026-03-29T09:35:21.86Z</time></trkpt><trkpt lat="40.0001851" lon="18.1746562"><ele>83.0</ele><time>2026-03-29T09:35:22.859Z</time></trkpt><trkpt lat="40.0001494" lon="18.1747303"><ele>83.0</ele><time>2026-03-29T09:35:23.859Z</time></trkpt><trkpt lat="40.0001138" lon="18.1748009"><ele>83.0</ele><time>2026-03-29T09:35:24.859Z</time></trkpt><trkpt lat="40.000076" lon="18.1748701"><ele>83.0</ele><time>2026-03-29T09:35:25.859Z</time></trkpt><trkpt lat="40.000037" lon="18.1749357"><ele>83.0</ele><time>2026-03-29T09:35:26.859Z</time></trkpt><trkpt lat="39.9999532" lon="18.175058"><ele>84.33333333333334</ele><time>2026-03-29T09:35:28.86Z</time></trkpt><trkpt lat="39.9998816" lon="18.1751736"><ele>85.66666666666667</ele><time>2026-03-29T09:35:30.859Z</time></trkpt><trkpt lat="39.9997111" lon="18.1753893"><ele>87.0</ele><time>2026-03-29T09:35:34.86Z</time></trkpt><trkpt lat="39.9996075" lon="18.1754515"><ele>87.0</ele><time>2026-03-29T09:35:36.859Z</time></trkpt><trkpt lat="39.9994891" lon="18.1754903"><ele>87.0</ele><time>2026-03-29T09:35:38.86Z</time></trkpt><trkpt lat="39.9993658" lon="18.1755264"><ele>87.0</ele><time>2026-03-29T09:35:40.859Z</time></trkpt><trkpt lat="39.9993039" lon="18.175553"><ele>87.0</ele><time>2026-03-29T09:35:41.859Z</time></trkpt><trkpt lat="39.9992441" lon="18.1755807"><ele>87.0</ele><time>2026-03-29T09:35:42.86Z</time></trkpt><trkpt lat="39.9991352" lon="18.1756371"><ele>87.5</ele><time>2026-03-29T09:35:44.86Z</time></trkpt><trkpt lat="39.9990277" lon="18.1756918"><ele>88.0</ele><time>2026-03-29T09:35:46.859Z</time></trkpt><trkpt lat="39.9989271" lon="18.1757554"><ele>88.5</ele><time>2026-03-29T09:35:48.859Z</time></trkpt><trkpt lat="39.9988301" lon="18.1758313"><ele>89.0</ele><time>2026-03-29T09:35:50.859Z</time></trkpt><trkpt lat="39.9987281" lon="18.175908"><ele>89.0</ele><time>2026-03-29T09:35:52.859Z</time></trkpt><trkpt lat="39.9985851" lon="18.176059"><ele>89.0</ele><time>2026-03-29T09:35:55.86Z</time></trkpt><trkpt lat="39.9984891" lon="18.1761594"><ele>89.0</ele><time>2026-03-29T09:35:57.859Z</time></trkpt><trkpt lat="39.9983929" lon="18.176255"><ele>89.0</ele><time>2026-03-29T09:35:59.859Z</time></trkpt><trkpt lat="39.998344" lon="18.1763072"><ele>88.83333333333334</ele><time>2026-03-29T09:36:00.859Z</time></trkpt><trkpt lat="39.9982936" lon="18.1763635"><ele>88.66666666666667</ele><time>2026-03-29T09:36:01.86Z</time></trkpt><trkpt lat="39.9982482" lon="18.1764234"><ele>88.5</ele><time>2026-03-29T09:36:02.86Z</time></trkpt><trkpt lat="39.9981555" lon="18.1765423"><ele>88.33333333333333</ele><time>2026-03-29T09:36:04.859Z</time></trkpt><trkpt lat="39.9981062" lon="18.1766015"><ele>88.16666666666666</ele><time>2026-03-29T09:36:05.86Z</time></trkpt><trkpt lat="39.9980588" lon="18.1766631"><ele>88.0</ele><time>2026-03-29T09:36:06.86Z</time></trkpt><trkpt lat="39.9980151" lon="18.1767253"><ele>88.0</ele><time>2026-03-29T09:36:07.86Z</time></trkpt><trkpt lat="39.9979705" lon="18.1767937"><ele>88.0</ele><time>2026-03-29T09:36:08.86Z</time></trkpt><trkpt lat="39.9979252" lon="18.1768613"><ele>88.0</ele><time>2026-03-29T09:36:09.859Z</time></trkpt><trkpt lat="39.9978835" lon="18.1769354"><ele>88.0</ele><time>2026-03-29T09:36:10.861Z</time></trkpt><trkpt lat="39.9978376" lon="18.1770026"><ele>88.0</ele><time>2026-03-29T09:36:11.859Z</time></trkpt><trkpt lat="39.9977941" lon="18.177069"><ele>88.0</ele><time>2026-03-29T09:36:12.86Z</time></trkpt><trkpt lat="39.9977477" lon="18.177136"><ele>88.0</ele><time>2026-03-29T09:36:13.859Z</time></trkpt><trkpt lat="39.9976643" lon="18.1772806"><ele>88.28571428571429</ele><time>2026-03-29T09:36:15.859Z</time></trkpt><trkpt lat="39.9976371" lon="18.1773628"><ele>88.57142857142857</ele><time>2026-03-29T09:36:16.86Z</time></trkpt><trkpt lat="39.9976141" lon="18.177445"><ele>88.85714285714286</ele><time>2026-03-29T09:36:17.86Z</time></trkpt><trkpt lat="39.9975905" lon="18.1775242"><ele>89.14285714285714</ele><time>2026-03-29T09:36:18.86Z</time></trkpt><trkpt lat="39.9975686" lon="18.1776074"><ele>89.42857142857143</ele><time>2026-03-29T09:36:19.86Z</time></trkpt><trkpt lat="39.9975467" lon="18.1776885"><ele>89.71428571428571</ele><time>2026-03-29T09:36:20.86Z</time></trkpt><trkpt lat="39.997525" lon="18.1777685"><ele>90.0</ele><time>2026-03-29T09:36:21.86Z</time></trkpt><trkpt lat="39.9975028" lon="18.17785"><ele>89.85714285714285</ele><time>2026-03-29T09:36:22.86Z</time></trkpt><trkpt lat="39.9974741" lon="18.1779232"><ele>89.71428571428572</ele><time>2026-03-29T09:36:23.861Z</time></trkpt><trkpt lat="39.9974407" lon="18.1779934"><ele>89.57142857142857</ele><time>2026-03-29T09:36:24.86Z</time></trkpt><trkpt lat="39.9974023" lon="18.1780625"><ele>89.42857142857142</ele><time>2026-03-29T09:36:25.861Z</time></trkpt><trkpt lat="39.9973605" lon="18.1781343"><ele>89.28571428571428</ele><time>2026-03-29T09:36:26.86Z</time></trkpt><trkpt lat="39.9973169" lon="18.1782012"><ele>89.14285714285714</ele><time>2026-03-29T09:36:27.861Z</time></trkpt><trkpt lat="39.9972704" lon="18.178265"><ele>89.0</ele><time>2026-03-29T09:36:28.861Z</time></trkpt><trkpt lat="39.9972175" lon="18.1783298"><ele>89.0</ele><time>2026-03-29T09:36:29.86Z</time></trkpt><trkpt lat="39.9971652" lon="18.1783907"><ele>89.0</ele><time>2026-03-29T09:36:30.861Z</time></trkpt><trkpt lat="39.9971124" lon="18.1784486"><ele>89.0</ele><time>2026-03-29T09:36:31.86Z</time></trkpt><trkpt lat="39.9970556" lon="18.1785042"><ele>89.0</ele><time>2026-03-29T09:36:32.86Z</time></trkpt><trkpt lat="39.997" lon="18.1785563"><ele>89.0</ele><time>2026-03-29T09:36:33.86Z</time></trkpt><trkpt lat="39.9969507" lon="18.178609"><ele>89.0</ele><time>2026-03-29T09:36:34.86Z</time></trkpt><trkpt lat="39.996807" lon="18.1787733"><ele>89.0</ele><time>2026-03-29T09:36:37.86Z</time></trkpt><trkpt lat="39.996757" lon="18.1788279"><ele>89.0</ele><time>2026-03-29T09:36:38.86Z</time></trkpt><trkpt lat="39.9967081" lon="18.1788838"><ele>89.0</ele><time>2026-03-29T09:36:39.86Z</time></trkpt><trkpt lat="39.9966608" lon="18.1789409"><ele>89.0</ele><time>2026-03-29T09:36:40.861Z</time></trkpt><trkpt lat="39.9965668" lon="18.1790462"><ele>89.0</ele><time>2026-03-29T09:36:42.86Z</time></trkpt><trkpt lat="39.9965202" lon="18.1791023"><ele>89.0</ele><time>2026-03-29T09:36:43.86Z</time></trkpt><trkpt lat="39.9964301" lon="18.1792158"><ele>89.14285714285714</ele><time>2026-03-29T09:36:45.86Z</time></trkpt><trkpt lat="39.996385" lon="18.1792753"><ele>89.28571428571428</ele><time>2026-03-29T09:36:46.86Z</time></trkpt><trkpt lat="39.9963387" lon="18.1793387"><ele>89.42857142857142</ele><time>2026-03-29T09:36:47.86Z</time></trkpt><trkpt lat="39.9962947" lon="18.1794013"><ele>89.57142857142857</ele><time>2026-03-29T09:36:48.861Z</time></trkpt><trkpt lat="39.9962518" lon="18.1794665"><ele>89.71428571428572</ele><time>2026-03-29T09:36:49.86Z</time></trkpt><trkpt lat="39.9962069" lon="18.1795335"><ele>89.85714285714285</ele><time>2026-03-29T09:36:50.861Z</time></trkpt><trkpt lat="39.9961636" lon="18.1796013"><ele>90.0</ele><time>2026-03-29T09:36:51.86Z</time></trkpt><trkpt lat="39.9961251" lon="18.1796714"><ele>90.0</ele><time>2026-03-29T09:36:52.861Z</time></trkpt><trkpt lat="39.9960867" lon="18.179746"><ele>90.0</ele><time>2026-03-29T09:36:53.861Z</time></trkpt><trkpt lat="39.9960503" lon="18.1798211"><ele>90.0</ele><time>2026-03-29T09:36:54.86Z</time></trkpt><trkpt lat="39.9960149" lon="18.1798963"><ele>90.0</ele><time>2026-03-29T09:36:55.86Z</time></trkpt><trkpt lat="39.9959399" lon="18.180048"><ele>90.0</ele><time>2026-03-29T09:36:57.861Z</time></trkpt><trkpt lat="39.9959024" lon="18.18012"><ele>90.0</ele><time>2026-03-29T09:36:58.86Z</time></trkpt><trkpt lat="39.9958609" lon="18.1801892"><ele>90.16666666666667</ele><time>2026-03-29T09:36:59.86Z</time></trkpt><trkpt lat="39.9958211" lon="18.1802612"><ele>90.33333333333333</ele><time>2026-03-29T09:37:00.861Z</time></trkpt><trkpt lat="39.9957869" lon="18.1803382"><ele>90.5</ele><time>2026-03-29T09:37:01.86Z</time></trkpt><trkpt lat="39.9957562" lon="18.1804165"><ele>90.66666666666666</ele><time>2026-03-29T09:37:02.86Z</time></trkpt><trkpt lat="39.9957261" lon="18.1804922"><ele>90.83333333333333</ele><time>2026-03-29T09:37:03.86Z</time></trkpt><trkpt lat="39.9956598" lon="18.1806306"><ele>91.0</ele><time>2026-03-29T09:37:05.861Z</time></trkpt><trkpt lat="39.9956186" lon="18.1806989"><ele>91.0</ele><time>2026-03-29T09:37:06.86Z</time></trkpt><trkpt lat="39.9955767" lon="18.1807661"><ele>91.0</ele><time>2026-03-29T09:37:07.861Z</time></trkpt><trkpt lat="39.9955342" lon="18.1808372"><ele>91.0</ele><time>2026-03-29T09:37:08.861Z</time></trkpt><trkpt lat="39.9954954" lon="18.1809059"><ele>91.0</ele><time>2026-03-29T09:37:09.861Z</time></trkpt><trkpt lat="39.9954557" lon="18.1809757"><ele>91.0</ele><time>2026-03-29T09:37:10.861Z</time></trkpt><trkpt lat="39.9954157" lon="18.1810437"><ele>91.0</ele><time>2026-03-29T09:37:11.86Z</time></trkpt><trkpt lat="39.995378" lon="18.1811143"><ele>91.0</ele><time>2026-03-29T09:37:12.861Z</time></trkpt><trkpt lat="39.9953441" lon="18.1811903"><ele>91.0</ele><time>2026-03-29T09:37:13.861Z</time></trkpt><trkpt lat="39.9953176" lon="18.181268"><ele>91.0</ele><time>2026-03-29T09:37:14.861Z</time></trkpt><trkpt lat="39.995297" lon="18.1813499"><ele>91.0</ele><time>2026-03-29T09:37:15.861Z</time></trkpt><trkpt lat="39.9952636" lon="18.1815047"><ele>91.0</ele><time>2026-03-29T09:37:17.86Z</time></trkpt><trkpt lat="39.9951818" lon="18.1817972"><ele>90.83333333333333</ele><time>2026-03-29T09:37:21.861Z</time></trkpt><trkpt lat="39.9951451" lon="18.1819402"><ele>90.66666666666666</ele><time>2026-03-29T09:37:23.862Z</time></trkpt><trkpt lat="39.9950898" lon="18.1820693"><ele>90.5</ele><time>2026-03-29T09:37:25.861Z</time></trkpt><trkpt lat="39.9950461" lon="18.1821369"><ele>90.33333333333333</ele><time>2026-03-29T09:37:26.862Z</time></trkpt><trkpt lat="39.9950022" lon="18.1822086"><ele>90.16666666666667</ele><time>2026-03-29T09:37:27.861Z</time></trkpt><trkpt lat="39.9949583" lon="18.1822842"><ele>90.0</ele><time>2026-03-29T09:37:28.861Z</time></trkpt><trkpt lat="39.9949149" lon="18.1823643"><ele>90.28571428571428</ele><time>2026-03-29T09:37:29.862Z</time></trkpt><trkpt lat="39.9948716" lon="18.1824414"><ele>90.57142857142858</ele><time>2026-03-29T09:37:30.861Z</time></trkpt><trkpt lat="39.9948255" lon="18.1825154"><ele>90.85714285714286</ele><time>2026-03-29T09:37:31.861Z</time></trkpt><trkpt lat="39.9947793" lon="18.1825885"><ele>91.14285714285714</ele><time>2026-03-29T09:37:32.862Z</time></trkpt><trkpt lat="39.9947367" lon="18.1826625"><ele>91.42857142857142</ele><time>2026-03-29T09:37:33.862Z</time></trkpt><trkpt lat="39.9946862" lon="18.1827278"><ele>91.71428571428572</ele><time>2026-03-29T09:37:34.861Z</time></trkpt><trkpt lat="39.9946306" lon="18.1827885"><ele>92.0</ele><time>2026-03-29T09:37:35.861Z</time></trkpt><trkpt lat="39.9945746" lon="18.1828452"><ele>92.0</ele><time>2026-03-29T09:37:36.862Z</time></trkpt><trkpt lat="39.9945201" lon="18.182905"><ele>92.0</ele><time>2026-03-29T09:37:37.862Z</time></trkpt><trkpt lat="39.994471" lon="18.1829597"><ele>92.0</ele><time>2026-03-29T09:37:38.862Z</time></trkpt><trkpt lat="39.994375" lon="18.1830769"><ele>92.0</ele><time>2026-03-29T09:37:40.862Z</time></trkpt><trkpt lat="39.9943296" lon="18.1831384"><ele>92.0</ele><time>2026-03-29T09:37:41.862Z</time></trkpt><trkpt lat="39.9942864" lon="18.1831988"><ele>92.0</ele><time>2026-03-29T09:37:42.861Z</time></trkpt><trkpt lat="39.994239" lon="18.1832547"><ele>92.19999999999999</ele><time>2026-03-29T09:37:43.862Z</time></trkpt><trkpt lat="39.9941913" lon="18.1833094"><ele>92.4</ele><time>2026-03-29T09:37:44.861Z</time></trkpt><trkpt lat="39.9941449" lon="18.1833651"><ele>92.6</ele><time>2026-03-29T09:37:45.861Z</time></trkpt><trkpt lat="39.9940543" lon="18.1834739"><ele>92.80000000000001</ele><time>2026-03-29T09:37:47.861Z</time></trkpt><trkpt lat="39.9939577" lon="18.1835783"><ele>93.0</ele><time>2026-03-29T09:37:49.861Z</time></trkpt><trkpt lat="39.9938755" lon="18.1836845"><ele>93.16666666666667</ele><time>2026-03-29T09:37:51.862Z</time></trkpt><trkpt lat="39.9938036" lon="18.1838099"><ele>93.33333333333333</ele><time>2026-03-29T09:37:53.861Z</time></trkpt><trkpt lat="39.993768" lon="18.1838839"><ele>93.5</ele><time>2026-03-29T09:37:54.861Z</time></trkpt><trkpt lat="39.9937359" lon="18.183959"><ele>93.66666666666666</ele><time>2026-03-29T09:37:55.861Z</time></trkpt><trkpt lat="39.9937007" lon="18.1840289"><ele>93.83333333333333</ele><time>2026-03-29T09:37:56.861Z</time></trkpt><trkpt lat="39.9936096" lon="18.1841435"><ele>94.0</ele><time>2026-03-29T09:37:58.862Z</time></trkpt><trkpt lat="39.9935139" lon="18.1842629"><ele>94.0</ele><time>2026-03-29T09:38:00.861Z</time></trkpt><trkpt lat="39.993472" lon="18.184329"><ele>94.0</ele><time>2026-03-29T09:38:01.861Z</time></trkpt><trkpt lat="39.9934295" lon="18.1843966"><ele>94.0</ele><time>2026-03-29T09:38:02.862Z</time></trkpt><trkpt lat="39.993334" lon="18.1845117"><ele>94.0</ele><time>2026-03-29T09:38:04.861Z</time></trkpt><trkpt lat="39.9932827" lon="18.1845667"><ele>94.0</ele><time>2026-03-29T09:38:05.862Z</time></trkpt><trkpt lat="39.9932326" lon="18.1846217"><ele>94.0</ele><time>2026-03-29T09:38:06.861Z</time></trkpt><trkpt lat="39.9931321" lon="18.1847325"><ele>93.71428571428571</ele><time>2026-03-29T09:38:08.861Z</time></trkpt><trkpt lat="39.9930812" lon="18.1847882"><ele>93.42857142857142</ele><time>2026-03-29T09:38:09.861Z</time></trkpt><trkpt lat="39.9930331" lon="18.1848449"><ele>93.14285714285714</ele><time>2026-03-29T09:38:10.862Z</time></trkpt><trkpt lat="39.9929836" lon="18.1849012"><ele>92.85714285714286</ele><time>2026-03-29T09:38:11.862Z</time></trkpt><trkpt lat="39.9929335" lon="18.1849571"><ele>92.57142857142857</ele><time>2026-03-29T09:38:12.862Z</time></trkpt><trkpt lat="39.9928824" lon="18.185013"><ele>92.28571428571429</ele><time>2026-03-29T09:38:13.861Z</time></trkpt><trkpt lat="39.9928314" lon="18.1850669"><ele>92.0</ele><time>2026-03-29T09:38:14.862Z</time></trkpt><trkpt lat="39.9927773" lon="18.1851186"><ele>92.0</ele><time>2026-03-29T09:38:15.862Z</time></trkpt><trkpt lat="39.9927271" lon="18.1851731"><ele>92.0</ele><time>2026-03-29T09:38:16.861Z</time></trkpt><trkpt lat="39.9926729" lon="18.1852287"><ele>92.0</ele><time>2026-03-29T09:38:17.861Z</time></trkpt><trkpt lat="39.9926225" lon="18.1852808"><ele>92.0</ele><time>2026-03-29T09:38:18.861Z</time></trkpt><trkpt lat="39.992568" lon="18.1853348"><ele>92.0</ele><time>2026-03-29T09:38:19.862Z</time></trkpt><trkpt lat="39.9924559" lon="18.185442"><ele>92.0</ele><time>2026-03-29T09:38:21.861Z</time></trkpt><trkpt lat="39.9924034" lon="18.1854947"><ele>91.83333333333334</ele><time>2026-03-29T09:38:22.861Z</time></trkpt><trkpt lat="39.9923515" lon="18.1855483"><ele>91.66666666666667</ele><time>2026-03-29T09:38:23.862Z</time></trkpt><trkpt lat="39.9922535" lon="18.1856512"><ele>91.5</ele><time>2026-03-29T09:38:25.862Z</time></trkpt><trkpt lat="39.9922015" lon="18.1857016"><ele>91.33333333333333</ele><time>2026-03-29T09:38:26.862Z</time></trkpt><trkpt lat="39.9921482" lon="18.1857519"><ele>91.16666666666666</ele><time>2026-03-29T09:38:27.862Z</time></trkpt><trkpt lat="39.9920941" lon="18.1858048"><ele>91.0</ele><time>2026-03-29T09:38:28.863Z</time></trkpt><trkpt lat="39.9920436" lon="18.1858584"><ele>91.0</ele><time>2026-03-29T09:38:29.862Z</time></trkpt><trkpt lat="39.9919919" lon="18.1859114"><ele>91.0</ele><time>2026-03-29T09:38:30.863Z</time></trkpt><trkpt lat="39.9919385" lon="18.1859622"><ele>91.0</ele><time>2026-03-29T09:38:31.862Z</time></trkpt><trkpt lat="39.9918854" lon="18.1860142"><ele>91.0</ele><time>2026-03-29T09:38:32.862Z</time></trkpt><trkpt lat="39.991833" lon="18.186065"><ele>91.0</ele><time>2026-03-29T09:38:33.863Z</time></trkpt><trkpt lat="39.9917814" lon="18.1861152"><ele>91.0</ele><time>2026-03-29T09:38:34.863Z</time></trkpt><trkpt lat="39.9916806" lon="18.1862152"><ele>91.0</ele><time>2026-03-29T09:38:36.862Z</time></trkpt><trkpt lat="39.9916298" lon="18.1862645"><ele>91.0</ele><time>2026-03-29T09:38:37.862Z</time></trkpt><trkpt lat="39.9915276" lon="18.1863561"><ele>91.0</ele><time>2026-03-29T09:38:39.863Z</time></trkpt><trkpt lat="39.9914747" lon="18.1864048"><ele>91.0</ele><time>2026-03-29T09:38:40.862Z</time></trkpt><trkpt lat="39.991377" lon="18.1865154"><ele>91.0</ele><time>2026-03-29T09:38:42.863Z</time></trkpt><trkpt lat="39.9913376" lon="18.18658"><ele>91.0</ele><time>2026-03-29T09:38:43.863Z</time></trkpt><trkpt lat="39.9912743" lon="18.1867131"><ele>91.0</ele><time>2026-03-29T09:38:45.862Z</time></trkpt><trkpt lat="39.9912117" lon="18.1868369"><ele>91.0</ele><time>2026-03-29T09:38:47.862Z</time></trkpt><trkpt lat="39.9911508" lon="18.1869581"><ele>91.0</ele><time>2026-03-29T09:38:49.863Z</time></trkpt><trkpt lat="39.9910994" lon="18.1870809"><ele>91.0</ele><time>2026-03-29T09:38:51.862Z</time></trkpt><trkpt lat="39.99105" lon="18.1871988"><ele>91.0</ele><time>2026-03-29T09:38:53.862Z</time></trkpt><trkpt lat="39.9909994" lon="18.1873113"><ele>92.0</ele><time>2026-03-29T09:38:55.862Z</time></trkpt><trkpt lat="39.990945" lon="18.1874179"><ele>93.0</ele><time>2026-03-29T09:38:57.862Z</time></trkpt><trkpt lat="39.9908976" lon="18.1875326"><ele>94.0</ele><time>2026-03-29T09:38:59.862Z</time></trkpt><trkpt lat="39.9908606" lon="18.1876558"><ele>95.0</ele><time>2026-03-29T09:39:01.863Z</time></trkpt><trkpt lat="39.9907878" lon="18.1878689"><ele>95.16666666666667</ele><time>2026-03-29T09:39:05.862Z</time></trkpt><trkpt lat="39.9907653" lon="18.1879866"><ele>95.33333333333334</ele><time>2026-03-29T09:39:07.862Z</time></trkpt><trkpt lat="39.9907496" lon="18.1881058"><ele>95.5</ele><time>2026-03-29T09:39:09.862Z</time></trkpt><trkpt lat="39.9907294" lon="18.1882043"><ele>95.66666666666667</ele><time>2026-03-29T09:39:11.862Z</time></trkpt><trkpt lat="39.9907039" lon="18.1882901"><ele>95.83333333333333</ele><time>2026-03-29T09:39:13.862Z</time></trkpt><trkpt lat="39.9907042" lon="18.1883887"><ele>96.0</ele><time>2026-03-29T09:39:15.862Z</time></trkpt><trkpt lat="39.9907789" lon="18.1884741"><ele>96.25</ele><time>2026-03-29T09:39:17.862Z</time></trkpt><trkpt lat="39.9908357" lon="18.1885257"><ele>96.5</ele><time>2026-03-29T09:39:19.862Z</time></trkpt><trkpt lat="39.990893" lon="18.1886193"><ele>96.75</ele><time>2026-03-29T09:39:21.863Z</time></trkpt><trkpt lat="39.9909496" lon="18.1887349"><ele>97.0</ele><time>2026-03-29T09:39:23.863Z</time></trkpt><trkpt lat="39.9911055" lon="18.1889412"><ele>97.75</ele><time>2026-03-29T09:39:27.864Z</time></trkpt><trkpt lat="39.9911891" lon="18.1890513"><ele>98.5</ele><time>2026-03-29T09:39:29.862Z</time></trkpt><trkpt lat="39.9912724" lon="18.189151"><ele>99.25</ele><time>2026-03-29T09:39:31.864Z</time></trkpt><trkpt lat="39.9913572" lon="18.1892545"><ele>100.0</ele><time>2026-03-29T09:39:33.864Z</time></trkpt><trkpt lat="39.9914401" lon="18.1893554"><ele>100.0</ele><time>2026-03-29T09:39:35.864Z</time></trkpt><trkpt lat="39.9915239" lon="18.189456"><ele>100.0</ele><time>2026-03-29T09:39:37.864Z</time></trkpt><trkpt lat="39.9915999" lon="18.1895517"><ele>100.0</ele><time>2026-03-29T09:39:39.863Z</time></trkpt><trkpt lat="39.9916677" lon="18.189646"><ele>100.0</ele><time>2026-03-29T09:39:41.863Z</time></trkpt><trkpt lat="39.9917293" lon="18.1897427"><ele>100.0</ele><time>2026-03-29T09:39:43.863Z</time></trkpt><trkpt lat="39.991789" lon="18.1898383"><ele>101.25</ele><time>2026-03-29T09:39:45.863Z</time></trkpt><trkpt lat="39.9918986" lon="18.1900134"><ele>102.5</ele><time>2026-03-29T09:39:49.864Z</time></trkpt><trkpt lat="39.9919432" lon="18.1900796"><ele>103.75</ele><time>2026-03-29T09:39:51.863Z</time></trkpt><trkpt lat="39.9919765" lon="18.190154"><ele>105.0</ele><time>2026-03-29T09:40:06.864Z</time></trkpt><trkpt lat="39.9920869" lon="18.190282"><ele>105.0</ele><time>2026-03-29T09:40:12.863Z</time></trkpt><trkpt lat="39.9921386" lon="18.1903375"><ele>105.0</ele><time>2026-03-29T09:40:15.864Z</time></trkpt><trkpt lat="39.9921881" lon="18.1904045"><ele>105.0</ele><time>2026-03-29T09:40:18.863Z</time></trkpt><trkpt lat="39.9922455" lon="18.1904474"><ele>105.0</ele><time>2026-03-29T09:40:21.863Z</time></trkpt><trkpt lat="39.9923237" lon="18.1904569"><ele>105.0</ele><time>2026-03-29T09:40:24.864Z</time></trkpt><trkpt lat="39.9923641" lon="18.1905286"><ele>105.0</ele><time>2026-03-29T09:40:28.864Z</time></trkpt><trkpt lat="39.9922604" lon="18.1906862"><ele>106.5</ele><time>2026-03-29T09:40:36.865Z</time></trkpt><trkpt lat="39.9922048" lon="18.1907309"><ele>108.0</ele><time>2026-03-29T09:40:39.864Z</time></trkpt><trkpt lat="39.992142" lon="18.1907933"><ele>109.5</ele><time>2026-03-29T09:40:42.865Z</time></trkpt><trkpt lat="39.9920659" lon="18.1908418"><ele>111.0</ele><time>2026-03-29T09:40:45.864Z</time></trkpt><trkpt lat="39.9920105" lon="18.1909359"><ele>112.5</ele><time>2026-03-29T09:40:48.864Z</time></trkpt><trkpt lat="39.9920171" lon="18.1910244"><ele>114.0</ele><time>2026-03-29T09:40:51.864Z</time></trkpt><trkpt lat="39.9920988" lon="18.1911742"><ele>114.0</ele><time>2026-03-29T09:40:59.864Z</time></trkpt><trkpt lat="39.9921077" lon="18.191258"><ele>114.0</ele><time>2026-03-29T09:41:03.864Z</time></trkpt><trkpt lat="39.992091" lon="18.1911684"><ele>114.0</ele><time>2026-03-29T09:41:26.865Z</time></trkpt><trkpt lat="39.9920259" lon="18.1909984"><ele>114.0</ele><time>2026-03-29T09:41:33.864Z</time></trkpt><trkpt lat="39.9920308" lon="18.1909103"><ele>114.0</ele><time>2026-03-29T09:41:36.865Z</time></trkpt><trkpt lat="39.9920889" lon="18.1908323"><ele>114.0</ele><time>2026-03-29T09:41:39.865Z</time></trkpt><trkpt lat="39.9921679" lon="18.1907853"><ele>114.0</ele><time>2026-03-29T09:41:42.866Z</time></trkpt><trkpt lat="39.9922469" lon="18.1907386"><ele>114.0</ele><time>2026-03-29T09:41:45.865Z</time></trkpt><trkpt lat="39.9923113" lon="18.1907043"><ele>114.0</ele><time>2026-03-29T09:41:48.865Z</time></trkpt><trkpt lat="39.9923883" lon="18.1905269"><ele>114.0</ele><time>2026-03-29T09:41:55.866Z</time></trkpt><trkpt lat="39.9924416" lon="18.1904735"><ele>114.0</ele><time>2026-03-29T09:41:58.865Z</time></trkpt><trkpt lat="39.9925263" lon="18.1905113"><ele>113.33333333333333</ele><time>2026-03-29T09:42:01.866Z</time></trkpt><trkpt lat="39.9925924" lon="18.1905345"><ele>112.66666666666666</ele><time>2026-03-29T09:42:03.866Z</time></trkpt><trkpt lat="39.9926641" lon="18.1905391"><ele>112.0</ele><time>2026-03-29T09:42:05.866Z</time></trkpt><trkpt lat="39.9927414" lon="18.19056"><ele>111.33333333333333</ele><time>2026-03-29T09:42:08.866Z</time></trkpt><trkpt lat="39.9928098" lon="18.1905726"><ele>110.66666666666666</ele><time>2026-03-29T09:42:11.865Z</time></trkpt><trkpt lat="39.9926739" lon="18.1906566"><ele>110.0</ele><time>2026-03-29T09:42:19.865Z</time></trkpt><trkpt lat="39.9926176" lon="18.1907198"><ele>110.66666666666666</ele><time>2026-03-29T09:42:22.865Z</time></trkpt><trkpt lat="39.9925555" lon="18.1907593"><ele>111.33333333333333</ele><time>2026-03-29T09:42:24.865Z</time></trkpt><trkpt lat="39.9924756" lon="18.1908015"><ele>112.0</ele><time>2026-03-29T09:42:27.866Z</time></trkpt><trkpt lat="39.9924331" lon="18.1908879"><ele>112.66666666666666</ele><time>2026-03-29T09:42:30.866Z</time></trkpt><trkpt lat="39.9924276" lon="18.1909802"><ele>113.33333333333333</ele><time>2026-03-29T09:42:33.866Z</time></trkpt><trkpt lat="39.9924541" lon="18.1909837"><ele>114.0</ele><time>2026-03-29T09:43:07.866Z</time></trkpt><trkpt lat="39.9924944" lon="18.1908031"><ele>113.33333333333333</ele><time>2026-03-29T09:43:15.866Z</time></trkpt><trkpt lat="39.9925579" lon="18.1907794"><ele>112.66666666666666</ele><time>2026-03-29T09:43:19.867Z</time></trkpt><trkpt lat="39.9926202" lon="18.1907219"><ele>112.0</ele><time>2026-03-29T09:43:23.866Z</time></trkpt><trkpt lat="39.9926777" lon="18.1906598"><ele>111.33333333333333</ele><time>2026-03-29T09:43:26.866Z</time></trkpt><trkpt lat="39.9927263" lon="18.1905943"><ele>110.66666666666666</ele><time>2026-03-29T09:43:29.867Z</time></trkpt><trkpt lat="39.9928573" lon="18.1905784"><ele>110.0</ele><time>2026-03-29T09:44:54.867Z</time></trkpt><trkpt lat="39.9929892" lon="18.1905939"><ele>110.0</ele><time>2026-03-29T09:45:06.868Z</time></trkpt><trkpt lat="39.9930522" lon="18.190615"><ele>110.0</ele><time>2026-03-29T09:45:15.868Z</time></trkpt><trkpt lat="39.9932161" lon="18.1907575"><ele>110.0</ele><time>2026-03-29T09:45:54.868Z</time></trkpt><trkpt lat="39.9932681" lon="18.1908051"><ele>110.0</ele><time>2026-03-29T09:45:59.869Z</time></trkpt><trkpt lat="39.9933249" lon="18.1908521"><ele>110.0</ele><time>2026-03-29T09:46:05.868Z</time></trkpt><trkpt lat="39.9934247" lon="18.1909671"><ele>112.0</ele><time>2026-03-29T09:46:16.869Z</time></trkpt><trkpt lat="39.9934097" lon="18.1910489"><ele>114.0</ele><time>2026-03-29T09:46:25.869Z</time></trkpt><trkpt lat="39.9933408" lon="18.1910976"><ele>116.0</ele><time>2026-03-29T09:46:29.87Z</time></trkpt><trkpt lat="39.9931763" lon="18.1912089"><ele>118.0</ele><time>2026-03-29T09:46:35.869Z</time></trkpt><trkpt lat="39.9931059" lon="18.1912719"><ele>120.0</ele><time>2026-03-29T09:46:38.87Z</time></trkpt><trkpt lat="39.9930473" lon="18.1913097"><ele>120.0</ele><time>2026-03-29T09:46:40.869Z</time></trkpt><trkpt lat="39.992979" lon="18.1913518"><ele>120.0</ele><time>2026-03-29T09:46:42.87Z</time></trkpt><trkpt lat="39.9929045" lon="18.1913792"><ele>120.0</ele><time>2026-03-29T09:46:44.869Z</time></trkpt><trkpt lat="39.9928291" lon="18.1914052"><ele>120.0</ele><time>2026-03-29T09:46:46.869Z</time></trkpt><trkpt lat="39.9927684" lon="18.1914416"><ele>120.0</ele><time>2026-03-29T09:46:48.869Z</time></trkpt><trkpt lat="39.9927067" lon="18.1914825"><ele>120.0</ele><time>2026-03-29T09:46:50.869Z</time></trkpt><trkpt lat="39.9925743" lon="18.1915881"><ele>120.66666666666667</ele><time>2026-03-29T09:46:54.87Z</time></trkpt><trkpt lat="39.992508" lon="18.1916446"><ele>121.33333333333334</ele><time>2026-03-29T09:46:56.869Z</time></trkpt><trkpt lat="39.9924442" lon="18.1916909"><ele>122.0</ele><time>2026-03-29T09:46:58.87Z</time></trkpt><trkpt lat="39.9923975" lon="18.1917908"><ele>122.66666666666667</ele><time>2026-03-29T09:47:01.869Z</time></trkpt><trkpt lat="39.9923361" lon="18.1918474"><ele>123.33333333333334</ele><time>2026-03-29T09:47:04.869Z</time></trkpt><trkpt lat="39.9922686" lon="18.1918918"><ele>124.0</ele><time>2026-03-29T09:47:06.869Z</time></trkpt><trkpt lat="39.9922049" lon="18.1919581"><ele>124.00000000000001</ele><time>2026-03-29T09:47:08.87Z</time></trkpt><trkpt lat="39.9922181" lon="18.1920607"><ele>124.0</ele><time>2026-03-29T09:47:11.87Z</time></trkpt><trkpt lat="39.9922694" lon="18.1922235"><ele>124.0</ele><time>2026-03-29T09:47:17.87Z</time></trkpt><trkpt lat="39.9922953" lon="18.1923159"><ele>124.0</ele><time>2026-03-29T09:47:20.87Z</time></trkpt><trkpt lat="39.9922664" lon="18.1924107"><ele>124.00000000000001</ele><time>2026-03-29T09:47:23.87Z</time></trkpt><trkpt lat="39.9923009" lon="18.1924879"><ele>124.0</ele><time>2026-03-29T09:47:25.871Z</time></trkpt><trkpt lat="39.992349" lon="18.1925569"><ele>124.83333333333334</ele><time>2026-03-29T09:47:27.871Z</time></trkpt><trkpt lat="39.9923889" lon="18.1926293"><ele>125.66666666666667</ele><time>2026-03-29T09:47:29.87Z</time></trkpt><trkpt lat="39.992427" lon="18.1927006"><ele>126.5</ele><time>2026-03-29T09:47:31.871Z</time></trkpt><trkpt lat="39.9924639" lon="18.1927719"><ele>127.33333333333334</ele><time>2026-03-29T09:47:33.87Z</time></trkpt><trkpt lat="39.9925522" lon="18.1929326"><ele>128.16666666666666</ele><time>2026-03-29T09:47:39.87Z</time></trkpt><trkpt lat="39.9925771" lon="18.1930189"><ele>129.0</ele><time>2026-03-29T09:47:42.87Z</time></trkpt><trkpt lat="39.9925772" lon="18.193107"><ele>130.0</ele><time>2026-03-29T09:47:45.87Z</time></trkpt><trkpt lat="39.9926002" lon="18.1931947"><ele>131.0</ele><time>2026-03-29T09:47:48.87Z</time></trkpt><trkpt lat="39.9926339" lon="18.1932654"><ele>132.0</ele><time>2026-03-29T09:47:50.87Z</time></trkpt><trkpt lat="39.9926721" lon="18.1933386"><ele>133.0</ele><time>2026-03-29T09:47:52.87Z</time></trkpt><trkpt lat="39.9927072" lon="18.1934196"><ele>134.0</ele><time>2026-03-29T09:47:54.87Z</time></trkpt><trkpt lat="39.9927655" lon="18.1935856"><ele>135.0</ele><time>2026-03-29T09:47:58.871Z</time></trkpt><trkpt lat="39.9927928" lon="18.19366"><ele>135.0</ele><time>2026-03-29T09:48:00.87Z</time></trkpt><trkpt lat="39.9928401" lon="18.1937562"><ele>135.0</ele><time>2026-03-29T09:48:03.87Z</time></trkpt><trkpt lat="39.992879" lon="18.1938249"><ele>135.0</ele><time>2026-03-29T09:48:05.871Z</time></trkpt><trkpt lat="39.992913" lon="18.1939007"><ele>135.0</ele><time>2026-03-29T09:48:07.87Z</time></trkpt><trkpt lat="39.9929459" lon="18.1939758"><ele>135.0</ele><time>2026-03-29T09:48:09.871Z</time></trkpt><trkpt lat="39.9929796" lon="18.1940493"><ele>135.0</ele><time>2026-03-29T09:48:11.87Z</time></trkpt><trkpt lat="39.9930364" lon="18.1940925"><ele>135.0</ele><time>2026-03-29T09:48:13.87Z</time></trkpt><trkpt lat="39.99309" lon="18.1941357"><ele>135.8</ele><time>2026-03-29T09:48:15.87Z</time></trkpt><trkpt lat="39.9932281" lon="18.1942115"><ele>136.6</ele><time>2026-03-29T09:48:22.87Z</time></trkpt><trkpt lat="39.9932773" lon="18.1943012"><ele>137.4</ele><time>2026-03-29T09:48:25.871Z</time></trkpt><trkpt lat="39.9933049" lon="18.1943963"><ele>138.2</ele><time>2026-03-29T09:48:28.872Z</time></trkpt><trkpt lat="39.9933048" lon="18.1945148"><ele>139.0</ele><time>2026-03-29T09:48:31.871Z</time></trkpt><trkpt lat="39.993255" lon="18.1945697"><ele>139.0</ele><time>2026-03-29T09:48:34.871Z</time></trkpt><trkpt lat="39.9931998" lon="18.1946438"><ele>139.0</ele><time>2026-03-29T09:48:39.871Z</time></trkpt><trkpt lat="39.9931597" lon="18.1948148"><ele>139.0</ele><time>2026-03-29T09:48:45.872Z</time></trkpt><trkpt lat="39.9932315" lon="18.1948309"><ele>139.0</ele><time>2026-03-29T09:48:50.872Z</time></trkpt><trkpt lat="39.9932924" lon="18.194898"><ele>139.0</ele><time>2026-03-29T09:48:54.871Z</time></trkpt><trkpt lat="39.9933774" lon="18.1949133"><ele>139.66666666666669</ele><time>2026-03-29T09:48:58.871Z</time></trkpt><trkpt lat="39.9934518" lon="18.1949696"><ele>140.33333333333334</ele><time>2026-03-29T09:49:01.871Z</time></trkpt><trkpt lat="39.9934575" lon="18.1951585"><ele>141.0</ele><time>2026-03-29T09:49:08.872Z</time></trkpt><trkpt lat="39.9934059" lon="18.1952158"><ele>141.66666666666666</ele><time>2026-03-29T09:49:10.871Z</time></trkpt><trkpt lat="39.9933568" lon="18.1952818"><ele>142.33333333333331</ele><time>2026-03-29T09:49:12.872Z</time></trkpt><trkpt lat="39.9933089" lon="18.1953593"><ele>143.0</ele><time>2026-03-29T09:49:14.872Z</time></trkpt><trkpt lat="39.9932621" lon="18.1954494"><ele>143.0</ele><time>2026-03-29T09:49:16.872Z</time></trkpt><trkpt lat="39.9931982" lon="18.1955196"><ele>143.0</ele><time>2026-03-29T09:49:18.871Z</time></trkpt><trkpt lat="39.9931365" lon="18.1956015"><ele>143.0</ele><time>2026-03-29T09:49:20.871Z</time></trkpt><trkpt lat="39.9930827" lon="18.1956972"><ele>143.0</ele><time>2026-03-29T09:49:22.871Z</time></trkpt><trkpt lat="39.99298" lon="18.1958329"><ele>143.0</ele><time>2026-03-29T09:49:26.871Z</time></trkpt><trkpt lat="39.9929385" lon="18.1959149"><ele>143.5</ele><time>2026-03-29T09:49:28.871Z</time></trkpt><trkpt lat="39.9929379" lon="18.1960062"><ele>144.0</ele><time>2026-03-29T09:49:30.873Z</time></trkpt><trkpt lat="39.9929079" lon="18.19611"><ele>144.5</ele><time>2026-03-29T09:49:33.873Z</time></trkpt><trkpt lat="39.9928463" lon="18.196175"><ele>145.0</ele><time>2026-03-29T09:49:36.873Z</time></trkpt><trkpt lat="39.9927848" lon="18.1962527"><ele>145.5</ele><time>2026-03-29T09:49:39.873Z</time></trkpt><trkpt lat="39.9927379" lon="18.1963317"><ele>146.0</ele><time>2026-03-29T09:49:41.872Z</time></trkpt><trkpt lat="39.9926857" lon="18.1964311"><ele>147.33333333333331</ele><time>2026-03-29T09:49:44.873Z</time></trkpt><trkpt lat="39.9926241" lon="18.196592"><ele>148.66666666666666</ele><time>2026-03-29T09:49:48.873Z</time></trkpt><trkpt lat="39.9926339" lon="18.1966795"><ele>150.0</ele><time>2026-03-29T09:49:50.873Z</time></trkpt><trkpt lat="39.9926837" lon="18.1967617"><ele>151.33333333333334</ele><time>2026-03-29T09:49:53.872Z</time></trkpt><trkpt lat="39.9927557" lon="18.1967938"><ele>152.66666666666669</ele><time>2026-03-29T09:49:56.872Z</time></trkpt><trkpt lat="39.9928171" lon="18.1968556"><ele>154.0</ele><time>2026-03-29T09:49:59.872Z</time></trkpt><trkpt lat="39.9928747" lon="18.1968932"><ele>154.0</ele><time>2026-03-29T09:50:01.873Z</time></trkpt><trkpt lat="39.9929306" lon="18.1969459"><ele>154.0</ele><time>2026-03-29T09:50:03.872Z</time></trkpt><trkpt lat="39.99298" lon="18.1970043"><ele>154.0</ele><time>2026-03-29T09:50:05.872Z</time></trkpt><trkpt lat="39.9931312" lon="18.1970799"><ele>154.0</ele><time>2026-03-29T09:50:11.872Z</time></trkpt><trkpt lat="39.9931924" lon="18.1971213"><ele>154.0</ele><time>2026-03-29T09:50:14.872Z</time></trkpt><trkpt lat="39.9932372" lon="18.1971942"><ele>154.0</ele><time>2026-03-29T09:50:17.873Z</time></trkpt><trkpt lat="39.9933145" lon="18.1971985"><ele>155.66666666666669</ele><time>2026-03-29T09:50:20.872Z</time></trkpt><trkpt lat="39.9933932" lon="18.197168"><ele>157.33333333333334</ele><time>2026-03-29T09:50:23.872Z</time></trkpt><trkpt lat="39.9934372" lon="18.1970937"><ele>159.0</ele><time>2026-03-29T09:50:34.873Z</time></trkpt><trkpt lat="39.9934999" lon="18.1969351"><ele>160.66666666666666</ele><time>2026-03-29T09:50:40.873Z</time></trkpt><trkpt lat="39.9935173" lon="18.1968271"><ele>162.33333333333331</ele><time>2026-03-29T09:50:43.873Z</time></trkpt><trkpt lat="39.9935803" lon="18.1967805"><ele>164.0</ele><time>2026-03-29T09:50:47.873Z</time></trkpt><trkpt lat="39.9936404" lon="18.1966989"><ele>164.0</ele><time>2026-03-29T09:50:56.873Z</time></trkpt><trkpt lat="39.9936527" lon="18.1965067"><ele>164.0</ele><time>2026-03-29T09:51:02.874Z</time></trkpt><trkpt lat="39.9936834" lon="18.1964274"><ele>164.0</ele><time>2026-03-29T09:51:06.873Z</time></trkpt><trkpt lat="39.9937625" lon="18.196386"><ele>164.0</ele><time>2026-03-29T09:51:09.873Z</time></trkpt><trkpt lat="39.9938194" lon="18.1963326"><ele>164.0</ele><time>2026-03-29T09:51:12.873Z</time></trkpt><trkpt lat="39.9938868" lon="18.1963509"><ele>164.0</ele><time>2026-03-29T09:51:16.873Z</time></trkpt><trkpt lat="39.9939033" lon="18.196271"><ele>164.0</ele><time>2026-03-29T09:51:19.874Z</time></trkpt><trkpt lat="39.9939477" lon="18.1964108"><ele>164.0</ele><time>2026-03-29T09:51:30.874Z</time></trkpt><trkpt lat="39.993953" lon="18.1965103"><ele>164.0</ele><time>2026-03-29T09:51:34.873Z</time></trkpt><trkpt lat="39.9939644" lon="18.1965983"><ele>164.0</ele><time>2026-03-29T09:52:19.874Z</time></trkpt><trkpt lat="39.9940533" lon="18.1966651"><ele>164.0</ele><time>2026-03-29T09:52:30.874Z</time></trkpt><trkpt lat="39.9941175" lon="18.1966634"><ele>164.0</ele><time>2026-03-29T09:52:36.875Z</time></trkpt><trkpt lat="39.9941375" lon="18.1967478"><ele>164.0</ele><time>2026-03-29T09:53:06.875Z</time></trkpt><trkpt lat="39.9941382" lon="18.1969174"><ele>164.0</ele><time>2026-03-29T09:53:22.876Z</time></trkpt><trkpt lat="39.9941941" lon="18.1969712"><ele>164.0</ele><time>2026-03-29T09:53:29.875Z</time></trkpt><trkpt lat="39.994318" lon="18.1969518"><ele>164.0</ele><time>2026-03-29T09:53:44.876Z</time></trkpt><trkpt lat="39.9943756" lon="18.1968881"><ele>164.0</ele><time>2026-03-29T09:53:47.876Z</time></trkpt><trkpt lat="39.9944375" lon="18.1968357"><ele>164.79999999999998</ele><time>2026-03-29T09:53:51.876Z</time></trkpt><trkpt lat="39.994588" lon="18.1968353"><ele>165.6</ele><time>2026-03-29T09:53:59.876Z</time></trkpt><trkpt lat="39.9946321" lon="18.1969074"><ele>166.4</ele><time>2026-03-29T09:54:03.876Z</time></trkpt><trkpt lat="39.9946769" lon="18.1969846"><ele>167.2</ele><time>2026-03-29T09:54:06.876Z</time></trkpt><trkpt lat="39.9947168" lon="18.1970717"><ele>168.0</ele><time>2026-03-29T09:54:11.876Z</time></trkpt><trkpt lat="39.9947295" lon="18.1971957"><ele>168.0</ele><time>2026-03-29T09:54:14.877Z</time></trkpt><trkpt lat="39.9948191" lon="18.1973352"><ele>168.0</ele><time>2026-03-29T09:54:18.877Z</time></trkpt><trkpt lat="39.9949003" lon="18.1973426"><ele>168.0</ele><time>2026-03-29T09:54:21.877Z</time></trkpt><trkpt lat="39.9949534" lon="18.1973937"><ele>168.0</ele><time>2026-03-29T09:54:23.876Z</time></trkpt><trkpt lat="39.9949957" lon="18.1974778"><ele>168.0</ele><time>2026-03-29T09:54:25.877Z</time></trkpt><trkpt lat="39.9950827" lon="18.1975467"><ele>167.8</ele><time>2026-03-29T09:54:29.877Z</time></trkpt><trkpt lat="39.9951498" lon="18.1975193"><ele>167.60000000000002</ele><time>2026-03-29T09:54:33.876Z</time></trkpt><trkpt lat="39.995168" lon="18.197623"><ele>167.39999999999998</ele><time>2026-03-29T09:54:37.876Z</time></trkpt><trkpt lat="39.9952259" lon="18.1978422"><ele>167.2</ele><time>2026-03-29T09:54:42.877Z</time></trkpt><trkpt lat="39.9952631" lon="18.1979497"><ele>167.0</ele><time>2026-03-29T09:54:44.877Z</time></trkpt><trkpt lat="39.9952943" lon="18.1980715"><ele>167.2</ele><time>2026-03-29T09:54:46.876Z</time></trkpt><trkpt lat="39.9953358" lon="18.1981937"><ele>167.39999999999998</ele><time>2026-03-29T09:54:48.876Z</time></trkpt><trkpt lat="39.9953635" lon="18.1983158"><ele>167.60000000000002</ele><time>2026-03-29T09:54:50.876Z</time></trkpt><trkpt lat="39.9954007" lon="18.1984523"><ele>167.8</ele><time>2026-03-29T09:54:52.877Z</time></trkpt><trkpt lat="39.9954438" lon="18.1985765"><ele>168.0</ele><time>2026-03-29T09:54:54.876Z</time></trkpt><trkpt lat="39.9954819" lon="18.1987031"><ele>168.0</ele><time>2026-03-29T09:54:56.877Z</time></trkpt><trkpt lat="39.9955143" lon="18.1988405"><ele>168.0</ele><time>2026-03-29T09:54:58.877Z</time></trkpt><trkpt lat="39.9955704" lon="18.199092"><ele>168.0</ele><time>2026-03-29T09:55:02.876Z</time></trkpt><trkpt lat="39.9955976" lon="18.1991866"><ele>168.0</ele><time>2026-03-29T09:55:04.876Z</time></trkpt><trkpt lat="39.9955678" lon="18.1992626"><ele>168.0</ele><time>2026-03-29T09:55:07.878Z</time></trkpt><trkpt lat="39.9954922" lon="18.1992784"><ele>168.0</ele><time>2026-03-29T09:55:09.878Z</time></trkpt><trkpt lat="39.9954078" lon="18.1992858"><ele>168.0</ele><time>2026-03-29T09:55:11.877Z</time></trkpt><trkpt lat="39.9953203" lon="18.1993296"><ele>168.0</ele><time>2026-03-29T09:55:13.878Z</time></trkpt><trkpt lat="39.9952198" lon="18.1993721"><ele>168.0</ele><time>2026-03-29T09:55:15.878Z</time></trkpt><trkpt lat="39.9951479" lon="18.1994109"><ele>168.0</ele><time>2026-03-29T09:55:17.877Z</time></trkpt><trkpt lat="39.9950673" lon="18.1994518"><ele>168.5</ele><time>2026-03-29T09:55:20.878Z</time></trkpt><trkpt lat="39.9948855" lon="18.1995277"><ele>169.0</ele><time>2026-03-29T09:55:24.877Z</time></trkpt><trkpt lat="39.994799" lon="18.1995578"><ele>169.5</ele><time>2026-03-29T09:55:26.877Z</time></trkpt><trkpt lat="39.9947094" lon="18.199594"><ele>170.0</ele><time>2026-03-29T09:55:28.878Z</time></trkpt><trkpt lat="39.9946086" lon="18.1996438"><ele>170.0</ele><time>2026-03-29T09:55:30.877Z</time></trkpt><trkpt lat="39.9945029" lon="18.1996951"><ele>170.0</ele><time>2026-03-29T09:55:32.878Z</time></trkpt><trkpt lat="39.9943939" lon="18.1997453"><ele>170.0</ele><time>2026-03-29T09:55:34.877Z</time></trkpt><trkpt lat="39.9942911" lon="18.1997923"><ele>170.0</ele><time>2026-03-29T09:55:36.878Z</time></trkpt><trkpt lat="39.9941752" lon="18.1998478"><ele>169.5</ele><time>2026-03-29T09:55:38.878Z</time></trkpt><trkpt lat="39.9941156" lon="18.1998743"><ele>169.0</ele><time>2026-03-29T09:55:39.877Z</time></trkpt><trkpt lat="39.9940045" lon="18.1999254"><ele>168.5</ele><time>2026-03-29T09:55:41.877Z</time></trkpt><trkpt lat="39.9938074" lon="18.2000035"><ele>168.0</ele><time>2026-03-29T09:55:45.878Z</time></trkpt><trkpt lat="39.9937103" lon="18.2000537"><ele>168.0</ele><time>2026-03-29T09:55:47.877Z</time></trkpt><trkpt lat="39.9936184" lon="18.2001074"><ele>168.0</ele><time>2026-03-29T09:55:49.878Z</time></trkpt><trkpt lat="39.9935581" lon="18.2001528"><ele>168.0</ele><time>2026-03-29T09:55:51.878Z</time></trkpt><trkpt lat="39.9934912" lon="18.200188"><ele>168.0</ele><time>2026-03-29T09:55:53.877Z</time></trkpt><trkpt lat="39.9934203" lon="18.2002248"><ele>168.0</ele><time>2026-03-29T09:55:55.877Z</time></trkpt><trkpt lat="39.9933532" lon="18.2002576"><ele>168.0</ele><time>2026-03-29T09:55:58.877Z</time></trkpt><trkpt lat="39.9932645" lon="18.2002842"><ele>167.8</ele><time>2026-03-29T09:56:01.877Z</time></trkpt><trkpt lat="39.9931982" lon="18.200304"><ele>167.60000000000002</ele><time>2026-03-29T09:56:04.877Z</time></trkpt><trkpt lat="39.9932618" lon="18.2004843"><ele>167.39999999999998</ele><time>2026-03-29T09:56:11.877Z</time></trkpt><trkpt lat="39.9932743" lon="18.2005772"><ele>167.2</ele><time>2026-03-29T09:56:14.878Z</time></trkpt><trkpt lat="39.9932896" lon="18.2006877"><ele>167.0</ele><time>2026-03-29T09:56:17.879Z</time></trkpt><trkpt lat="39.9933168" lon="18.200788"><ele>166.8</ele><time>2026-03-29T09:56:21.878Z</time></trkpt><trkpt lat="39.9933302" lon="18.2008778"><ele>166.6</ele><time>2026-03-29T09:56:25.879Z</time></trkpt><trkpt lat="39.9933573" lon="18.2010364"><ele>166.4</ele><time>2026-03-29T09:56:29.878Z</time></trkpt><trkpt lat="39.9932764" lon="18.2010948"><ele>166.20000000000002</ele><time>2026-03-29T09:56:31.878Z</time></trkpt><trkpt lat="39.9931791" lon="18.2010891"><ele>166.0</ele><time>2026-03-29T09:56:33.879Z</time></trkpt><trkpt lat="39.9931067" lon="18.2010635"><ele>166.0</ele><time>2026-03-29T09:56:35.878Z</time></trkpt><trkpt lat="39.9930465" lon="18.2010333"><ele>166.0</ele><time>2026-03-29T09:56:37.878Z</time></trkpt><trkpt lat="39.9929737" lon="18.2010447"><ele>166.0</ele><time>2026-03-29T09:56:41.878Z</time></trkpt><trkpt lat="39.9929014" lon="18.2011022"><ele>166.0</ele><time>2026-03-29T09:56:44.879Z</time></trkpt><trkpt lat="39.9928738" lon="18.2011808"><ele>166.0</ele><time>2026-03-29T09:56:46.879Z</time></trkpt><trkpt lat="39.9927708" lon="18.201121"><ele>166.0</ele><time>2026-03-29T09:56:56.878Z</time></trkpt><trkpt lat="39.9926839" lon="18.2011196"><ele>166.0</ele><time>2026-03-29T09:57:00.878Z</time></trkpt><trkpt lat="39.992686" lon="18.201024"><ele>166.0</ele><time>2026-03-29T09:57:04.878Z</time></trkpt><trkpt lat="39.992699" lon="18.2009377"><ele>166.0</ele><time>2026-03-29T09:57:08.879Z</time></trkpt><trkpt lat="39.9926925" lon="18.2007438"><ele>166.0</ele><time>2026-03-29T09:57:15.878Z</time></trkpt><trkpt lat="39.9927675" lon="18.2007455"><ele>166.0</ele><time>2026-03-29T09:57:18.878Z</time></trkpt><trkpt lat="39.9927829" lon="18.2006653"><ele>166.0</ele><time>2026-03-29T09:57:20.879Z</time></trkpt><trkpt lat="39.9927487" lon="18.2005465"><ele>166.20000000000002</ele><time>2026-03-29T09:57:22.879Z</time></trkpt><trkpt lat="39.9927293" lon="18.2004377"><ele>166.4</ele><time>2026-03-29T09:57:24.879Z</time></trkpt><trkpt lat="39.9927473" lon="18.2003505"><ele>166.6</ele><time>2026-03-29T09:57:26.879Z</time></trkpt><trkpt lat="39.9927587" lon="18.2002524"><ele>166.8</ele><time>2026-03-29T09:57:28.88Z</time></trkpt><trkpt lat="39.9927521" lon="18.2001496"><ele>167.0</ele><time>2026-03-29T09:57:30.879Z</time></trkpt><trkpt lat="39.9928564" lon="18.2000044"><ele>167.0</ele><time>2026-03-29T09:57:37.879Z</time></trkpt><trkpt lat="39.9928735" lon="18.1999119"><ele>167.0</ele><time>2026-03-29T09:57:39.88Z</time></trkpt><trkpt lat="39.9928981" lon="18.1998027"><ele>167.0</ele><time>2026-03-29T09:57:41.879Z</time></trkpt><trkpt lat="39.9928713" lon="18.1996977"><ele>167.0</ele><time>2026-03-29T09:57:44.88Z</time></trkpt><trkpt lat="39.9928627" lon="18.1995996"><ele>167.0</ele><time>2026-03-29T09:57:47.879Z</time></trkpt><trkpt lat="39.9928076" lon="18.1996588"><ele>167.0</ele><time>2026-03-29T09:57:51.88Z</time></trkpt><trkpt lat="39.9927247" lon="18.1997888"><ele>167.0</ele><time>2026-03-29T09:58:00.88Z</time></trkpt><trkpt lat="39.9926734" lon="18.1998555"><ele>167.0</ele><time>2026-03-29T09:58:06.88Z</time></trkpt><trkpt lat="39.9926505" lon="18.1997775"><ele>167.0</ele><time>2026-03-29T09:58:11.879Z</time></trkpt><trkpt lat="39.9926459" lon="18.1996812"><ele>167.0</ele><time>2026-03-29T09:58:16.879Z</time></trkpt><trkpt lat="39.9926554" lon="18.1995467"><ele>167.0</ele><time>2026-03-29T09:58:24.879Z</time></trkpt><trkpt lat="39.9926978" lon="18.1994697"><ele>167.0</ele><time>2026-03-29T09:58:27.879Z</time></trkpt><trkpt lat="39.9927283" lon="18.1993955"><ele>167.0</ele><time>2026-03-29T09:58:30.88Z</time></trkpt><trkpt lat="39.9926853" lon="18.1993246"><ele>167.0</ele><time>2026-03-29T09:58:33.88Z</time></trkpt><trkpt lat="39.9926245" lon="18.1993014"><ele>167.0</ele><time>2026-03-29T09:58:37.881Z</time></trkpt><trkpt lat="39.992534" lon="18.1993618"><ele>167.0</ele><time>2026-03-29T09:58:57.88Z</time></trkpt><trkpt lat="39.9924936" lon="18.1992918"><ele>167.0</ele><time>2026-03-29T09:59:02.88Z</time></trkpt><trkpt lat="39.9924006" lon="18.199403"><ele>167.0</ele><time>2026-03-29T09:59:13.881Z</time></trkpt><trkpt lat="39.9924152" lon="18.1994872"><ele>167.0</ele><time>2026-03-29T09:59:16.881Z</time></trkpt><trkpt lat="39.9924164" lon="18.1995857"><ele>167.0</ele><time>2026-03-29T09:59:20.881Z</time></trkpt><trkpt lat="39.9924418" lon="18.1996829"><ele>167.0</ele><time>2026-03-29T09:59:25.88Z</time></trkpt><trkpt lat="39.9925488" lon="18.1998072"><ele>167.0</ele><time>2026-03-29T09:59:34.88Z</time></trkpt><trkpt lat="39.9925751" lon="18.1999151"><ele>167.0</ele><time>2026-03-29T09:59:37.88Z</time></trkpt><trkpt lat="39.9926085" lon="18.2000024"><ele>167.0</ele><time>2026-03-29T09:59:41.881Z</time></trkpt><trkpt lat="39.9926138" lon="18.2001089"><ele>167.0</ele><time>2026-03-29T09:59:44.881Z</time></trkpt><trkpt lat="39.9925978" lon="18.2002027"><ele>167.0</ele><time>2026-03-29T09:59:46.881Z</time></trkpt><trkpt lat="39.9926055" lon="18.2003912"><ele>167.0</ele><time>2026-03-29T09:59:50.881Z</time></trkpt><trkpt lat="39.9926021" lon="18.2004798"><ele>167.0</ele><time>2026-03-29T09:59:55.881Z</time></trkpt><trkpt lat="39.9925889" lon="18.2005641"><ele>167.0</ele><time>2026-03-29T09:59:58.882Z</time></trkpt><trkpt lat="39.99259" lon="18.2006538"><ele>166.8</ele><time>2026-03-29T10:00:04.882Z</time></trkpt><trkpt lat="39.9925319" lon="18.2006923"><ele>166.6</ele><time>2026-03-29T10:00:17.882Z</time></trkpt><trkpt lat="39.9923932" lon="18.2006563"><ele>166.4</ele><time>2026-03-29T10:00:31.881Z</time></trkpt><trkpt lat="39.9923217" lon="18.2006229"><ele>166.20000000000002</ele><time>2026-03-29T10:00:35.881Z</time></trkpt><trkpt lat="39.9922536" lon="18.2006702"><ele>166.0</ele><time>2026-03-29T10:00:41.881Z</time></trkpt><trkpt lat="39.9922369" lon="18.2008197"><ele>165.66666666666669</ele><time>2026-03-29T10:00:47.883Z</time></trkpt><trkpt lat="39.9922189" lon="18.2009124"><ele>165.33333333333334</ele><time>2026-03-29T10:00:53.882Z</time></trkpt><trkpt lat="39.9922416" lon="18.201001"><ele>165.0</ele><time>2026-03-29T10:00:58.882Z</time></trkpt><trkpt lat="39.9923115" lon="18.2010359"><ele>164.66666666666666</ele><time>2026-03-29T10:01:02.882Z</time></trkpt><trkpt lat="39.9922523" lon="18.2011948"><ele>164.33333333333331</ele><time>2026-03-29T10:01:13.882Z</time></trkpt><trkpt lat="39.9922515" lon="18.20129"><ele>164.0</ele><time>2026-03-29T10:01:16.882Z</time></trkpt><trkpt lat="39.9922328" lon="18.2013886"><ele>164.0</ele><time>2026-03-29T10:01:19.883Z</time></trkpt><trkpt lat="39.9921501" lon="18.2014184"><ele>164.0</ele><time>2026-03-29T10:01:22.882Z</time></trkpt><trkpt lat="39.9921353" lon="18.2015007"><ele>164.0</ele><time>2026-03-29T10:01:26.883Z</time></trkpt><trkpt lat="39.9921531" lon="18.2016676"><ele>164.0</ele><time>2026-03-29T10:01:31.882Z</time></trkpt><trkpt lat="39.99212" lon="18.2017394"><ele>164.0</ele><time>2026-03-29T10:01:38.882Z</time></trkpt><trkpt lat="39.9921401" lon="18.2018217"><ele>164.0</ele><time>2026-03-29T10:01:42.882Z</time></trkpt><trkpt lat="39.9921581" lon="18.2019175"><ele>163.5</ele><time>2026-03-29T10:01:47.882Z</time></trkpt><trkpt lat="39.9921175" lon="18.2020672"><ele>163.0</ele><time>2026-03-29T10:02:10.884Z</time></trkpt><trkpt lat="39.9919276" lon="18.2022128"><ele>162.5</ele><time>2026-03-29T10:02:41.884Z</time></trkpt><trkpt lat="39.9918507" lon="18.2022358"><ele>162.0</ele><time>2026-03-29T10:02:48.884Z</time></trkpt><trkpt lat="39.9917846" lon="18.202292"><ele>162.0</ele><time>2026-03-29T10:02:51.883Z</time></trkpt><trkpt lat="39.9917039" lon="18.2023238"><ele>162.0</ele><time>2026-03-29T10:02:56.883Z</time></trkpt><trkpt lat="39.991573" lon="18.2023985"><ele>162.0</ele><time>2026-03-29T10:03:00.883Z</time></trkpt><trkpt lat="39.9915109" lon="18.2024291"><ele>162.0</ele><time>2026-03-29T10:03:02.883Z</time></trkpt><trkpt lat="39.991458" lon="18.2024954"><ele>162.0</ele><time>2026-03-29T10:03:07.883Z</time></trkpt><trkpt lat="39.9914053" lon="18.202546"><ele>162.0</ele><time>2026-03-29T10:03:12.884Z</time></trkpt><trkpt lat="39.9913747" lon="18.2026254"><ele>161.6</ele><time>2026-03-29T10:03:18.884Z</time></trkpt><trkpt lat="39.9912827" lon="18.2027264"><ele>161.2</ele><time>2026-03-29T10:03:30.884Z</time></trkpt><trkpt lat="39.9912915" lon="18.2028176"><ele>160.8</ele><time>2026-03-29T10:03:33.885Z</time></trkpt><trkpt lat="39.9913567" lon="18.2028075"><ele>160.4</ele><time>2026-03-29T10:03:39.884Z</time></trkpt><trkpt lat="39.9914881" lon="18.2027664"><ele>160.0</ele><time>2026-03-29T10:03:48.884Z</time></trkpt><trkpt lat="39.991562" lon="18.2027512"><ele>160.0</ele><time>2026-03-29T10:03:51.884Z</time></trkpt><trkpt lat="39.9916152" lon="18.202701"><ele>160.0</ele><time>2026-03-29T10:03:54.885Z</time></trkpt><trkpt lat="39.9916559" lon="18.2026353"><ele>160.0</ele><time>2026-03-29T10:03:57.884Z</time></trkpt><trkpt lat="39.9917195" lon="18.2025904"><ele>160.0</ele><time>2026-03-29T10:04:01.885Z</time></trkpt><trkpt lat="39.9918422" lon="18.2025169"><ele>160.0</ele><time>2026-03-29T10:04:10.884Z</time></trkpt><trkpt lat="39.9919101" lon="18.2025713"><ele>160.0</ele><time>2026-03-29T10:04:14.884Z</time></trkpt><trkpt lat="39.9919134" lon="18.2026663"><ele>159.33333333333334</ele><time>2026-03-29T10:04:20.884Z</time></trkpt><trkpt lat="39.991865" lon="18.2027542"><ele>158.66666666666669</ele><time>2026-03-29T10:04:25.885Z</time></trkpt><trkpt lat="39.9917409" lon="18.2028508"><ele>158.0</ele><time>2026-03-29T10:04:31.885Z</time></trkpt><trkpt lat="39.9917282" lon="18.2029388"><ele>157.33333333333334</ele><time>2026-03-29T10:04:35.885Z</time></trkpt><trkpt lat="39.9917717" lon="18.2030314"><ele>156.66666666666666</ele><time>2026-03-29T10:04:39.885Z</time></trkpt><trkpt lat="39.9917821" lon="18.2031155"><ele>156.0</ele><time>2026-03-29T10:04:41.885Z</time></trkpt><trkpt lat="39.9917456" lon="18.2032185"><ele>155.33333333333334</ele><time>2026-03-29T10:04:43.885Z</time></trkpt><trkpt lat="39.99175" lon="18.2033309"><ele>154.66666666666666</ele><time>2026-03-29T10:04:46.885Z</time></trkpt><trkpt lat="39.9917821" lon="18.2034919"><ele>154.0</ele><time>2026-03-29T10:04:54.885Z</time></trkpt><trkpt lat="39.9917592" lon="18.2035907"><ele>153.33333333333331</ele><time>2026-03-29T10:04:59.885Z</time></trkpt><trkpt lat="39.9916753" lon="18.203604"><ele>152.66666666666666</ele><time>2026-03-29T10:05:02.886Z</time></trkpt><trkpt lat="39.9916039" lon="18.2036148"><ele>152.0</ele><time>2026-03-29T10:05:04.885Z</time></trkpt><trkpt lat="39.9915307" lon="18.203625"><ele>152.0</ele><time>2026-03-29T10:05:06.885Z</time></trkpt><trkpt lat="39.9914594" lon="18.2036394"><ele>152.0</ele><time>2026-03-29T10:05:08.886Z</time></trkpt><trkpt lat="39.9912665" lon="18.2036796"><ele>152.0</ele><time>2026-03-29T10:05:14.885Z</time></trkpt><trkpt lat="39.9911783" lon="18.2036936"><ele>152.0</ele><time>2026-03-29T10:05:16.885Z</time></trkpt><trkpt lat="39.9910736" lon="18.203716"><ele>152.0</ele><time>2026-03-29T10:05:18.886Z</time></trkpt><trkpt lat="39.9910107" lon="18.203725"><ele>152.0</ele><time>2026-03-29T10:05:19.885Z</time></trkpt><trkpt lat="39.9909479" lon="18.2037324"><ele>152.0</ele><time>2026-03-29T10:05:20.885Z</time></trkpt><trkpt lat="39.9908269" lon="18.2037433"><ele>152.0</ele><time>2026-03-29T10:05:22.885Z</time></trkpt><trkpt lat="39.9907424" lon="18.2037734"><ele>152.0</ele><time>2026-03-29T10:05:24.885Z</time></trkpt><trkpt lat="39.9906783" lon="18.2038054"><ele>152.0</ele><time>2026-03-29T10:05:27.885Z</time></trkpt><trkpt lat="39.9905818" lon="18.203799"><ele>151.4</ele><time>2026-03-29T10:05:30.886Z</time></trkpt><trkpt lat="39.9904298" lon="18.2038284"><ele>150.79999999999998</ele><time>2026-03-29T10:05:34.887Z</time></trkpt><trkpt lat="39.9903486" lon="18.2038596"><ele>150.2</ele><time>2026-03-29T10:05:36.886Z</time></trkpt><trkpt lat="39.9902496" lon="18.2038877"><ele>149.6</ele><time>2026-03-29T10:05:38.886Z</time></trkpt><trkpt lat="39.9901461" lon="18.2039043"><ele>149.0</ele><time>2026-03-29T10:05:40.886Z</time></trkpt><trkpt lat="39.9900473" lon="18.2039541"><ele>148.0</ele><time>2026-03-29T10:05:42.886Z</time></trkpt><trkpt lat="39.9899441" lon="18.2039854"><ele>147.0</ele><time>2026-03-29T10:05:44.886Z</time></trkpt><trkpt lat="39.9898785" lon="18.2040182"><ele>146.0</ele><time>2026-03-29T10:05:48.886Z</time></trkpt><trkpt lat="39.9899198" lon="18.2040822"><ele>145.0</ele><time>2026-03-29T10:06:01.886Z</time></trkpt><trkpt lat="39.989952" lon="18.2042959"><ele>144.0</ele><time>2026-03-29T10:06:07.886Z</time></trkpt><trkpt lat="39.9899632" lon="18.2044118"><ele>143.83333333333334</ele><time>2026-03-29T10:06:10.886Z</time></trkpt><trkpt lat="39.9899706" lon="18.204516"><ele>143.66666666666666</ele><time>2026-03-29T10:06:12.886Z</time></trkpt><trkpt lat="39.9899874" lon="18.2046115"><ele>143.5</ele><time>2026-03-29T10:06:14.886Z</time></trkpt><trkpt lat="39.9900032" lon="18.2047181"><ele>143.33333333333331</ele><time>2026-03-29T10:06:17.887Z</time></trkpt><trkpt lat="39.9900701" lon="18.204795"><ele>143.16666666666666</ele><time>2026-03-29T10:06:20.887Z</time></trkpt><trkpt lat="39.9901151" lon="18.2048834"><ele>143.0</ele><time>2026-03-29T10:06:23.886Z</time></trkpt><trkpt lat="39.9902169" lon="18.2050448"><ele>142.66666666666666</ele><time>2026-03-29T10:06:29.886Z</time></trkpt><trkpt lat="39.9902681" lon="18.2051164"><ele>142.33333333333331</ele><time>2026-03-29T10:06:32.886Z</time></trkpt><trkpt lat="39.9903158" lon="18.205176"><ele>142.0</ele><time>2026-03-29T10:06:37.886Z</time></trkpt><trkpt lat="39.9903592" lon="18.2052639"><ele>141.66666666666666</ele><time>2026-03-29T10:06:44.887Z</time></trkpt><trkpt lat="39.9904453" lon="18.2054033"><ele>141.33333333333334</ele><time>2026-03-29T10:06:53.887Z</time></trkpt><trkpt lat="39.9904792" lon="18.205484"><ele>141.0</ele><time>2026-03-29T10:06:57.887Z</time></trkpt><trkpt lat="39.9905149" lon="18.2055574"><ele>141.0</ele><time>2026-03-29T10:07:01.887Z</time></trkpt><trkpt lat="39.9905617" lon="18.2056371"><ele>141.0</ele><time>2026-03-29T10:07:05.888Z</time></trkpt><trkpt lat="39.9906643" lon="18.2057949"><ele>141.0</ele><time>2026-03-29T10:07:14.887Z</time></trkpt><trkpt lat="39.9907078" lon="18.2058632"><ele>141.0</ele><time>2026-03-29T10:07:17.887Z</time></trkpt><trkpt lat="39.9907562" lon="18.2059433"><ele>141.0</ele><time>2026-03-29T10:07:21.888Z</time></trkpt><trkpt lat="39.9907956" lon="18.2060076"><ele>141.0</ele><time>2026-03-29T10:07:24.887Z</time></trkpt><trkpt lat="39.9908376" lon="18.2060701"><ele>142.0</ele><time>2026-03-29T10:07:28.887Z</time></trkpt><trkpt lat="39.9909178" lon="18.2062342"><ele>143.0</ele><time>2026-03-29T10:07:35.887Z</time></trkpt><trkpt lat="39.990965" lon="18.2063027"><ele>144.0</ele><time>2026-03-29T10:07:38.887Z</time></trkpt><trkpt lat="39.990996" lon="18.2063751"><ele>145.0</ele><time>2026-03-29T10:07:41.888Z</time></trkpt><trkpt lat="39.9910455" lon="18.2064528"><ele>146.0</ele><time>2026-03-29T10:07:44.888Z</time></trkpt><trkpt lat="39.9910865" lon="18.2065268"><ele>147.0</ele><time>2026-03-29T10:07:47.887Z</time></trkpt><trkpt lat="39.9911046" lon="18.206626"><ele>147.6</ele><time>2026-03-29T10:07:50.887Z</time></trkpt><trkpt lat="39.9911114" lon="18.206822"><ele>148.2</ele><time>2026-03-29T10:07:56.889Z</time></trkpt><trkpt lat="39.9911216" lon="18.2069469"><ele>148.8</ele><time>2026-03-29T10:07:59.888Z</time></trkpt><trkpt lat="39.9911329" lon="18.2070647"><ele>149.4</ele><time>2026-03-29T10:08:02.888Z</time></trkpt><trkpt lat="39.9911446" lon="18.2071539"><ele>150.0</ele><time>2026-03-29T10:08:04.888Z</time></trkpt><trkpt lat="39.9911682" lon="18.2072687"><ele>150.0</ele><time>2026-03-29T10:08:07.888Z</time></trkpt><trkpt lat="39.9911902" lon="18.2073506"><ele>150.0</ele><time>2026-03-29T10:08:09.888Z</time></trkpt><trkpt lat="39.9911905" lon="18.2074497"><ele>150.0</ele><time>2026-03-29T10:08:12.888Z</time></trkpt><trkpt lat="39.991033" lon="18.2074881"><ele>150.0</ele><time>2026-03-29T10:08:18.888Z</time></trkpt><trkpt lat="39.9909632" lon="18.2074894"><ele>150.0</ele><time>2026-03-29T10:08:20.889Z</time></trkpt><trkpt lat="39.9908945" lon="18.2074942"><ele>150.0</ele><time>2026-03-29T10:08:22.888Z</time></trkpt><trkpt lat="39.9908215" lon="18.2075034"><ele>150.0</ele><time>2026-03-29T10:08:24.888Z</time></trkpt><trkpt lat="39.9907392" lon="18.2075146"><ele>150.0</ele><time>2026-03-29T10:08:26.888Z</time></trkpt><trkpt lat="39.9906564" lon="18.2075156"><ele>150.0</ele><time>2026-03-29T10:08:28.889Z</time></trkpt><trkpt lat="39.9905792" lon="18.2075213"><ele>150.0</ele><time>2026-03-29T10:08:30.888Z</time></trkpt><trkpt lat="39.9905078" lon="18.2075267"><ele>150.0</ele><time>2026-03-29T10:08:32.888Z</time></trkpt><trkpt lat="39.9904237" lon="18.2075324"><ele>150.0</ele><time>2026-03-29T10:08:35.888Z</time></trkpt><trkpt lat="39.9902768" lon="18.2075758"><ele>150.0</ele><time>2026-03-29T10:08:39.888Z</time></trkpt><trkpt lat="39.9901796" lon="18.2076"><ele>150.0</ele><time>2026-03-29T10:08:41.888Z</time></trkpt><trkpt lat="39.9900738" lon="18.2076207"><ele>150.0</ele><time>2026-03-29T10:08:43.888Z</time></trkpt><trkpt lat="39.9899623" lon="18.2076468"><ele>150.0</ele><time>2026-03-29T10:08:45.889Z</time></trkpt><trkpt lat="39.9898436" lon="18.2076626"><ele>150.0</ele><time>2026-03-29T10:08:47.888Z</time></trkpt><trkpt lat="39.9897247" lon="18.2076776"><ele>150.0</ele><time>2026-03-29T10:08:49.888Z</time></trkpt><trkpt lat="39.9896241" lon="18.2077327"><ele>150.0</ele><time>2026-03-29T10:08:51.888Z</time></trkpt><trkpt lat="39.9895743" lon="18.2078612"><ele>150.0</ele><time>2026-03-29T10:08:53.889Z</time></trkpt><trkpt lat="39.9895964" lon="18.2080076"><ele>150.0</ele><time>2026-03-29T10:08:55.888Z</time></trkpt><trkpt lat="39.9896106" lon="18.2081431"><ele>150.0</ele><time>2026-03-29T10:08:57.888Z</time></trkpt><trkpt lat="39.9896196" lon="18.2084416"><ele>150.6</ele><time>2026-03-29T10:09:01.889Z</time></trkpt><trkpt lat="39.9896283" lon="18.2086068"><ele>151.2</ele><time>2026-03-29T10:09:03.888Z</time></trkpt><trkpt lat="39.9896338" lon="18.2086946"><ele>151.8</ele><time>2026-03-29T10:09:04.89Z</time></trkpt><trkpt lat="39.989639" lon="18.2087819"><ele>152.4</ele><time>2026-03-29T10:09:05.89Z</time></trkpt><trkpt lat="39.9896473" lon="18.2088671"><ele>153.0</ele><time>2026-03-29T10:09:06.889Z</time></trkpt><trkpt lat="39.9896531" lon="18.2090313"><ele>153.0</ele><time>2026-03-29T10:09:08.889Z</time></trkpt><trkpt lat="39.9896535" lon="18.2091136"><ele>153.0</ele><time>2026-03-29T10:09:09.889Z</time></trkpt><trkpt lat="39.9896522" lon="18.2091965"><ele>153.0</ele><time>2026-03-29T10:09:10.89Z</time></trkpt><trkpt lat="39.9896571" lon="18.2093579"><ele>153.0</ele><time>2026-03-29T10:09:12.889Z</time></trkpt><trkpt lat="39.9896609" lon="18.2094401"><ele>153.0</ele><time>2026-03-29T10:09:13.889Z</time></trkpt><trkpt lat="39.9896702" lon="18.209597"><ele>153.0</ele><time>2026-03-29T10:09:15.89Z</time></trkpt><trkpt lat="39.9896785" lon="18.2097217"><ele>153.0</ele><time>2026-03-29T10:09:17.889Z</time></trkpt><trkpt lat="39.9896846" lon="18.2098072"><ele>153.0</ele><time>2026-03-29T10:09:19.889Z</time></trkpt><trkpt lat="39.9896897" lon="18.2100238"><ele>153.0</ele><time>2026-03-29T10:09:25.889Z</time></trkpt><trkpt lat="39.9897043" lon="18.2101255"><ele>153.0</ele><time>2026-03-29T10:09:28.89Z</time></trkpt><trkpt lat="39.9897019" lon="18.2102282"><ele>153.0</ele><time>2026-03-29T10:09:31.889Z</time></trkpt><trkpt lat="39.989701" lon="18.2103356"><ele>153.0</ele><time>2026-03-29T10:09:34.89Z</time></trkpt><trkpt lat="39.9897078" lon="18.2104432"><ele>153.0</ele><time>2026-03-29T10:09:37.89Z</time></trkpt><trkpt lat="39.9897208" lon="18.2105592"><ele>153.0</ele><time>2026-03-29T10:09:40.89Z</time></trkpt><trkpt lat="39.9897244" lon="18.210749"><ele>153.0</ele><time>2026-03-29T10:09:44.89Z</time></trkpt><trkpt lat="39.989734" lon="18.2108486"><ele>153.0</ele><time>2026-03-29T10:09:46.889Z</time></trkpt><trkpt lat="39.989739" lon="18.2109505"><ele>152.83333333333334</ele><time>2026-03-29T10:09:48.889Z</time></trkpt><trkpt lat="39.9897401" lon="18.2110617"><ele>152.66666666666666</ele><time>2026-03-29T10:09:50.889Z</time></trkpt><trkpt lat="39.989739" lon="18.2111717"><ele>152.5</ele><time>2026-03-29T10:09:52.889Z</time></trkpt><trkpt lat="39.9897498" lon="18.2112822"><ele>152.33333333333331</ele><time>2026-03-29T10:09:54.89Z</time></trkpt><trkpt lat="39.9897563" lon="18.2113914"><ele>152.16666666666666</ele><time>2026-03-29T10:09:56.89Z</time></trkpt><trkpt lat="39.9897495" lon="18.2114964"><ele>152.0</ele><time>2026-03-29T10:09:58.889Z</time></trkpt><trkpt lat="39.9897622" lon="18.2116026"><ele>152.0</ele><time>2026-03-29T10:10:00.89Z</time></trkpt><trkpt lat="39.989753" lon="18.2117036"><ele>152.0</ele><time>2026-03-29T10:10:02.889Z</time></trkpt><trkpt lat="39.9897693" lon="18.2118798"><ele>152.0</ele><time>2026-03-29T10:10:06.889Z</time></trkpt><trkpt lat="39.9897685" lon="18.211997"><ele>152.0</ele><time>2026-03-29T10:10:09.889Z</time></trkpt><trkpt lat="39.9897681" lon="18.2120872"><ele>152.0</ele><time>2026-03-29T10:10:13.889Z</time></trkpt><trkpt lat="39.9897747" lon="18.2121788"><ele>152.0</ele><time>2026-03-29T10:10:17.89Z</time></trkpt><trkpt lat="39.9897831" lon="18.2122604"><ele>152.4</ele><time>2026-03-29T10:10:20.891Z</time></trkpt><trkpt lat="39.9897914" lon="18.2123531"><ele>152.79999999999998</ele><time>2026-03-29T10:10:23.891Z</time></trkpt><trkpt lat="39.9897928" lon="18.2125567"><ele>153.2</ele><time>2026-03-29T10:10:28.891Z</time></trkpt><trkpt lat="39.9897964" lon="18.2126537"><ele>153.6</ele><time>2026-03-29T10:10:30.89Z</time></trkpt><trkpt lat="39.9897991" lon="18.2127601"><ele>154.0</ele><time>2026-03-29T10:10:32.89Z</time></trkpt><trkpt lat="39.9898006" lon="18.2128792"><ele>154.0</ele><time>2026-03-29T10:10:34.891Z</time></trkpt><trkpt lat="39.9898086" lon="18.2130063"><ele>154.0</ele><time>2026-03-29T10:10:36.89Z</time></trkpt><trkpt lat="39.9898147" lon="18.2131394"><ele>154.0</ele><time>2026-03-29T10:10:38.89Z</time></trkpt><trkpt lat="39.9898199" lon="18.2132644"><ele>154.0</ele><time>2026-03-29T10:10:40.891Z</time></trkpt><trkpt lat="39.9898273" lon="18.2133896"><ele>154.0</ele><time>2026-03-29T10:10:42.89Z</time></trkpt><trkpt lat="39.9898301" lon="18.2135278"><ele>154.0</ele><time>2026-03-29T10:10:44.891Z</time></trkpt><trkpt lat="39.9898452" lon="18.2137987"><ele>154.0</ele><time>2026-03-29T10:10:48.891Z</time></trkpt><trkpt lat="39.9898503" lon="18.2139157"><ele>154.0</ele><time>2026-03-29T10:10:50.891Z</time></trkpt><trkpt lat="39.9898528" lon="18.2140285"><ele>154.0</ele><time>2026-03-29T10:10:52.891Z</time></trkpt><trkpt lat="39.9898564" lon="18.2141358"><ele>154.16666666666669</ele><time>2026-03-29T10:10:54.89Z</time></trkpt><trkpt lat="39.9898612" lon="18.2142435"><ele>154.33333333333334</ele><time>2026-03-29T10:10:56.89Z</time></trkpt><trkpt lat="39.9898669" lon="18.214343"><ele>154.5</ele><time>2026-03-29T10:10:58.89Z</time></trkpt><trkpt lat="39.9898661" lon="18.2144288"><ele>154.66666666666666</ele><time>2026-03-29T10:11:00.891Z</time></trkpt><trkpt lat="39.9898869" lon="18.2145117"><ele>154.83333333333331</ele><time>2026-03-29T10:11:02.891Z</time></trkpt><trkpt lat="39.9899528" lon="18.2145419"><ele>155.0</ele><time>2026-03-29T10:11:04.89Z</time></trkpt><trkpt lat="39.9900424" lon="18.2145137"><ele>155.0</ele><time>2026-03-29T10:11:06.891Z</time></trkpt><trkpt lat="39.9902257" lon="18.2144814"><ele>155.0</ele><time>2026-03-29T10:11:10.891Z</time></trkpt><trkpt lat="39.9903191" lon="18.2144681"><ele>155.0</ele><time>2026-03-29T10:11:12.89Z</time></trkpt><trkpt lat="39.9904271" lon="18.2144508"><ele>155.0</ele><time>2026-03-29T10:11:14.891Z</time></trkpt><trkpt lat="39.990534" lon="18.2144335"><ele>155.0</ele><time>2026-03-29T10:11:16.89Z</time></trkpt><trkpt lat="39.9906406" lon="18.2144143"><ele>155.0</ele><time>2026-03-29T10:11:18.89Z</time></trkpt><trkpt lat="39.9907506" lon="18.2143924"><ele>155.0</ele><time>2026-03-29T10:11:20.89Z</time></trkpt><trkpt lat="39.9908608" lon="18.2143701"><ele>155.0</ele><time>2026-03-29T10:11:22.89Z</time></trkpt><trkpt lat="39.9909727" lon="18.2143556"><ele>155.0</ele><time>2026-03-29T10:11:24.891Z</time></trkpt><trkpt lat="39.9910866" lon="18.2143311"><ele>155.0</ele><time>2026-03-29T10:11:26.891Z</time></trkpt><trkpt lat="39.9913151" lon="18.2143032"><ele>155.0</ele><time>2026-03-29T10:11:30.891Z</time></trkpt><trkpt lat="39.9914211" lon="18.2142836"><ele>155.0</ele><time>2026-03-29T10:11:32.891Z</time></trkpt><trkpt lat="39.991524" lon="18.2142659"><ele>155.0</ele><time>2026-03-29T10:11:34.891Z</time></trkpt><trkpt lat="39.991627" lon="18.2142466"><ele>155.0</ele><time>2026-03-29T10:11:36.891Z</time></trkpt><trkpt lat="39.991727" lon="18.214231"><ele>155.0</ele><time>2026-03-29T10:11:38.891Z</time></trkpt><trkpt lat="39.9918318" lon="18.2142101"><ele>155.0</ele><time>2026-03-29T10:11:40.892Z</time></trkpt><trkpt lat="39.9919446" lon="18.2141889"><ele>155.0</ele><time>2026-03-29T10:11:42.891Z</time></trkpt><trkpt lat="39.9920491" lon="18.2141709"><ele>155.0</ele><time>2026-03-29T10:11:44.892Z</time></trkpt><trkpt lat="39.992132" lon="18.2141607"><ele>155.0</ele><time>2026-03-29T10:11:46.892Z</time></trkpt><trkpt lat="39.9922059" lon="18.2141683"><ele>155.0</ele><time>2026-03-29T10:11:48.892Z</time></trkpt><trkpt lat="39.9922575" lon="18.214358"><ele>155.0</ele><time>2026-03-29T10:11:52.891Z</time></trkpt><trkpt lat="39.9922845" lon="18.2144579"><ele>155.0</ele><time>2026-03-29T10:11:54.892Z</time></trkpt><trkpt lat="39.9923165" lon="18.2145604"><ele>155.0</ele><time>2026-03-29T10:11:56.891Z</time></trkpt><trkpt lat="39.9923494" lon="18.2146514"><ele>155.0</ele><time>2026-03-29T10:11:58.891Z</time></trkpt><trkpt lat="39.9923824" lon="18.214752"><ele>155.0</ele><time>2026-03-29T10:12:01.891Z</time></trkpt><trkpt lat="39.9924064" lon="18.2148288"><ele>155.0</ele><time>2026-03-29T10:12:13.891Z</time></trkpt><trkpt lat="39.9925489" lon="18.214792"><ele>155.0</ele><time>2026-03-29T10:12:19.892Z</time></trkpt><trkpt lat="39.9926173" lon="18.2147769"><ele>155.0</ele><time>2026-03-29T10:12:22.892Z</time></trkpt><trkpt lat="39.9926869" lon="18.2147683"><ele>155.0</ele><time>2026-03-29T10:12:35.892Z</time></trkpt><trkpt lat="39.9928306" lon="18.2147192"><ele>155.0</ele><time>2026-03-29T10:12:40.893Z</time></trkpt><trkpt lat="39.9929008" lon="18.2146849"><ele>155.0</ele><time>2026-03-29T10:12:42.893Z</time></trkpt><trkpt lat="39.9929652" lon="18.2146518"><ele>155.0</ele><time>2026-03-29T10:12:44.892Z</time></trkpt><trkpt lat="39.9930509" lon="18.2146066"><ele>155.0</ele><time>2026-03-29T10:12:47.892Z</time></trkpt><trkpt lat="39.9931221" lon="18.2145614"><ele>155.0</ele><time>2026-03-29T10:12:50.892Z</time></trkpt><trkpt lat="39.9931917" lon="18.2145369"><ele>155.0</ele><time>2026-03-29T10:12:52.893Z</time></trkpt><trkpt lat="39.9932497" lon="18.2146216"><ele>155.0</ele><time>2026-03-29T10:12:55.893Z</time></trkpt><trkpt lat="39.9932578" lon="18.2147205"><ele>155.0</ele><time>2026-03-29T10:12:57.893Z</time></trkpt><trkpt lat="39.9933381" lon="18.2149181"><ele>155.0</ele><time>2026-03-29T10:13:01.893Z</time></trkpt><trkpt lat="39.9933773" lon="18.2150283"><ele>155.0</ele><time>2026-03-29T10:13:03.892Z</time></trkpt><trkpt lat="39.99342" lon="18.2151479"><ele>155.0</ele><time>2026-03-29T10:13:05.892Z</time></trkpt><trkpt lat="39.9934647" lon="18.2152643"><ele>155.0</ele><time>2026-03-29T10:13:07.893Z</time></trkpt><trkpt lat="39.9935083" lon="18.2153911"><ele>155.0</ele><time>2026-03-29T10:13:09.893Z</time></trkpt><trkpt lat="39.9935536" lon="18.2155245"><ele>155.0</ele><time>2026-03-29T10:13:11.892Z</time></trkpt><trkpt lat="39.9936038" lon="18.2156537"><ele>155.0</ele><time>2026-03-29T10:13:13.892Z</time></trkpt><trkpt lat="39.9936559" lon="18.2157767"><ele>155.0</ele><time>2026-03-29T10:13:15.893Z</time></trkpt><trkpt lat="39.9937015" lon="18.2159123"><ele>155.0</ele><time>2026-03-29T10:13:17.893Z</time></trkpt><trkpt lat="39.9937396" lon="18.2160294"><ele>155.0</ele><time>2026-03-29T10:13:19.892Z</time></trkpt><trkpt lat="39.9938094" lon="18.2162234"><ele>155.0</ele><time>2026-03-29T10:13:23.893Z</time></trkpt><trkpt lat="39.9938277" lon="18.2163103"><ele>155.0</ele><time>2026-03-29T10:13:26.892Z</time></trkpt><trkpt lat="39.9938473" lon="18.2164081"><ele>155.0</ele><time>2026-03-29T10:13:40.892Z</time></trkpt><trkpt lat="39.9939707" lon="18.216422"><ele>155.0</ele><time>2026-03-29T10:13:44.892Z</time></trkpt><trkpt lat="39.9940489" lon="18.2163452"><ele>155.0</ele><time>2026-03-29T10:13:46.893Z</time></trkpt><trkpt lat="39.9941339" lon="18.2162831"><ele>155.0</ele><time>2026-03-29T10:13:48.893Z</time></trkpt><trkpt lat="39.99422" lon="18.2162235"><ele>155.0</ele><time>2026-03-29T10:13:50.893Z</time></trkpt><trkpt lat="39.9943144" lon="18.2161575"><ele>155.0</ele><time>2026-03-29T10:13:52.893Z</time></trkpt><trkpt lat="39.9944089" lon="18.2161183"><ele>155.4</ele><time>2026-03-29T10:13:54.894Z</time></trkpt><trkpt lat="39.9944901" lon="18.216083"><ele>155.8</ele><time>2026-03-29T10:13:56.893Z</time></trkpt><trkpt lat="39.99457" lon="18.2160573"><ele>156.2</ele><time>2026-03-29T10:13:58.893Z</time></trkpt><trkpt lat="39.9946561" lon="18.2160167"><ele>156.6</ele><time>2026-03-29T10:14:00.893Z</time></trkpt><trkpt lat="39.9947314" lon="18.2159908"><ele>157.0</ele><time>2026-03-29T10:14:02.894Z</time></trkpt><trkpt lat="39.9948579" lon="18.2161262"><ele>157.0</ele><time>2026-03-29T10:14:07.894Z</time></trkpt><trkpt lat="39.9949377" lon="18.2161658"><ele>157.0</ele><time>2026-03-29T10:14:10.894Z</time></trkpt><trkpt lat="39.9949862" lon="18.2162271"><ele>157.0</ele><time>2026-03-29T10:14:12.894Z</time></trkpt><trkpt lat="39.9950616" lon="18.2162793"><ele>157.0</ele><time>2026-03-29T10:14:14.894Z</time></trkpt><trkpt lat="39.995127" lon="18.2163217"><ele>157.0</ele><time>2026-03-29T10:14:16.894Z</time></trkpt><trkpt lat="39.9951878" lon="18.2163702"><ele>157.0</ele><time>2026-03-29T10:14:18.893Z</time></trkpt><trkpt lat="39.9952512" lon="18.2164162"><ele>157.0</ele><time>2026-03-29T10:14:20.893Z</time></trkpt><trkpt lat="39.9953142" lon="18.2164696"><ele>157.0</ele><time>2026-03-29T10:14:22.893Z</time></trkpt><trkpt lat="39.9954319" lon="18.2165812"><ele>157.0</ele><time>2026-03-29T10:14:26.893Z</time></trkpt><trkpt lat="39.9954603" lon="18.2166615"><ele>157.0</ele><time>2026-03-29T10:14:28.893Z</time></trkpt><trkpt lat="39.9954739" lon="18.2167424"><ele>157.0</ele><time>2026-03-29T10:14:30.893Z</time></trkpt><trkpt lat="39.9954833" lon="18.2168516"><ele>157.0</ele><time>2026-03-29T10:14:33.893Z</time></trkpt><trkpt lat="39.9954916" lon="18.2169412"><ele>157.33333333333334</ele><time>2026-03-29T10:14:35.893Z</time></trkpt><trkpt lat="39.9955093" lon="18.2170375"><ele>157.66666666666669</ele><time>2026-03-29T10:14:37.894Z</time></trkpt><trkpt lat="39.9955278" lon="18.2171285"><ele>158.0</ele><time>2026-03-29T10:14:39.894Z</time></trkpt><trkpt lat="39.9955464" lon="18.2172202"><ele>158.33333333333334</ele><time>2026-03-29T10:14:41.894Z</time></trkpt><trkpt lat="39.9955632" lon="18.2173148"><ele>158.66666666666666</ele><time>2026-03-29T10:14:43.893Z</time></trkpt><trkpt lat="39.9955972" lon="18.2175018"><ele>159.0</ele><time>2026-03-29T10:14:47.894Z</time></trkpt><trkpt lat="39.9956226" lon="18.2176182"><ele>159.6</ele><time>2026-03-29T10:14:49.894Z</time></trkpt><trkpt lat="39.9956561" lon="18.2177234"><ele>160.2</ele><time>2026-03-29T10:14:51.895Z</time></trkpt><trkpt lat="39.9957045" lon="18.2178295"><ele>160.79999999999998</ele><time>2026-03-29T10:14:53.893Z</time></trkpt><trkpt lat="39.9957338" lon="18.2179551"><ele>161.4</ele><time>2026-03-29T10:14:55.895Z</time></trkpt><trkpt lat="39.9957695" lon="18.2180808"><ele>162.0</ele><time>2026-03-29T10:14:57.894Z</time></trkpt><trkpt lat="39.9958162" lon="18.2182036"><ele>162.75</ele><time>2026-03-29T10:14:59.894Z</time></trkpt><trkpt lat="39.9958628" lon="18.2183332"><ele>163.5</ele><time>2026-03-29T10:15:01.895Z</time></trkpt><trkpt lat="39.9959115" lon="18.2184675"><ele>164.25</ele><time>2026-03-29T10:15:03.894Z</time></trkpt><trkpt lat="39.9959563" lon="18.2186067"><ele>165.0</ele><time>2026-03-29T10:15:05.894Z</time></trkpt><trkpt lat="39.9960475" lon="18.2188838"><ele>164.75</ele><time>2026-03-29T10:15:09.894Z</time></trkpt><trkpt lat="39.9960889" lon="18.2190218"><ele>164.5</ele><time>2026-03-29T10:15:11.894Z</time></trkpt><trkpt lat="39.9961343" lon="18.2191642"><ele>164.25</ele><time>2026-03-29T10:15:13.895Z</time></trkpt><trkpt lat="39.9961817" lon="18.219308"><ele>164.0</ele><time>2026-03-29T10:15:15.894Z</time></trkpt><trkpt lat="39.9962235" lon="18.2194551"><ele>164.0</ele><time>2026-03-29T10:15:17.894Z</time></trkpt><trkpt lat="39.9962489" lon="18.2195322"><ele>164.0</ele><time>2026-03-29T10:15:18.894Z</time></trkpt><trkpt lat="39.9962965" lon="18.2196789"><ele>164.0</ele><time>2026-03-29T10:15:20.894Z</time></trkpt><trkpt lat="39.9963432" lon="18.2198156"><ele>164.0</ele><time>2026-03-29T10:15:22.894Z</time></trkpt><trkpt lat="39.9963858" lon="18.2199365"><ele>164.0</ele><time>2026-03-29T10:15:24.895Z</time></trkpt><trkpt lat="39.9964196" lon="18.2200689"><ele>164.25</ele><time>2026-03-29T10:15:26.894Z</time></trkpt><trkpt lat="39.9965124" lon="18.2203195"><ele>164.5</ele><time>2026-03-29T10:15:30.894Z</time></trkpt><trkpt lat="39.9965614" lon="18.2204429"><ele>164.75</ele><time>2026-03-29T10:15:32.894Z</time></trkpt><trkpt lat="39.9966141" lon="18.2205728"><ele>165.0</ele><time>2026-03-29T10:15:34.894Z</time></trkpt><trkpt lat="39.99668" lon="18.2207011"><ele>165.0</ele><time>2026-03-29T10:15:36.894Z</time></trkpt><trkpt lat="39.9967487" lon="18.2208221"><ele>165.0</ele><time>2026-03-29T10:15:38.894Z</time></trkpt><trkpt lat="39.9968084" lon="18.2209533"><ele>165.0</ele><time>2026-03-29T10:15:40.895Z</time></trkpt><trkpt lat="39.9968772" lon="18.2210811"><ele>165.0</ele><time>2026-03-29T10:15:42.894Z</time></trkpt><trkpt lat="39.9969466" lon="18.221201"><ele>165.0</ele><time>2026-03-29T10:15:44.894Z</time></trkpt><trkpt lat="39.9970198" lon="18.2213222"><ele>165.0</ele><time>2026-03-29T10:15:46.894Z</time></trkpt><trkpt lat="39.9970903" lon="18.2214405"><ele>165.0</ele><time>2026-03-29T10:15:48.894Z</time></trkpt><trkpt lat="39.9971719" lon="18.2216921"><ele>165.0</ele><time>2026-03-29T10:15:52.895Z</time></trkpt><trkpt lat="39.9972058" lon="18.2218122"><ele>165.0</ele><time>2026-03-29T10:15:54.895Z</time></trkpt><trkpt lat="39.9972436" lon="18.2219455"><ele>165.0</ele><time>2026-03-29T10:15:56.895Z</time></trkpt><trkpt lat="39.9972815" lon="18.2220735"><ele>165.0</ele><time>2026-03-29T10:15:58.895Z</time></trkpt><trkpt lat="39.9973184" lon="18.2222064"><ele>165.0</ele><time>2026-03-29T10:16:00.894Z</time></trkpt><trkpt lat="39.9973598" lon="18.2223435"><ele>165.0</ele><time>2026-03-29T10:16:02.894Z</time></trkpt><trkpt lat="39.9973997" lon="18.2224781"><ele>165.0</ele><time>2026-03-29T10:16:04.894Z</time></trkpt><trkpt lat="39.9974368" lon="18.2226184"><ele>165.0</ele><time>2026-03-29T10:16:06.895Z</time></trkpt><trkpt lat="39.9974766" lon="18.2227586"><ele>165.0</ele><time>2026-03-29T10:16:08.895Z</time></trkpt><trkpt lat="39.9975179" lon="18.2228936"><ele>165.0</ele><time>2026-03-29T10:16:10.895Z</time></trkpt><trkpt lat="39.9975833" lon="18.2231282"><ele>165.6</ele><time>2026-03-29T10:16:14.895Z</time></trkpt><trkpt lat="39.9976213" lon="18.2232151"><ele>166.2</ele><time>2026-03-29T10:16:17.895Z</time></trkpt><trkpt lat="39.9976499" lon="18.2232959"><ele>166.8</ele><time>2026-03-29T10:16:29.895Z</time></trkpt><trkpt lat="39.9976709" lon="18.2233842"><ele>167.4</ele><time>2026-03-29T10:16:32.895Z</time></trkpt><trkpt lat="39.9977248" lon="18.2235799"><ele>168.0</ele><time>2026-03-29T10:16:38.895Z</time></trkpt><trkpt lat="39.997755" lon="18.2236774"><ele>168.0</ele><time>2026-03-29T10:16:41.895Z</time></trkpt><trkpt lat="39.9977068" lon="18.2237504"><ele>168.0</ele><time>2026-03-29T10:16:45.896Z</time></trkpt><trkpt lat="39.9976304" lon="18.2237678"><ele>168.0</ele><time>2026-03-29T10:16:47.896Z</time></trkpt><trkpt lat="39.9975404" lon="18.223834"><ele>168.0</ele><time>2026-03-29T10:16:49.895Z</time></trkpt><trkpt lat="39.9974436" lon="18.2238819"><ele>168.0</ele><time>2026-03-29T10:16:51.895Z</time></trkpt><trkpt lat="39.9973281" lon="18.2239331"><ele>167.5</ele><time>2026-03-29T10:16:53.895Z</time></trkpt><trkpt lat="39.9971606" lon="18.2240044"><ele>167.0</ele><time>2026-03-29T10:16:56.895Z</time></trkpt><trkpt lat="39.9970992" lon="18.2240241"><ele>166.5</ele><time>2026-03-29T10:16:57.895Z</time></trkpt><trkpt lat="39.9970309" lon="18.2240526"><ele>166.0</ele><time>2026-03-29T10:16:58.895Z</time></trkpt><trkpt lat="39.9969679" lon="18.2240848"><ele>165.5</ele><time>2026-03-29T10:16:59.896Z</time></trkpt><trkpt lat="39.9969081" lon="18.2241193"><ele>165.0</ele><time>2026-03-29T10:17:00.897Z</time></trkpt><trkpt lat="39.9968474" lon="18.2241498"><ele>165.00000000000003</ele><time>2026-03-29T10:17:01.895Z</time></trkpt><trkpt lat="39.9967862" lon="18.2241805"><ele>165.0</ele><time>2026-03-29T10:17:02.895Z</time></trkpt><trkpt lat="39.9967238" lon="18.2242092"><ele>165.0</ele><time>2026-03-29T10:17:03.895Z</time></trkpt><trkpt lat="39.99666" lon="18.2242353"><ele>165.0</ele><time>2026-03-29T10:17:04.896Z</time></trkpt><trkpt lat="39.9965976" lon="18.2242585"><ele>165.0</ele><time>2026-03-29T10:17:05.897Z</time></trkpt><trkpt lat="39.9965344" lon="18.2242837"><ele>165.00000000000003</ele><time>2026-03-29T10:17:06.895Z</time></trkpt><trkpt lat="39.9964716" lon="18.2243083"><ele>165.0</ele><time>2026-03-29T10:17:07.895Z</time></trkpt><trkpt lat="39.9964125" lon="18.2243386"><ele>165.16666666666666</ele><time>2026-03-29T10:17:08.895Z</time></trkpt><trkpt lat="39.9963533" lon="18.2243793"><ele>165.33333333333334</ele><time>2026-03-29T10:17:09.895Z</time></trkpt><trkpt lat="39.9963003" lon="18.2244293"><ele>165.5</ele><time>2026-03-29T10:17:10.896Z</time></trkpt><trkpt lat="39.9962536" lon="18.2244884"><ele>165.66666666666669</ele><time>2026-03-29T10:17:11.895Z</time></trkpt><trkpt lat="39.9962085" lon="18.224551"><ele>165.83333333333334</ele><time>2026-03-29T10:17:12.895Z</time></trkpt><trkpt lat="39.9961209" lon="18.2246717"><ele>166.0</ele><time>2026-03-29T10:17:14.897Z</time></trkpt><trkpt lat="39.9959917" lon="18.2249344"><ele>166.20000000000002</ele><time>2026-03-29T10:17:18.896Z</time></trkpt><trkpt lat="39.9959459" lon="18.2250744"><ele>166.4</ele><time>2026-03-29T10:17:20.896Z</time></trkpt><trkpt lat="39.995911" lon="18.2252147"><ele>166.6</ele><time>2026-03-29T10:17:22.896Z</time></trkpt><trkpt lat="39.9958682" lon="18.2253368"><ele>166.8</ele><time>2026-03-29T10:17:24.897Z</time></trkpt><trkpt lat="39.9958209" lon="18.2254427"><ele>167.0</ele><time>2026-03-29T10:17:26.896Z</time></trkpt><trkpt lat="39.9957747" lon="18.2255373"><ele>167.2</ele><time>2026-03-29T10:17:28.896Z</time></trkpt><trkpt lat="39.9957352" lon="18.2256321"><ele>167.39999999999998</ele><time>2026-03-29T10:17:30.896Z</time></trkpt><trkpt lat="39.9957771" lon="18.2257136"><ele>167.60000000000002</ele><time>2026-03-29T10:17:46.896Z</time></trkpt><trkpt lat="39.9959345" lon="18.2257188"><ele>167.8</ele><time>2026-03-29T10:17:52.896Z</time></trkpt><trkpt lat="39.9960126" lon="18.2257062"><ele>168.0</ele><time>2026-03-29T10:17:55.896Z</time></trkpt><trkpt lat="39.9960868" lon="18.2256967"><ele>167.8</ele><time>2026-03-29T10:17:58.896Z</time></trkpt><trkpt lat="39.9961745" lon="18.2256536"><ele>167.60000000000002</ele><time>2026-03-29T10:18:01.896Z</time></trkpt><trkpt lat="39.9962384" lon="18.2256211"><ele>167.39999999999998</ele><time>2026-03-29T10:18:04.896Z</time></trkpt><trkpt lat="39.9963139" lon="18.2255984"><ele>167.2</ele><time>2026-03-29T10:18:07.897Z</time></trkpt><trkpt lat="39.9964965" lon="18.2255686"><ele>167.0</ele><time>2026-03-29T10:18:13.896Z</time></trkpt><trkpt lat="39.9965846" lon="18.225567"><ele>167.0</ele><time>2026-03-29T10:18:16.897Z</time></trkpt><trkpt lat="39.9966357" lon="18.2256399"><ele>167.0</ele><time>2026-03-29T10:18:19.896Z</time></trkpt><trkpt lat="39.996686" lon="18.2257102"><ele>167.0</ele><time>2026-03-29T10:18:22.896Z</time></trkpt><trkpt lat="39.9967498" lon="18.2257535"><ele>167.0</ele><time>2026-03-29T10:18:25.898Z</time></trkpt><trkpt lat="39.9968031" lon="18.2258302"><ele>167.0</ele><time>2026-03-29T10:18:30.897Z</time></trkpt><trkpt lat="39.9969201" lon="18.2259644"><ele>167.2</ele><time>2026-03-29T10:18:47.898Z</time></trkpt><trkpt lat="39.996964" lon="18.2260415"><ele>167.39999999999998</ele><time>2026-03-29T10:18:51.897Z</time></trkpt><trkpt lat="39.997068" lon="18.2261817"><ele>167.60000000000002</ele><time>2026-03-29T10:19:00.897Z</time></trkpt><trkpt lat="39.9971201" lon="18.2262749"><ele>167.8</ele><time>2026-03-29T10:19:03.897Z</time></trkpt><trkpt lat="39.997159" lon="18.2263487"><ele>168.0</ele><time>2026-03-29T10:19:06.898Z</time></trkpt><trkpt lat="39.9972144" lon="18.2264266"><ele>168.0</ele><time>2026-03-29T10:19:09.898Z</time></trkpt><trkpt lat="39.9972571" lon="18.2264982"><ele>169.0</ele><time>2026-03-29T10:19:11.897Z</time></trkpt><trkpt lat="39.9973115" lon="18.2265843"><ele>169.0</ele><time>2026-03-29T10:19:15.898Z</time></trkpt></trkseg><trkseg><trkpt lat="39.9973753" lon="18.2266774"><ele>169.0</ele><time>2026-03-29T10:46:23.002Z</time></trkpt><trkpt lat="39.9973215" lon="18.2266217"><ele>169.0</ele><time>2026-03-29T10:46:44.902Z</time></trkpt><trkpt lat="39.9972763" lon="18.2265304"><ele>169.0</ele><time>2026-03-29T10:46:49.033Z</time></trkpt><trkpt lat="39.9972293" lon="18.2264644"><ele>169.0</ele><time>2026-03-29T10:46:51.958Z</time></trkpt><trkpt lat="39.9971744" lon="18.2263683"><ele>169.0</ele><time>2026-03-29T10:46:53.924Z</time></trkpt><trkpt lat="39.9971232" lon="18.2263014"><ele>169.0</ele><time>2026-03-29T10:46:56.923Z</time></trkpt><trkpt lat="39.9970761" lon="18.226218"><ele>168.85714285714286</ele><time>2026-03-29T10:46:59.923Z</time></trkpt><trkpt lat="39.9970309" lon="18.2261582"><ele>168.71428571428572</ele><time>2026-03-29T10:47:02.924Z</time></trkpt><trkpt lat="39.9969811" lon="18.2260889"><ele>168.57142857142856</ele><time>2026-03-29T10:47:07.923Z</time></trkpt><trkpt lat="39.9969404" lon="18.2260145"><ele>168.42857142857144</ele><time>2026-03-29T10:47:10.923Z</time></trkpt><trkpt lat="39.9968943" lon="18.2259469"><ele>168.28571428571428</ele><time>2026-03-29T10:47:14.923Z</time></trkpt><trkpt lat="39.9968258" lon="18.2258727"><ele>168.14285714285714</ele><time>2026-03-29T10:47:37.924Z</time></trkpt><trkpt lat="39.9967989" lon="18.2257692"><ele>168.0</ele><time>2026-03-29T10:47:41.923Z</time></trkpt><trkpt lat="39.9967326" lon="18.2257379"><ele>167.85714285714286</ele><time>2026-03-29T10:47:45.923Z</time></trkpt><trkpt lat="39.9966676" lon="18.2256781"><ele>167.71428571428572</ele><time>2026-03-29T10:47:49.924Z</time></trkpt><trkpt lat="39.9966093" lon="18.2256046"><ele>167.57142857142856</ele><time>2026-03-29T10:47:53.924Z</time></trkpt><trkpt lat="39.996554" lon="18.2255544"><ele>167.42857142857144</ele><time>2026-03-29T10:47:57.924Z</time></trkpt><trkpt lat="39.9964857" lon="18.2255741"><ele>167.28571428571428</ele><time>2026-03-29T10:48:02.924Z</time></trkpt><trkpt lat="39.9964183" lon="18.2255789"><ele>167.14285714285714</ele><time>2026-03-29T10:48:05.924Z</time></trkpt><trkpt lat="39.9963465" lon="18.2255872"><ele>167.0</ele><time>2026-03-29T10:48:08.924Z</time></trkpt><trkpt lat="39.9962802" lon="18.2256167"><ele>167.33333333333331</ele><time>2026-03-29T10:48:11.925Z</time></trkpt><trkpt lat="39.9961943" lon="18.2256628"><ele>167.66666666666666</ele><time>2026-03-29T10:48:14.924Z</time></trkpt><trkpt lat="39.9961224" lon="18.2256937"><ele>168.0</ele><time>2026-03-29T10:48:16.924Z</time></trkpt><trkpt lat="39.9960574" lon="18.2257227"><ele>168.33333333333334</ele><time>2026-03-29T10:48:19.924Z</time></trkpt><trkpt lat="39.9959929" lon="18.2257133"><ele>168.66666666666669</ele><time>2026-03-29T10:48:22.925Z</time></trkpt><trkpt lat="39.9959049" lon="18.2257361"><ele>169.0</ele><time>2026-03-29T10:48:25.924Z</time></trkpt><trkpt lat="39.9958254" lon="18.2257386"><ele>169.0</ele><time>2026-03-29T10:48:28.925Z</time></trkpt><trkpt lat="39.9957566" lon="18.2257297"><ele>169.0</ele><time>2026-03-29T10:48:31.924Z</time></trkpt><trkpt lat="39.9957457" lon="18.2256443"><ele>169.0</ele><time>2026-03-29T10:48:35.925Z</time></trkpt><trkpt lat="39.9957991" lon="18.2255516"><ele>169.0</ele><time>2026-03-29T10:48:38.924Z</time></trkpt><trkpt lat="39.9958341" lon="18.225466"><ele>169.0</ele><time>2026-03-29T10:48:40.924Z</time></trkpt><trkpt lat="39.9958777" lon="18.2253721"><ele>169.0</ele><time>2026-03-29T10:48:42.924Z</time></trkpt><trkpt lat="39.9959171" lon="18.2252617"><ele>168.6</ele><time>2026-03-29T10:48:44.924Z</time></trkpt><trkpt lat="39.9959524" lon="18.2251424"><ele>168.2</ele><time>2026-03-29T10:48:46.924Z</time></trkpt><trkpt lat="39.9959863" lon="18.2250127"><ele>167.79999999999998</ele><time>2026-03-29T10:48:48.924Z</time></trkpt><trkpt lat="39.9960301" lon="18.2248766"><ele>167.39999999999998</ele><time>2026-03-29T10:48:50.924Z</time></trkpt><trkpt lat="39.9960836" lon="18.2247491"><ele>167.0</ele><time>2026-03-29T10:48:52.926Z</time></trkpt><trkpt lat="39.9961527" lon="18.2246284"><ele>166.75</ele><time>2026-03-29T10:48:54.925Z</time></trkpt><trkpt lat="39.9962389" lon="18.2245221"><ele>166.5</ele><time>2026-03-29T10:48:56.926Z</time></trkpt><trkpt lat="39.9963371" lon="18.2244277"><ele>166.25</ele><time>2026-03-29T10:48:58.925Z</time></trkpt><trkpt lat="39.9964358" lon="18.2243448"><ele>166.0</ele><time>2026-03-29T10:49:00.925Z</time></trkpt><trkpt lat="39.9965372" lon="18.2242968"><ele>166.0</ele><time>2026-03-29T10:49:02.925Z</time></trkpt><trkpt lat="39.9966269" lon="18.224268"><ele>166.0</ele><time>2026-03-29T10:49:04.925Z</time></trkpt><trkpt lat="39.9967127" lon="18.2242386"><ele>166.0</ele><time>2026-03-29T10:49:06.926Z</time></trkpt><trkpt lat="39.9968003" lon="18.2241972"><ele>166.0</ele><time>2026-03-29T10:49:08.925Z</time></trkpt><trkpt lat="39.9968957" lon="18.2241505"><ele>166.0</ele><time>2026-03-29T10:49:10.925Z</time></trkpt><trkpt lat="39.9969936" lon="18.2241091"><ele>166.0</ele><time>2026-03-29T10:49:12.926Z</time></trkpt><trkpt lat="39.997083" lon="18.2240667"><ele>166.0</ele><time>2026-03-29T10:49:14.925Z</time></trkpt><trkpt lat="39.9971667" lon="18.224021"><ele>166.0</ele><time>2026-03-29T10:49:16.926Z</time></trkpt><trkpt lat="39.9972483" lon="18.2239808"><ele>166.0</ele><time>2026-03-29T10:49:18.925Z</time></trkpt><trkpt lat="39.9973265" lon="18.2239487"><ele>166.0</ele><time>2026-03-29T10:49:20.926Z</time></trkpt><trkpt lat="39.9973977" lon="18.2239146"><ele>166.0</ele><time>2026-03-29T10:49:22.925Z</time></trkpt><trkpt lat="39.9974668" lon="18.2238724"><ele>166.33333333333334</ele><time>2026-03-29T10:49:24.925Z</time></trkpt><trkpt lat="39.9975389" lon="18.2238326"><ele>166.66666666666669</ele><time>2026-03-29T10:49:26.926Z</time></trkpt><trkpt lat="39.9976087" lon="18.2238025"><ele>167.0</ele><time>2026-03-29T10:49:28.925Z</time></trkpt><trkpt lat="39.9976717" lon="18.2237769"><ele>167.33333333333334</ele><time>2026-03-29T10:49:30.925Z</time></trkpt><trkpt lat="39.9977456" lon="18.2237441"><ele>167.66666666666666</ele><time>2026-03-29T10:49:33.925Z</time></trkpt><trkpt lat="39.9977371" lon="18.2236411"><ele>168.0</ele><time>2026-03-29T10:49:36.925Z</time></trkpt><trkpt lat="39.9977099" lon="18.2235296"><ele>168.0</ele><time>2026-03-29T10:49:38.925Z</time></trkpt><trkpt lat="39.9976771" lon="18.2234131"><ele>168.0</ele><time>2026-03-29T10:49:40.925Z</time></trkpt><trkpt lat="39.9976383" lon="18.2232968"><ele>168.0</ele><time>2026-03-29T10:49:42.925Z</time></trkpt><trkpt lat="39.9975956" lon="18.2231742"><ele>168.0</ele><time>2026-03-29T10:49:44.926Z</time></trkpt><trkpt lat="39.9975564" lon="18.2230508"><ele>168.0</ele><time>2026-03-29T10:49:46.925Z</time></trkpt><trkpt lat="39.9975269" lon="18.2229341"><ele>167.4</ele><time>2026-03-29T10:49:48.925Z</time></trkpt><trkpt lat="39.9974935" lon="18.2228147"><ele>166.8</ele><time>2026-03-29T10:49:50.925Z</time></trkpt><trkpt lat="39.9974592" lon="18.2227049"><ele>166.2</ele><time>2026-03-29T10:49:52.925Z</time></trkpt><trkpt lat="39.9974188" lon="18.2225847"><ele>165.6</ele><time>2026-03-29T10:49:54.926Z</time></trkpt><trkpt lat="39.9973849" lon="18.2224599"><ele>165.0</ele><time>2026-03-29T10:49:56.925Z</time></trkpt><trkpt lat="39.9973558" lon="18.2223352"><ele>165.0</ele><time>2026-03-29T10:49:58.927Z</time></trkpt><trkpt lat="39.9973228" lon="18.2222105"><ele>165.0</ele><time>2026-03-29T10:50:00.926Z</time></trkpt><trkpt lat="39.9972844" lon="18.2220889"><ele>165.0</ele><time>2026-03-29T10:50:02.926Z</time></trkpt><trkpt lat="39.9972467" lon="18.221972"><ele>165.0</ele><time>2026-03-29T10:50:04.926Z</time></trkpt><trkpt lat="39.9972062" lon="18.2218517"><ele>165.0</ele><time>2026-03-29T10:50:06.926Z</time></trkpt><trkpt lat="39.9971795" lon="18.221729"><ele>165.0</ele><time>2026-03-29T10:50:08.926Z</time></trkpt><trkpt lat="39.9971442" lon="18.2216189"><ele>165.0</ele><time>2026-03-29T10:50:10.926Z</time></trkpt><trkpt lat="39.9971092" lon="18.2215026"><ele>165.0</ele><time>2026-03-29T10:50:12.926Z</time></trkpt><trkpt lat="39.9970756" lon="18.2213932"><ele>165.0</ele><time>2026-03-29T10:50:14.927Z</time></trkpt><trkpt lat="39.9970107" lon="18.221288"><ele>165.0</ele><time>2026-03-29T10:50:16.927Z</time></trkpt><trkpt lat="39.9969454" lon="18.2211898"><ele>165.0</ele><time>2026-03-29T10:50:18.926Z</time></trkpt><trkpt lat="39.9968915" lon="18.2210878"><ele>165.0</ele><time>2026-03-29T10:50:20.926Z</time></trkpt><trkpt lat="39.9968309" lon="18.2209848"><ele>165.0</ele><time>2026-03-29T10:50:22.926Z</time></trkpt><trkpt lat="39.9967685" lon="18.2208842"><ele>165.0</ele><time>2026-03-29T10:50:24.926Z</time></trkpt><trkpt lat="39.9967176" lon="18.2207877"><ele>165.0</ele><time>2026-03-29T10:50:26.926Z</time></trkpt><trkpt lat="39.9966702" lon="18.2206832"><ele>165.0</ele><time>2026-03-29T10:50:28.926Z</time></trkpt><trkpt lat="39.996612" lon="18.2205892"><ele>165.0</ele><time>2026-03-29T10:50:30.926Z</time></trkpt><trkpt lat="39.9965548" lon="18.2204832"><ele>165.0</ele><time>2026-03-29T10:50:32.926Z</time></trkpt><trkpt lat="39.9965162" lon="18.2203713"><ele>165.0</ele><time>2026-03-29T10:50:34.926Z</time></trkpt><trkpt lat="39.9964735" lon="18.2202609"><ele>165.0</ele><time>2026-03-29T10:50:36.926Z</time></trkpt><trkpt lat="39.9964326" lon="18.2201485"><ele>165.0</ele><time>2026-03-29T10:50:38.926Z</time></trkpt><trkpt lat="39.996393" lon="18.2200279"><ele>165.0</ele><time>2026-03-29T10:50:40.926Z</time></trkpt><trkpt lat="39.9963543" lon="18.2199089"><ele>165.0</ele><time>2026-03-29T10:50:42.926Z</time></trkpt><trkpt lat="39.9963175" lon="18.2197996"><ele>165.0</ele><time>2026-03-29T10:50:44.926Z</time></trkpt><trkpt lat="39.9962787" lon="18.219687"><ele>165.0</ele><time>2026-03-29T10:50:46.927Z</time></trkpt><trkpt lat="39.996234" lon="18.2195594"><ele>165.0</ele><time>2026-03-29T10:50:48.926Z</time></trkpt><trkpt lat="39.9961895" lon="18.219433"><ele>165.0</ele><time>2026-03-29T10:50:50.927Z</time></trkpt><trkpt lat="39.9961569" lon="18.2193214"><ele>165.0</ele><time>2026-03-29T10:50:52.926Z</time></trkpt><trkpt lat="39.9961263" lon="18.2192172"><ele>165.0</ele><time>2026-03-29T10:50:54.926Z</time></trkpt><trkpt lat="39.9960906" lon="18.2191019"><ele>165.0</ele><time>2026-03-29T10:50:56.927Z</time></trkpt><trkpt lat="39.9960605" lon="18.2189816"><ele>165.0</ele><time>2026-03-29T10:50:58.926Z</time></trkpt><trkpt lat="39.9960268" lon="18.218875"><ele>165.0</ele><time>2026-03-29T10:51:00.926Z</time></trkpt><trkpt lat="39.9959954" lon="18.2187726"><ele>165.0</ele><time>2026-03-29T10:51:02.928Z</time></trkpt><trkpt lat="39.995964" lon="18.2186564"><ele>165.0</ele><time>2026-03-29T10:51:04.927Z</time></trkpt><trkpt lat="39.9959396" lon="18.2185446"><ele>165.0</ele><time>2026-03-29T10:51:06.927Z</time></trkpt><trkpt lat="39.9959013" lon="18.2184312"><ele>165.0</ele><time>2026-03-29T10:51:08.928Z</time></trkpt><trkpt lat="39.995859" lon="18.2183206"><ele>165.0</ele><time>2026-03-29T10:51:10.927Z</time></trkpt><trkpt lat="39.9958185" lon="18.2182118"><ele>165.0</ele><time>2026-03-29T10:51:12.928Z</time></trkpt><trkpt lat="39.9957795" lon="18.2181054"><ele>165.0</ele><time>2026-03-29T10:51:14.927Z</time></trkpt><trkpt lat="39.9957395" lon="18.2179906"><ele>165.0</ele><time>2026-03-29T10:51:16.927Z</time></trkpt><trkpt lat="39.9957087" lon="18.2178782"><ele>164.5</ele><time>2026-03-29T10:51:18.927Z</time></trkpt><trkpt lat="39.9956798" lon="18.2177629"><ele>164.0</ele><time>2026-03-29T10:51:20.927Z</time></trkpt><trkpt lat="39.9956473" lon="18.2176538"><ele>163.5</ele><time>2026-03-29T10:51:22.928Z</time></trkpt><trkpt lat="39.9956201" lon="18.2175424"><ele>163.0</ele><time>2026-03-29T10:51:24.927Z</time></trkpt><trkpt lat="39.9955986" lon="18.2174314"><ele>162.5</ele><time>2026-03-29T10:51:26.927Z</time></trkpt><trkpt lat="39.9955698" lon="18.2173243"><ele>162.0</ele><time>2026-03-29T10:51:28.927Z</time></trkpt><trkpt lat="39.9955493" lon="18.217224"><ele>161.4</ele><time>2026-03-29T10:51:30.927Z</time></trkpt><trkpt lat="39.9955323" lon="18.2171117"><ele>160.79999999999998</ele><time>2026-03-29T10:51:32.927Z</time></trkpt><trkpt lat="39.9955082" lon="18.2169887"><ele>160.2</ele><time>2026-03-29T10:51:34.927Z</time></trkpt><trkpt lat="39.9954905" lon="18.2168682"><ele>159.6</ele><time>2026-03-29T10:51:36.927Z</time></trkpt><trkpt lat="39.9954752" lon="18.2167513"><ele>159.0</ele><time>2026-03-29T10:51:38.927Z</time></trkpt><trkpt lat="39.9954466" lon="18.216634"><ele>159.0</ele><time>2026-03-29T10:51:40.927Z</time></trkpt><trkpt lat="39.9953889" lon="18.2165399"><ele>159.0</ele><time>2026-03-29T10:51:42.927Z</time></trkpt><trkpt lat="39.995311" lon="18.2164803"><ele>159.0</ele><time>2026-03-29T10:51:44.929Z</time></trkpt><trkpt lat="39.9952301" lon="18.2164285"><ele>159.0</ele><time>2026-03-29T10:51:46.928Z</time></trkpt><trkpt lat="39.9951653" lon="18.2163583"><ele>159.0</ele><time>2026-03-29T10:51:49.927Z</time></trkpt><trkpt lat="39.9950987" lon="18.2163042"><ele>159.0</ele><time>2026-03-29T10:51:52.928Z</time></trkpt><trkpt lat="39.9950415" lon="18.216259"><ele>158.66666666666666</ele><time>2026-03-29T10:51:54.927Z</time></trkpt><trkpt lat="39.9949849" lon="18.216223"><ele>158.33333333333334</ele><time>2026-03-29T10:51:58.928Z</time></trkpt><trkpt lat="39.9949237" lon="18.2161756"><ele>158.0</ele><time>2026-03-29T10:52:01.927Z</time></trkpt><trkpt lat="39.9948529" lon="18.2161196"><ele>157.66666666666669</ele><time>2026-03-29T10:52:05.927Z</time></trkpt><trkpt lat="39.99479" lon="18.2160694"><ele>157.33333333333334</ele><time>2026-03-29T10:52:08.928Z</time></trkpt><trkpt lat="39.9947335" lon="18.2160013"><ele>157.0</ele><time>2026-03-29T10:52:11.928Z</time></trkpt><trkpt lat="39.9946484" lon="18.2159966"><ele>156.99999999999997</ele><time>2026-03-29T10:52:14.928Z</time></trkpt><trkpt lat="39.99459" lon="18.2160299"><ele>157.0</ele><time>2026-03-29T10:52:16.928Z</time></trkpt><trkpt lat="39.9945274" lon="18.2160603"><ele>157.0</ele><time>2026-03-29T10:52:18.928Z</time></trkpt><trkpt lat="39.9944604" lon="18.2160838"><ele>157.0</ele><time>2026-03-29T10:52:20.928Z</time></trkpt><trkpt lat="39.9943924" lon="18.2161187"><ele>157.0</ele><time>2026-03-29T10:52:22.929Z</time></trkpt><trkpt lat="39.9943212" lon="18.2161486"><ele>156.99999999999997</ele><time>2026-03-29T10:52:24.929Z</time></trkpt><trkpt lat="39.9942494" lon="18.2161812"><ele>157.0</ele><time>2026-03-29T10:52:26.928Z</time></trkpt><trkpt lat="39.994184" lon="18.2162268"><ele>156.7142857142857</ele><time>2026-03-29T10:52:28.929Z</time></trkpt><trkpt lat="39.9941266" lon="18.2162797"><ele>156.42857142857142</ele><time>2026-03-29T10:52:30.929Z</time></trkpt><trkpt lat="39.9940649" lon="18.2163313"><ele>156.14285714285714</ele><time>2026-03-29T10:52:32.928Z</time></trkpt><trkpt lat="39.994006" lon="18.216386"><ele>155.85714285714283</ele><time>2026-03-29T10:52:34.928Z</time></trkpt><trkpt lat="39.9939517" lon="18.2164374"><ele>155.57142857142856</ele><time>2026-03-29T10:52:36.928Z</time></trkpt><trkpt lat="39.9938901" lon="18.2164569"><ele>155.28571428571428</ele><time>2026-03-29T10:52:38.928Z</time></trkpt><trkpt lat="39.993851" lon="18.2163807"><ele>155.0</ele><time>2026-03-29T10:52:42.929Z</time></trkpt><trkpt lat="39.9938207" lon="18.2162909"><ele>155.0</ele><time>2026-03-29T10:52:46.928Z</time></trkpt><trkpt lat="39.9937903" lon="18.2161797"><ele>155.0</ele><time>2026-03-29T10:52:49.928Z</time></trkpt><trkpt lat="39.9937427" lon="18.2160507"><ele>155.0</ele><time>2026-03-29T10:52:51.929Z</time></trkpt><trkpt lat="39.9937027" lon="18.2159269"><ele>155.0</ele><time>2026-03-29T10:52:53.928Z</time></trkpt><trkpt lat="39.9936579" lon="18.2158037"><ele>155.0</ele><time>2026-03-29T10:52:55.928Z</time></trkpt><trkpt lat="39.993614" lon="18.2156787"><ele>155.0</ele><time>2026-03-29T10:52:57.928Z</time></trkpt><trkpt lat="39.9935673" lon="18.2155603"><ele>155.0</ele><time>2026-03-29T10:52:59.929Z</time></trkpt><trkpt lat="39.9935212" lon="18.2154377"><ele>155.0</ele><time>2026-03-29T10:53:01.928Z</time></trkpt><trkpt lat="39.9934854" lon="18.2153157"><ele>155.0</ele><time>2026-03-29T10:53:03.929Z</time></trkpt><trkpt lat="39.9934467" lon="18.2151989"><ele>155.0</ele><time>2026-03-29T10:53:05.928Z</time></trkpt><trkpt lat="39.9934092" lon="18.2150861"><ele>155.0</ele><time>2026-03-29T10:53:07.928Z</time></trkpt><trkpt lat="39.9933679" lon="18.2149786"><ele>155.0</ele><time>2026-03-29T10:53:09.928Z</time></trkpt><trkpt lat="39.9933279" lon="18.2148672"><ele>155.0</ele><time>2026-03-29T10:53:11.929Z</time></trkpt><trkpt lat="39.9932853" lon="18.2147615"><ele>155.0</ele><time>2026-03-29T10:53:13.929Z</time></trkpt><trkpt lat="39.9932505" lon="18.2146488"><ele>155.0</ele><time>2026-03-29T10:53:15.929Z</time></trkpt><trkpt lat="39.9932329" lon="18.2145347"><ele>155.0</ele><time>2026-03-29T10:53:17.929Z</time></trkpt><trkpt lat="39.9933056" lon="18.2144443"><ele>155.0</ele><time>2026-03-29T10:53:19.929Z</time></trkpt><trkpt lat="39.9934177" lon="18.2144178"><ele>155.0</ele><time>2026-03-29T10:53:21.929Z</time></trkpt><trkpt lat="39.9935098" lon="18.2143732"><ele>155.0</ele><time>2026-03-29T10:53:23.929Z</time></trkpt><trkpt lat="39.9936002" lon="18.214307"><ele>155.0</ele><time>2026-03-29T10:53:25.929Z</time></trkpt><trkpt lat="39.9936934" lon="18.2142349"><ele>155.0</ele><time>2026-03-29T10:53:27.929Z</time></trkpt><trkpt lat="39.9937634" lon="18.2141414"><ele>155.0</ele><time>2026-03-29T10:53:29.929Z</time></trkpt><trkpt lat="39.9937628" lon="18.2140018"><ele>155.0</ele><time>2026-03-29T10:53:31.929Z</time></trkpt><trkpt lat="39.9937416" lon="18.2138572"><ele>155.0</ele><time>2026-03-29T10:53:33.929Z</time></trkpt><trkpt lat="39.9937402" lon="18.213711"><ele>155.0</ele><time>2026-03-29T10:53:35.929Z</time></trkpt><trkpt lat="39.9937416" lon="18.2135566"><ele>155.25</ele><time>2026-03-29T10:53:37.929Z</time></trkpt><trkpt lat="39.9937416" lon="18.2133986"><ele>155.5</ele><time>2026-03-29T10:53:39.929Z</time></trkpt><trkpt lat="39.9937365" lon="18.2132365"><ele>155.75</ele><time>2026-03-29T10:53:41.929Z</time></trkpt><trkpt lat="39.9937373" lon="18.2130744"><ele>156.0</ele><time>2026-03-29T10:53:43.929Z</time></trkpt><trkpt lat="39.9937352" lon="18.2129122"><ele>155.5</ele><time>2026-03-29T10:53:45.929Z</time></trkpt><trkpt lat="39.9937319" lon="18.2127482"><ele>155.0</ele><time>2026-03-29T10:53:47.929Z</time></trkpt><trkpt lat="39.9937309" lon="18.2125871"><ele>154.5</ele><time>2026-03-29T10:53:49.93Z</time></trkpt><trkpt lat="39.9937407" lon="18.2124266"><ele>154.0</ele><time>2026-03-29T10:53:51.929Z</time></trkpt><trkpt lat="39.9937435" lon="18.212271"><ele>154.0</ele><time>2026-03-29T10:53:53.93Z</time></trkpt><trkpt lat="39.9937502" lon="18.2121126"><ele>154.0</ele><time>2026-03-29T10:53:55.929Z</time></trkpt><trkpt lat="39.9937575" lon="18.2119534"><ele>154.0</ele><time>2026-03-29T10:53:57.93Z</time></trkpt><trkpt lat="39.9937516" lon="18.2118026"><ele>154.0</ele><time>2026-03-29T10:53:59.93Z</time></trkpt><trkpt lat="39.9937497" lon="18.2116682"><ele>154.0</ele><time>2026-03-29T10:54:01.93Z</time></trkpt><trkpt lat="39.993753" lon="18.2115398"><ele>154.0</ele><time>2026-03-29T10:54:03.929Z</time></trkpt><trkpt lat="39.9937507" lon="18.2114136"><ele>154.0</ele><time>2026-03-29T10:54:05.93Z</time></trkpt><trkpt lat="39.993754" lon="18.211291"><ele>154.0</ele><time>2026-03-29T10:54:07.93Z</time></trkpt><trkpt lat="39.9937575" lon="18.2111485"><ele>154.0</ele><time>2026-03-29T10:54:09.929Z</time></trkpt><trkpt lat="39.9937584" lon="18.2109943"><ele>153.5</ele><time>2026-03-29T10:54:11.93Z</time></trkpt><trkpt lat="39.9937697" lon="18.2108414"><ele>153.0</ele><time>2026-03-29T10:54:13.929Z</time></trkpt><trkpt lat="39.9937732" lon="18.2106824"><ele>152.5</ele><time>2026-03-29T10:54:15.93Z</time></trkpt><trkpt lat="39.9937756" lon="18.2105237"><ele>152.0</ele><time>2026-03-29T10:54:17.929Z</time></trkpt><trkpt lat="39.9937803" lon="18.210367"><ele>152.0</ele><time>2026-03-29T10:54:19.931Z</time></trkpt><trkpt lat="39.9937795" lon="18.2102107"><ele>152.0</ele><time>2026-03-29T10:54:21.93Z</time></trkpt><trkpt lat="39.9937774" lon="18.2100557"><ele>152.0</ele><time>2026-03-29T10:54:23.93Z</time></trkpt><trkpt lat="39.9937735" lon="18.2098987"><ele>152.0</ele><time>2026-03-29T10:54:25.93Z</time></trkpt><trkpt lat="39.993771" lon="18.2097431"><ele>152.0</ele><time>2026-03-29T10:54:27.931Z</time></trkpt><trkpt lat="39.9937696" lon="18.2095809"><ele>152.0</ele><time>2026-03-29T10:54:29.931Z</time></trkpt><trkpt lat="39.9937738" lon="18.2094148"><ele>152.0</ele><time>2026-03-29T10:54:31.931Z</time></trkpt><trkpt lat="39.9937723" lon="18.209262"><ele>152.0</ele><time>2026-03-29T10:54:33.93Z</time></trkpt><trkpt lat="39.9937733" lon="18.2091059"><ele>152.5</ele><time>2026-03-29T10:54:35.931Z</time></trkpt><trkpt lat="39.9937617" lon="18.2089526"><ele>153.0</ele><time>2026-03-29T10:54:37.93Z</time></trkpt><trkpt lat="39.9937435" lon="18.2087971"><ele>153.5</ele><time>2026-03-29T10:54:39.93Z</time></trkpt><trkpt lat="39.993726" lon="18.2086433"><ele>154.0</ele><time>2026-03-29T10:54:41.93Z</time></trkpt><trkpt lat="39.9937115" lon="18.2084997"><ele>154.0</ele><time>2026-03-29T10:54:43.931Z</time></trkpt><trkpt lat="39.993691" lon="18.2083522"><ele>154.0</ele><time>2026-03-29T10:54:45.93Z</time></trkpt><trkpt lat="39.9936802" lon="18.208207"><ele>154.0</ele><time>2026-03-29T10:54:47.93Z</time></trkpt><trkpt lat="39.9936595" lon="18.2080622"><ele>154.0</ele><time>2026-03-29T10:54:49.93Z</time></trkpt><trkpt lat="39.9936362" lon="18.2079084"><ele>153.6</ele><time>2026-03-29T10:54:51.931Z</time></trkpt><trkpt lat="39.993622" lon="18.207826"><ele>153.2</ele><time>2026-03-29T10:54:52.93Z</time></trkpt><trkpt lat="39.9936015" lon="18.207673"><ele>152.79999999999998</ele><time>2026-03-29T10:54:54.93Z</time></trkpt><trkpt lat="39.9935829" lon="18.2075138"><ele>152.4</ele><time>2026-03-29T10:54:56.931Z</time></trkpt><trkpt lat="39.9935715" lon="18.2073566"><ele>152.0</ele><time>2026-03-29T10:54:58.93Z</time></trkpt><trkpt lat="39.9935627" lon="18.2072067"><ele>151.79999999999998</ele><time>2026-03-29T10:55:00.931Z</time></trkpt><trkpt lat="39.9935571" lon="18.2070473"><ele>151.6</ele><time>2026-03-29T10:55:02.93Z</time></trkpt><trkpt lat="39.9935592" lon="18.206891"><ele>151.39999999999998</ele><time>2026-03-29T10:55:04.93Z</time></trkpt><trkpt lat="39.9935511" lon="18.2068058"><ele>151.2</ele><time>2026-03-29T10:55:05.931Z</time></trkpt><trkpt lat="39.9935271" lon="18.206644"><ele>151.0</ele><time>2026-03-29T10:55:07.93Z</time></trkpt><trkpt lat="39.9935176" lon="18.2065539"><ele>150.71428571428572</ele><time>2026-03-29T10:55:08.93Z</time></trkpt><trkpt lat="39.9935064" lon="18.2064649"><ele>150.42857142857144</ele><time>2026-03-29T10:55:09.932Z</time></trkpt><trkpt lat="39.9934952" lon="18.206382"><ele>150.14285714285714</ele><time>2026-03-29T10:55:10.93Z</time></trkpt><trkpt lat="39.993485" lon="18.2063005"><ele>149.85714285714286</ele><time>2026-03-29T10:55:11.931Z</time></trkpt><trkpt lat="39.9934771" lon="18.2062144"><ele>149.57142857142856</ele><time>2026-03-29T10:55:12.93Z</time></trkpt><trkpt lat="39.9934718" lon="18.2061283"><ele>149.28571428571428</ele><time>2026-03-29T10:55:13.93Z</time></trkpt><trkpt lat="39.9934672" lon="18.2060426"><ele>149.0</ele><time>2026-03-29T10:55:14.931Z</time></trkpt><trkpt lat="39.9934583" lon="18.205959"><ele>149.0</ele><time>2026-03-29T10:55:15.93Z</time></trkpt><trkpt lat="39.9934459" lon="18.2058732"><ele>149.0</ele><time>2026-03-29T10:55:16.93Z</time></trkpt><trkpt lat="39.9934352" lon="18.20579"><ele>149.0</ele><time>2026-03-29T10:55:17.93Z</time></trkpt><trkpt lat="39.9934257" lon="18.2057"><ele>149.0</ele><time>2026-03-29T10:55:18.93Z</time></trkpt><trkpt lat="39.9934163" lon="18.2056121"><ele>149.0</ele><time>2026-03-29T10:55:19.93Z</time></trkpt><trkpt lat="39.9934072" lon="18.2055253"><ele>149.0</ele><time>2026-03-29T10:55:20.93Z</time></trkpt><trkpt lat="39.9933988" lon="18.2053646"><ele>149.0</ele><time>2026-03-29T10:55:22.931Z</time></trkpt><trkpt lat="39.9933956" lon="18.2052798"><ele>149.0</ele><time>2026-03-29T10:55:23.931Z</time></trkpt><trkpt lat="39.9933757" lon="18.2051186"><ele>149.0</ele><time>2026-03-29T10:55:25.931Z</time></trkpt><trkpt lat="39.9933656" lon="18.2050369"><ele>149.0</ele><time>2026-03-29T10:55:26.931Z</time></trkpt><trkpt lat="39.9933438" lon="18.2048713"><ele>149.0</ele><time>2026-03-29T10:55:28.932Z</time></trkpt><trkpt lat="39.9933331" lon="18.2047899"><ele>149.0</ele><time>2026-03-29T10:55:29.931Z</time></trkpt><trkpt lat="39.9933241" lon="18.2047026"><ele>148.66666666666666</ele><time>2026-03-29T10:55:30.931Z</time></trkpt><trkpt lat="39.9933169" lon="18.204617"><ele>148.33333333333331</ele><time>2026-03-29T10:55:31.931Z</time></trkpt><trkpt lat="39.9933101" lon="18.2045329"><ele>148.0</ele><time>2026-03-29T10:55:32.932Z</time></trkpt><trkpt lat="39.9933009" lon="18.2044498"><ele>147.66666666666666</ele><time>2026-03-29T10:55:33.931Z</time></trkpt><trkpt lat="39.9932838" lon="18.2042963"><ele>147.33333333333334</ele><time>2026-03-29T10:55:35.931Z</time></trkpt><trkpt lat="39.9932656" lon="18.2041412"><ele>147.0</ele><time>2026-03-29T10:55:37.931Z</time></trkpt><trkpt lat="39.9932806" lon="18.2039931"><ele>147.0</ele><time>2026-03-29T10:55:39.932Z</time></trkpt><trkpt lat="39.9933288" lon="18.2039257"><ele>147.0</ele><time>2026-03-29T10:55:40.931Z</time></trkpt><trkpt lat="39.9934188" lon="18.2038614"><ele>147.0</ele><time>2026-03-29T10:55:42.932Z</time></trkpt><trkpt lat="39.9934981" lon="18.2038174"><ele>147.0</ele><time>2026-03-29T10:55:44.932Z</time></trkpt><trkpt lat="39.9935867" lon="18.2038128"><ele>147.0</ele><time>2026-03-29T10:55:46.932Z</time></trkpt><trkpt lat="39.993684" lon="18.2038238"><ele>147.0</ele><time>2026-03-29T10:55:48.931Z</time></trkpt><trkpt lat="39.9937878" lon="18.203834"><ele>147.0</ele><time>2026-03-29T10:55:50.932Z</time></trkpt><trkpt lat="39.9938915" lon="18.2038467"><ele>147.0</ele><time>2026-03-29T10:55:52.932Z</time></trkpt><trkpt lat="39.9940536" lon="18.2038718"><ele>147.0</ele><time>2026-03-29T10:55:55.931Z</time></trkpt><trkpt lat="39.9941765" lon="18.2038887"><ele>147.0</ele><time>2026-03-29T10:55:57.931Z</time></trkpt><trkpt lat="39.9942902" lon="18.2039135"><ele>147.0</ele><time>2026-03-29T10:55:59.931Z</time></trkpt><trkpt lat="39.9943923" lon="18.2039309"><ele>147.0</ele><time>2026-03-29T10:56:01.931Z</time></trkpt><trkpt lat="39.9945006" lon="18.2039319"><ele>147.0</ele><time>2026-03-29T10:56:03.932Z</time></trkpt><trkpt lat="39.9946092" lon="18.203939"><ele>147.0</ele><time>2026-03-29T10:56:05.931Z</time></trkpt><trkpt lat="39.9947176" lon="18.203938"><ele>147.0</ele><time>2026-03-29T10:56:07.932Z</time></trkpt><trkpt lat="39.9948276" lon="18.2039355"><ele>147.0</ele><time>2026-03-29T10:56:09.932Z</time></trkpt><trkpt lat="39.9949395" lon="18.2039359"><ele>147.0</ele><time>2026-03-29T10:56:11.931Z</time></trkpt><trkpt lat="39.9950552" lon="18.2039246"><ele>147.0</ele><time>2026-03-29T10:56:13.932Z</time></trkpt><trkpt lat="39.9951726" lon="18.2039039"><ele>147.0</ele><time>2026-03-29T10:56:15.932Z</time></trkpt><trkpt lat="39.9952866" lon="18.2038642"><ele>147.25</ele><time>2026-03-29T10:56:17.932Z</time></trkpt><trkpt lat="39.995399" lon="18.2038021"><ele>147.5</ele><time>2026-03-29T10:56:19.931Z</time></trkpt><trkpt lat="39.995508" lon="18.2037304"><ele>147.75</ele><time>2026-03-29T10:56:21.932Z</time></trkpt><trkpt lat="39.9956188" lon="18.2036577"><ele>148.0</ele><time>2026-03-29T10:56:23.931Z</time></trkpt><trkpt lat="39.9957265" lon="18.2035767"><ele>148.0</ele><time>2026-03-29T10:56:25.932Z</time></trkpt><trkpt lat="39.9958352" lon="18.2035071"><ele>148.0</ele><time>2026-03-29T10:56:27.932Z</time></trkpt><trkpt lat="39.9959439" lon="18.2034402"><ele>148.0</ele><time>2026-03-29T10:56:29.931Z</time></trkpt><trkpt lat="39.9960596" lon="18.2034036"><ele>148.0</ele><time>2026-03-29T10:56:31.932Z</time></trkpt><trkpt lat="39.9961801" lon="18.2034005"><ele>148.20000000000002</ele><time>2026-03-29T10:56:33.932Z</time></trkpt><trkpt lat="39.9962915" lon="18.2033923"><ele>148.4</ele><time>2026-03-29T10:56:35.932Z</time></trkpt><trkpt lat="39.9964048" lon="18.2033581"><ele>148.60000000000002</ele><time>2026-03-29T10:56:37.932Z</time></trkpt><trkpt lat="39.9965164" lon="18.2033141"><ele>148.8</ele><time>2026-03-29T10:56:39.932Z</time></trkpt><trkpt lat="39.9965787" lon="18.2032939"><ele>149.0</ele><time>2026-03-29T10:56:40.932Z</time></trkpt><trkpt lat="39.9966933" lon="18.2032407"><ele>149.25</ele><time>2026-03-29T10:56:42.932Z</time></trkpt><trkpt lat="39.996799" lon="18.2031729"><ele>149.5</ele><time>2026-03-29T10:56:44.933Z</time></trkpt><trkpt lat="39.9969115" lon="18.2031222"><ele>149.75</ele><time>2026-03-29T10:56:46.932Z</time></trkpt><trkpt lat="39.9970297" lon="18.2030738"><ele>150.0</ele><time>2026-03-29T10:56:48.932Z</time></trkpt><trkpt lat="39.9971354" lon="18.2030245"><ele>149.75</ele><time>2026-03-29T10:56:50.932Z</time></trkpt><trkpt lat="39.9972495" lon="18.2029911"><ele>149.5</ele><time>2026-03-29T10:56:52.933Z</time></trkpt><trkpt lat="39.9973572" lon="18.2029367"><ele>149.25</ele><time>2026-03-29T10:56:54.933Z</time></trkpt><trkpt lat="39.9974654" lon="18.2028834"><ele>149.0</ele><time>2026-03-29T10:56:56.933Z</time></trkpt><trkpt lat="39.9975813" lon="18.2028313"><ele>149.0</ele><time>2026-03-29T10:56:58.932Z</time></trkpt><trkpt lat="39.9976977" lon="18.2027917"><ele>149.0</ele><time>2026-03-29T10:57:00.932Z</time></trkpt><trkpt lat="39.9977603" lon="18.202772"><ele>149.0</ele><time>2026-03-29T10:57:01.932Z</time></trkpt><trkpt lat="39.9978783" lon="18.2027534"><ele>149.0</ele><time>2026-03-29T10:57:03.933Z</time></trkpt><trkpt lat="39.9979943" lon="18.2027693"><ele>149.0</ele><time>2026-03-29T10:57:05.932Z</time></trkpt><trkpt lat="39.9981129" lon="18.2027877"><ele>149.0</ele><time>2026-03-29T10:57:07.932Z</time></trkpt><trkpt lat="39.9982282" lon="18.2027852"><ele>149.0</ele><time>2026-03-29T10:57:09.933Z</time></trkpt><trkpt lat="39.9983448" lon="18.2027492"><ele>149.0</ele><time>2026-03-29T10:57:11.932Z</time></trkpt><trkpt lat="39.9984501" lon="18.2026944"><ele>149.0</ele><time>2026-03-29T10:57:13.932Z</time></trkpt><trkpt lat="39.9985559" lon="18.202644"><ele>149.5</ele><time>2026-03-29T10:57:15.933Z</time></trkpt><trkpt lat="39.9986627" lon="18.2026015"><ele>150.0</ele><time>2026-03-29T10:57:17.932Z</time></trkpt><trkpt lat="39.9987735" lon="18.2025557"><ele>150.5</ele><time>2026-03-29T10:57:19.933Z</time></trkpt><trkpt lat="39.998885" lon="18.2025058"><ele>151.0</ele><time>2026-03-29T10:57:21.932Z</time></trkpt><trkpt lat="39.9989916" lon="18.2024509"><ele>151.0</ele><time>2026-03-29T10:57:23.932Z</time></trkpt><trkpt lat="39.9991009" lon="18.2024069"><ele>151.0</ele><time>2026-03-29T10:57:25.932Z</time></trkpt><trkpt lat="39.999215" lon="18.202366"><ele>151.0</ele><time>2026-03-29T10:57:27.932Z</time></trkpt><trkpt lat="39.999325" lon="18.2023092"><ele>151.0</ele><time>2026-03-29T10:57:29.933Z</time></trkpt><trkpt lat="39.9994328" lon="18.2022426"><ele>151.0</ele><time>2026-03-29T10:57:31.932Z</time></trkpt><trkpt lat="39.9995439" lon="18.202185"><ele>151.0</ele><time>2026-03-29T10:57:33.933Z</time></trkpt><trkpt lat="39.9996542" lon="18.202149"><ele>151.0</ele><time>2026-03-29T10:57:35.932Z</time></trkpt><trkpt lat="39.9997227" lon="18.2020916"><ele>151.0</ele><time>2026-03-29T10:57:38.933Z</time></trkpt><trkpt lat="39.9997896" lon="18.2020743"><ele>151.0</ele><time>2026-03-29T10:57:40.933Z</time></trkpt><trkpt lat="39.9998559" lon="18.2020385"><ele>151.0</ele><time>2026-03-29T10:57:42.934Z</time></trkpt><trkpt lat="39.9999253" lon="18.2019726"><ele>151.0</ele><time>2026-03-29T10:57:44.933Z</time></trkpt><trkpt lat="39.9999993" lon="18.2019253"><ele>151.0</ele><time>2026-03-29T10:57:46.933Z</time></trkpt><trkpt lat="40.0000826" lon="18.2018693"><ele>151.0</ele><time>2026-03-29T10:57:49.934Z</time></trkpt><trkpt lat="40.0001506" lon="18.2018178"><ele>151.0</ele><time>2026-03-29T10:57:51.933Z</time></trkpt><trkpt lat="40.0002172" lon="18.2017584"><ele>151.0</ele><time>2026-03-29T10:57:53.933Z</time></trkpt><trkpt lat="40.0002903" lon="18.201687"><ele>151.0</ele><time>2026-03-29T10:57:55.934Z</time></trkpt><trkpt lat="40.0003459" lon="18.2016096"><ele>151.0</ele><time>2026-03-29T10:57:57.933Z</time></trkpt><trkpt lat="40.0004103" lon="18.2015789"><ele>151.0</ele><time>2026-03-29T10:57:59.934Z</time></trkpt><trkpt lat="40.0004815" lon="18.2015688"><ele>151.0</ele><time>2026-03-29T10:58:01.933Z</time></trkpt><trkpt lat="40.0005475" lon="18.2015051"><ele>151.0</ele><time>2026-03-29T10:58:03.933Z</time></trkpt><trkpt lat="40.0006103" lon="18.2014538"><ele>151.0</ele><time>2026-03-29T10:58:05.933Z</time></trkpt><trkpt lat="40.0006868" lon="18.2013829"><ele>150.8</ele><time>2026-03-29T10:58:08.934Z</time></trkpt><trkpt lat="40.0007503" lon="18.2013127"><ele>150.6</ele><time>2026-03-29T10:58:10.933Z</time></trkpt><trkpt lat="40.0008319" lon="18.2012441"><ele>150.4</ele><time>2026-03-29T10:58:12.934Z</time></trkpt><trkpt lat="40.0009152" lon="18.2011675"><ele>150.2</ele><time>2026-03-29T10:58:14.933Z</time></trkpt><trkpt lat="40.0010032" lon="18.2011105"><ele>150.0</ele><time>2026-03-29T10:58:16.933Z</time></trkpt><trkpt lat="40.0010931" lon="18.2010445"><ele>150.4</ele><time>2026-03-29T10:58:18.933Z</time></trkpt><trkpt lat="40.0011786" lon="18.2009711"><ele>150.8</ele><time>2026-03-29T10:58:20.934Z</time></trkpt><trkpt lat="40.0012698" lon="18.2008919"><ele>151.2</ele><time>2026-03-29T10:58:22.934Z</time></trkpt><trkpt lat="40.0013651" lon="18.2008115"><ele>151.6</ele><time>2026-03-29T10:58:24.933Z</time></trkpt><trkpt lat="40.0014613" lon="18.2007377"><ele>152.0</ele><time>2026-03-29T10:58:26.934Z</time></trkpt><trkpt lat="40.0015599" lon="18.2006661"><ele>152.0</ele><time>2026-03-29T10:58:28.934Z</time></trkpt><trkpt lat="40.0016606" lon="18.2005979"><ele>152.0</ele><time>2026-03-29T10:58:30.934Z</time></trkpt><trkpt lat="40.0017663" lon="18.2005364"><ele>152.0</ele><time>2026-03-29T10:58:32.933Z</time></trkpt><trkpt lat="40.0018699" lon="18.2004716"><ele>152.0</ele><time>2026-03-29T10:58:34.933Z</time></trkpt><trkpt lat="40.0019696" lon="18.2003949"><ele>152.75</ele><time>2026-03-29T10:58:36.933Z</time></trkpt><trkpt lat="40.0020814" lon="18.2003508"><ele>153.5</ele><time>2026-03-29T10:58:38.934Z</time></trkpt><trkpt lat="40.0021915" lon="18.200307"><ele>154.25</ele><time>2026-03-29T10:58:40.933Z</time></trkpt><trkpt lat="40.0023077" lon="18.2002569"><ele>155.0</ele><time>2026-03-29T10:58:42.933Z</time></trkpt><trkpt lat="40.0024093" lon="18.2002117"><ele>155.5</ele><time>2026-03-29T10:58:44.934Z</time></trkpt><trkpt lat="40.0025178" lon="18.2001737"><ele>156.0</ele><time>2026-03-29T10:58:46.934Z</time></trkpt><trkpt lat="40.0026314" lon="18.2001359"><ele>156.5</ele><time>2026-03-29T10:58:48.934Z</time></trkpt><trkpt lat="40.0027371" lon="18.2000776"><ele>157.0</ele><time>2026-03-29T10:58:50.934Z</time></trkpt><trkpt lat="40.0028431" lon="18.200019"><ele>157.0</ele><time>2026-03-29T10:58:52.934Z</time></trkpt><trkpt lat="40.0029388" lon="18.1999727"><ele>157.0</ele><time>2026-03-29T10:58:54.934Z</time></trkpt><trkpt lat="40.003001" lon="18.1999352"><ele>157.0</ele><time>2026-03-29T10:58:56.934Z</time></trkpt><trkpt lat="40.0030794" lon="18.1998762"><ele>157.0</ele><time>2026-03-29T10:59:16.934Z</time></trkpt><trkpt lat="40.0031593" lon="18.1997974"><ele>157.0</ele><time>2026-03-29T10:59:18.934Z</time></trkpt><trkpt lat="40.0032302" lon="18.1997099"><ele>156.5</ele><time>2026-03-29T10:59:20.934Z</time></trkpt><trkpt lat="40.0033072" lon="18.1996143"><ele>156.0</ele><time>2026-03-29T10:59:22.934Z</time></trkpt><trkpt lat="40.0033902" lon="18.1995195"><ele>155.5</ele><time>2026-03-29T10:59:24.935Z</time></trkpt><trkpt lat="40.0034755" lon="18.1994163"><ele>155.0</ele><time>2026-03-29T10:59:26.934Z</time></trkpt><trkpt lat="40.0035672" lon="18.1993078"><ele>154.83333333333331</ele><time>2026-03-29T10:59:28.934Z</time></trkpt><trkpt lat="40.0036165" lon="18.1992546"><ele>154.66666666666666</ele><time>2026-03-29T10:59:29.934Z</time></trkpt><trkpt lat="40.0036668" lon="18.1991994"><ele>154.5</ele><time>2026-03-29T10:59:30.935Z</time></trkpt><trkpt lat="40.00376" lon="18.1990856"><ele>154.33333333333334</ele><time>2026-03-29T10:59:32.934Z</time></trkpt><trkpt lat="40.0038085" lon="18.1990313"><ele>154.16666666666669</ele><time>2026-03-29T10:59:33.934Z</time></trkpt><trkpt lat="40.0038572" lon="18.1989739"><ele>154.0</ele><time>2026-03-29T10:59:34.935Z</time></trkpt><trkpt lat="40.0039067" lon="18.1989152"><ele>154.0</ele><time>2026-03-29T10:59:35.935Z</time></trkpt><trkpt lat="40.0039526" lon="18.1988588"><ele>154.0</ele><time>2026-03-29T10:59:36.935Z</time></trkpt><trkpt lat="40.0040474" lon="18.1987579"><ele>154.0</ele><time>2026-03-29T10:59:38.935Z</time></trkpt><trkpt lat="40.0041377" lon="18.1986406"><ele>154.0</ele><time>2026-03-29T10:59:40.934Z</time></trkpt><trkpt lat="40.0041863" lon="18.198575"><ele>154.0</ele><time>2026-03-29T10:59:41.934Z</time></trkpt><trkpt lat="40.0042354" lon="18.1985223"><ele>154.0</ele><time>2026-03-29T10:59:42.934Z</time></trkpt><trkpt lat="40.0042837" lon="18.1984686"><ele>153.8</ele><time>2026-03-29T10:59:43.935Z</time></trkpt><trkpt lat="40.0043359" lon="18.1984121"><ele>153.60000000000002</ele><time>2026-03-29T10:59:44.935Z</time></trkpt><trkpt lat="40.0043841" lon="18.1983547"><ele>153.4</ele><time>2026-03-29T10:59:45.934Z</time></trkpt><trkpt lat="40.0044786" lon="18.198237"><ele>153.20000000000002</ele><time>2026-03-29T10:59:47.934Z</time></trkpt><trkpt lat="40.0045194" lon="18.1981712"><ele>153.0</ele><time>2026-03-29T10:59:48.934Z</time></trkpt><trkpt lat="40.004603" lon="18.1980473"><ele>153.0</ele><time>2026-03-29T10:59:50.934Z</time></trkpt><trkpt lat="40.0046795" lon="18.1979213"><ele>153.0</ele><time>2026-03-29T10:59:52.935Z</time></trkpt><trkpt lat="40.0047163" lon="18.1978534"><ele>153.0</ele><time>2026-03-29T10:59:53.934Z</time></trkpt><trkpt lat="40.004751" lon="18.1977802"><ele>153.0</ele><time>2026-03-29T10:59:54.934Z</time></trkpt><trkpt lat="40.0047824" lon="18.1977073"><ele>153.0</ele><time>2026-03-29T10:59:55.934Z</time></trkpt><trkpt lat="40.0048442" lon="18.1975625"><ele>153.0</ele><time>2026-03-29T10:59:57.935Z</time></trkpt><trkpt lat="40.0048745" lon="18.1974856"><ele>153.0</ele><time>2026-03-29T10:59:58.936Z</time></trkpt><trkpt lat="40.004927" lon="18.1973358"><ele>153.0</ele><time>2026-03-29T11:00:00.936Z</time></trkpt><trkpt lat="40.0049535" lon="18.1972602"><ele>153.0</ele><time>2026-03-29T11:00:01.935Z</time></trkpt><trkpt lat="40.00498" lon="18.197185"><ele>153.0</ele><time>2026-03-29T11:00:02.935Z</time></trkpt><trkpt lat="40.0050054" lon="18.197108"><ele>153.0</ele><time>2026-03-29T11:00:03.936Z</time></trkpt><trkpt lat="40.0050344" lon="18.197033"><ele>153.0</ele><time>2026-03-29T11:00:04.936Z</time></trkpt><trkpt lat="40.005089" lon="18.1968809"><ele>152.85714285714286</ele><time>2026-03-29T11:00:06.936Z</time></trkpt><trkpt lat="40.0051187" lon="18.1968009"><ele>152.71428571428572</ele><time>2026-03-29T11:00:07.936Z</time></trkpt><trkpt lat="40.0051519" lon="18.1967208"><ele>152.57142857142856</ele><time>2026-03-29T11:00:08.935Z</time></trkpt><trkpt lat="40.005181" lon="18.1966469"><ele>152.42857142857144</ele><time>2026-03-29T11:00:09.936Z</time></trkpt><trkpt lat="40.0052075" lon="18.1965714"><ele>152.2857142857143</ele><time>2026-03-29T11:00:10.935Z</time></trkpt><trkpt lat="40.0052341" lon="18.1964903"><ele>152.14285714285714</ele><time>2026-03-29T11:00:11.935Z</time></trkpt><trkpt lat="40.0052602" lon="18.1964151"><ele>152.0</ele><time>2026-03-29T11:00:12.936Z</time></trkpt><trkpt lat="40.0052866" lon="18.1963395"><ele>152.0</ele><time>2026-03-29T11:00:13.935Z</time></trkpt><trkpt lat="40.0053104" lon="18.1962611"><ele>152.0</ele><time>2026-03-29T11:00:14.935Z</time></trkpt><trkpt lat="40.0053367" lon="18.1961833"><ele>152.0</ele><time>2026-03-29T11:00:15.936Z</time></trkpt><trkpt lat="40.0053675" lon="18.1961065"><ele>152.0</ele><time>2026-03-29T11:00:16.935Z</time></trkpt><trkpt lat="40.0053993" lon="18.1960308"><ele>152.0</ele><time>2026-03-29T11:00:17.935Z</time></trkpt><trkpt lat="40.0054285" lon="18.1959538"><ele>152.0</ele><time>2026-03-29T11:00:18.935Z</time></trkpt><trkpt lat="40.0054555" lon="18.195879"><ele>152.0</ele><time>2026-03-29T11:00:19.935Z</time></trkpt><trkpt lat="40.0054837" lon="18.195804"><ele>152.33333333333331</ele><time>2026-03-29T11:00:20.936Z</time></trkpt><trkpt lat="40.005546" lon="18.1956623"><ele>152.66666666666666</ele><time>2026-03-29T11:00:22.935Z</time></trkpt><trkpt lat="40.0055746" lon="18.1955868"><ele>153.0</ele><time>2026-03-29T11:00:23.935Z</time></trkpt><trkpt lat="40.0055997" lon="18.1955111"><ele>153.33333333333334</ele><time>2026-03-29T11:00:24.936Z</time></trkpt><trkpt lat="40.0056265" lon="18.1954365"><ele>153.66666666666669</ele><time>2026-03-29T11:00:25.936Z</time></trkpt><trkpt lat="40.0056798" lon="18.1952883"><ele>154.0</ele><time>2026-03-29T11:00:27.935Z</time></trkpt><trkpt lat="40.0057067" lon="18.1952128"><ele>154.0</ele><time>2026-03-29T11:00:28.935Z</time></trkpt><trkpt lat="40.0057354" lon="18.1951368"><ele>154.0</ele><time>2026-03-29T11:00:29.935Z</time></trkpt><trkpt lat="40.0057619" lon="18.1950607"><ele>154.0</ele><time>2026-03-29T11:00:30.935Z</time></trkpt><trkpt lat="40.0057894" lon="18.1949861"><ele>154.0</ele><time>2026-03-29T11:00:31.936Z</time></trkpt><trkpt lat="40.0058175" lon="18.1949115"><ele>154.0</ele><time>2026-03-29T11:00:32.935Z</time></trkpt><trkpt lat="40.0058444" lon="18.1948359"><ele>154.0</ele><time>2026-03-29T11:00:33.935Z</time></trkpt><trkpt lat="40.0058704" lon="18.1947591"><ele>154.0</ele><time>2026-03-29T11:00:34.936Z</time></trkpt><trkpt lat="40.0058976" lon="18.1946841"><ele>154.0</ele><time>2026-03-29T11:00:35.935Z</time></trkpt><trkpt lat="40.0059249" lon="18.1946097"><ele>154.0</ele><time>2026-03-29T11:00:36.935Z</time></trkpt><trkpt lat="40.0059546" lon="18.1945369"><ele>154.0</ele><time>2026-03-29T11:00:37.935Z</time></trkpt><trkpt lat="40.0059831" lon="18.1944632"><ele>154.0</ele><time>2026-03-29T11:00:38.936Z</time></trkpt><trkpt lat="40.0060098" lon="18.1943873"><ele>154.0</ele><time>2026-03-29T11:00:39.935Z</time></trkpt><trkpt lat="40.006038" lon="18.1943114"><ele>154.0</ele><time>2026-03-29T11:00:40.935Z</time></trkpt><trkpt lat="40.0060686" lon="18.1942351"><ele>154.0</ele><time>2026-03-29T11:00:41.936Z</time></trkpt><trkpt lat="40.0060976" lon="18.1941592"><ele>154.0</ele><time>2026-03-29T11:00:42.935Z</time></trkpt><trkpt lat="40.0061262" lon="18.1940841"><ele>154.0</ele><time>2026-03-29T11:00:43.936Z</time></trkpt><trkpt lat="40.0061563" lon="18.1940092"><ele>154.0</ele><time>2026-03-29T11:00:44.935Z</time></trkpt><trkpt lat="40.0061843" lon="18.1939335"><ele>154.0</ele><time>2026-03-29T11:00:45.936Z</time></trkpt><trkpt lat="40.0062107" lon="18.1938555"><ele>154.0</ele><time>2026-03-29T11:00:46.936Z</time></trkpt><trkpt lat="40.0062631" lon="18.1937067"><ele>154.0</ele><time>2026-03-29T11:00:48.935Z</time></trkpt><trkpt lat="40.0062941" lon="18.1936324"><ele>154.0</ele><time>2026-03-29T11:00:49.935Z</time></trkpt><trkpt lat="40.0063257" lon="18.1935583"><ele>154.5</ele><time>2026-03-29T11:00:50.935Z</time></trkpt><trkpt lat="40.0063895" lon="18.1934273"><ele>155.0</ele><time>2026-03-29T11:00:52.935Z</time></trkpt><trkpt lat="40.006434" lon="18.1933595"><ele>155.5</ele><time>2026-03-29T11:00:53.936Z</time></trkpt><trkpt lat="40.0064775" lon="18.1932904"><ele>156.0</ele><time>2026-03-29T11:00:54.936Z</time></trkpt><trkpt lat="40.0065192" lon="18.1932221"><ele>156.5</ele><time>2026-03-29T11:00:55.935Z</time></trkpt><trkpt lat="40.0065561" lon="18.1931507"><ele>157.0</ele><time>2026-03-29T11:00:56.935Z</time></trkpt><trkpt lat="40.0066233" lon="18.1930135"><ele>156.0</ele><time>2026-03-29T11:00:58.935Z</time></trkpt><trkpt lat="40.0066629" lon="18.1929445"><ele>155.0</ele><time>2026-03-29T11:00:59.935Z</time></trkpt><trkpt lat="40.0067038" lon="18.1928758"><ele>154.0</ele><time>2026-03-29T11:01:00.935Z</time></trkpt><trkpt lat="40.0067433" lon="18.192805"><ele>153.0</ele><time>2026-03-29T11:01:01.936Z</time></trkpt><trkpt lat="40.00678" lon="18.1927356"><ele>152.0</ele><time>2026-03-29T11:01:02.935Z</time></trkpt><trkpt lat="40.0068517" lon="18.1926078"><ele>151.0</ele><time>2026-03-29T11:01:04.936Z</time></trkpt><trkpt lat="40.0069251" lon="18.1924782"><ele>151.00000000000003</ele><time>2026-03-29T11:01:06.936Z</time></trkpt><trkpt lat="40.0069632" lon="18.1924118"><ele>151.0</ele><time>2026-03-29T11:01:07.936Z</time></trkpt><trkpt lat="40.0069984" lon="18.1923419"><ele>151.0</ele><time>2026-03-29T11:01:08.937Z</time></trkpt><trkpt lat="40.0070348" lon="18.1922741"><ele>151.0</ele><time>2026-03-29T11:01:09.936Z</time></trkpt><trkpt lat="40.0070723" lon="18.1922041"><ele>151.0</ele><time>2026-03-29T11:01:10.937Z</time></trkpt><trkpt lat="40.0071085" lon="18.1921322"><ele>151.00000000000003</ele><time>2026-03-29T11:01:11.937Z</time></trkpt><trkpt lat="40.0071447" lon="18.1920608"><ele>151.0</ele><time>2026-03-29T11:01:12.936Z</time></trkpt><trkpt lat="40.0071814" lon="18.1919861"><ele>151.66666666666669</ele><time>2026-03-29T11:01:13.936Z</time></trkpt><trkpt lat="40.00722" lon="18.1919159"><ele>152.33333333333334</ele><time>2026-03-29T11:01:14.937Z</time></trkpt><trkpt lat="40.0072962" lon="18.1917846"><ele>153.0</ele><time>2026-03-29T11:01:16.936Z</time></trkpt><trkpt lat="40.0073388" lon="18.1917129"><ele>153.66666666666666</ele><time>2026-03-29T11:01:17.936Z</time></trkpt><trkpt lat="40.0073776" lon="18.1916449"><ele>154.33333333333331</ele><time>2026-03-29T11:01:18.936Z</time></trkpt><trkpt lat="40.0074163" lon="18.1915746"><ele>155.0</ele><time>2026-03-29T11:01:19.936Z</time></trkpt><trkpt lat="40.007453" lon="18.1915078"><ele>154.33333333333331</ele><time>2026-03-29T11:01:20.936Z</time></trkpt><trkpt lat="40.0075277" lon="18.1913761"><ele>153.66666666666666</ele><time>2026-03-29T11:01:22.937Z</time></trkpt><trkpt lat="40.0075683" lon="18.1913121"><ele>153.0</ele><time>2026-03-29T11:01:23.937Z</time></trkpt><trkpt lat="40.0076478" lon="18.1911827"><ele>152.33333333333334</ele><time>2026-03-29T11:01:25.936Z</time></trkpt><trkpt lat="40.0076895" lon="18.1911132"><ele>151.66666666666669</ele><time>2026-03-29T11:01:26.936Z</time></trkpt><trkpt lat="40.0077276" lon="18.1910459"><ele>151.0</ele><time>2026-03-29T11:01:27.936Z</time></trkpt><trkpt lat="40.0077685" lon="18.1909733"><ele>151.0</ele><time>2026-03-29T11:01:28.936Z</time></trkpt><trkpt lat="40.007806" lon="18.1908947"><ele>151.0</ele><time>2026-03-29T11:01:29.936Z</time></trkpt><trkpt lat="40.0078729" lon="18.1907594"><ele>151.0</ele><time>2026-03-29T11:01:31.936Z</time></trkpt><trkpt lat="40.0079476" lon="18.1906272"><ele>151.0</ele><time>2026-03-29T11:01:33.937Z</time></trkpt><trkpt lat="40.0079855" lon="18.1905603"><ele>151.0</ele><time>2026-03-29T11:01:34.936Z</time></trkpt><trkpt lat="40.0080195" lon="18.1904891"><ele>151.0</ele><time>2026-03-29T11:01:35.936Z</time></trkpt><trkpt lat="40.0080535" lon="18.1904145"><ele>150.5</ele><time>2026-03-29T11:01:36.936Z</time></trkpt><trkpt lat="40.0080924" lon="18.1903467"><ele>150.0</ele><time>2026-03-29T11:01:37.936Z</time></trkpt><trkpt lat="40.0081359" lon="18.1902832"><ele>149.5</ele><time>2026-03-29T11:01:38.937Z</time></trkpt><trkpt lat="40.0081741" lon="18.1902093"><ele>149.0</ele><time>2026-03-29T11:01:39.936Z</time></trkpt><trkpt lat="40.0082144" lon="18.190142"><ele>148.5</ele><time>2026-03-29T11:01:40.937Z</time></trkpt><trkpt lat="40.008254" lon="18.1900755"><ele>148.0</ele><time>2026-03-29T11:01:41.937Z</time></trkpt><trkpt lat="40.0083296" lon="18.1899457"><ele>148.0</ele><time>2026-03-29T11:01:43.936Z</time></trkpt><trkpt lat="40.0083678" lon="18.18988"><ele>148.0</ele><time>2026-03-29T11:01:44.936Z</time></trkpt><trkpt lat="40.0084079" lon="18.1898144"><ele>148.0</ele><time>2026-03-29T11:01:45.936Z</time></trkpt><trkpt lat="40.0084494" lon="18.1897465"><ele>148.0</ele><time>2026-03-29T11:01:46.936Z</time></trkpt><trkpt lat="40.0084896" lon="18.1896826"><ele>148.0</ele><time>2026-03-29T11:01:47.936Z</time></trkpt><trkpt lat="40.0085297" lon="18.189617"><ele>148.0</ele><time>2026-03-29T11:01:48.936Z</time></trkpt><trkpt lat="40.0085708" lon="18.1895506"><ele>148.0</ele><time>2026-03-29T11:01:49.936Z</time></trkpt><trkpt lat="40.008612" lon="18.1894856"><ele>148.28571428571428</ele><time>2026-03-29T11:01:50.936Z</time></trkpt><trkpt lat="40.0086533" lon="18.1894189"><ele>148.57142857142856</ele><time>2026-03-29T11:01:51.936Z</time></trkpt><trkpt lat="40.0086948" lon="18.1893488"><ele>148.85714285714283</ele><time>2026-03-29T11:01:52.936Z</time></trkpt><trkpt lat="40.008734" lon="18.1892806"><ele>149.14285714285714</ele><time>2026-03-29T11:01:53.936Z</time></trkpt><trkpt lat="40.0087761" lon="18.1892124"><ele>149.42857142857142</ele><time>2026-03-29T11:01:54.936Z</time></trkpt><trkpt lat="40.0088224" lon="18.1891453"><ele>149.7142857142857</ele><time>2026-03-29T11:01:55.936Z</time></trkpt><trkpt lat="40.0088713" lon="18.1890765"><ele>150.0</ele><time>2026-03-29T11:01:56.936Z</time></trkpt><trkpt lat="40.0089138" lon="18.1890129"><ele>150.14285714285714</ele><time>2026-03-29T11:01:57.936Z</time></trkpt><trkpt lat="40.00896" lon="18.1889472"><ele>150.28571428571428</ele><time>2026-03-29T11:01:58.936Z</time></trkpt><trkpt lat="40.0090069" lon="18.188883"><ele>150.42857142857144</ele><time>2026-03-29T11:01:59.936Z</time></trkpt><trkpt lat="40.0090484" lon="18.1888195"><ele>150.57142857142856</ele><time>2026-03-29T11:02:00.937Z</time></trkpt><trkpt lat="40.0090932" lon="18.1887553"><ele>150.71428571428572</ele><time>2026-03-29T11:02:01.936Z</time></trkpt><trkpt lat="40.0091368" lon="18.1886899"><ele>150.85714285714286</ele><time>2026-03-29T11:02:02.936Z</time></trkpt><trkpt lat="40.0091806" lon="18.1886266"><ele>151.0</ele><time>2026-03-29T11:02:03.937Z</time></trkpt><trkpt lat="40.0092248" lon="18.1885646"><ele>150.57142857142858</ele><time>2026-03-29T11:02:04.936Z</time></trkpt><trkpt lat="40.0092699" lon="18.1884993"><ele>150.14285714285714</ele><time>2026-03-29T11:02:05.936Z</time></trkpt><trkpt lat="40.0093121" lon="18.1884282"><ele>149.71428571428572</ele><time>2026-03-29T11:02:06.937Z</time></trkpt><trkpt lat="40.0093544" lon="18.1883569"><ele>149.28571428571428</ele><time>2026-03-29T11:02:07.936Z</time></trkpt><trkpt lat="40.0093947" lon="18.1882858"><ele>148.85714285714286</ele><time>2026-03-29T11:02:08.937Z</time></trkpt><trkpt lat="40.0094336" lon="18.1882135"><ele>148.42857142857144</ele><time>2026-03-29T11:02:09.936Z</time></trkpt><trkpt lat="40.009472" lon="18.1881378"><ele>148.0</ele><time>2026-03-29T11:02:10.936Z</time></trkpt><trkpt lat="40.00951" lon="18.1880602"><ele>148.0</ele><time>2026-03-29T11:02:11.936Z</time></trkpt><trkpt lat="40.0095449" lon="18.187983"><ele>148.0</ele><time>2026-03-29T11:02:12.936Z</time></trkpt><trkpt lat="40.0095789" lon="18.1879046"><ele>148.0</ele><time>2026-03-29T11:02:13.937Z</time></trkpt><trkpt lat="40.0096137" lon="18.187822"><ele>148.0</ele><time>2026-03-29T11:02:14.938Z</time></trkpt><trkpt lat="40.0096501" lon="18.1877448"><ele>148.0</ele><time>2026-03-29T11:02:15.937Z</time></trkpt><trkpt lat="40.0096825" lon="18.187672"><ele>148.0</ele><time>2026-03-29T11:02:16.938Z</time></trkpt><trkpt lat="40.0097143" lon="18.1875978"><ele>148.0</ele><time>2026-03-29T11:02:17.937Z</time></trkpt><trkpt lat="40.0097498" lon="18.1875194"><ele>148.0</ele><time>2026-03-29T11:02:18.937Z</time></trkpt><trkpt lat="40.0097854" lon="18.1874413"><ele>148.0</ele><time>2026-03-29T11:02:19.937Z</time></trkpt><trkpt lat="40.0098223" lon="18.1873675"><ele>148.0</ele><time>2026-03-29T11:02:20.937Z</time></trkpt><trkpt lat="40.0098566" lon="18.1872895"><ele>148.0</ele><time>2026-03-29T11:02:21.937Z</time></trkpt><trkpt lat="40.0098904" lon="18.1872139"><ele>148.0</ele><time>2026-03-29T11:02:22.938Z</time></trkpt><trkpt lat="40.0099227" lon="18.187137"><ele>148.0</ele><time>2026-03-29T11:02:23.938Z</time></trkpt><trkpt lat="40.0099571" lon="18.1870623"><ele>148.0</ele><time>2026-03-29T11:02:24.937Z</time></trkpt><trkpt lat="40.0099884" lon="18.1869826"><ele>147.66666666666669</ele><time>2026-03-29T11:02:25.937Z</time></trkpt><trkpt lat="40.0100226" lon="18.1869056"><ele>147.33333333333334</ele><time>2026-03-29T11:02:26.938Z</time></trkpt><trkpt lat="40.0100552" lon="18.1868289"><ele>147.0</ele><time>2026-03-29T11:02:27.937Z</time></trkpt><trkpt lat="40.0100857" lon="18.1867526"><ele>146.66666666666666</ele><time>2026-03-29T11:02:28.937Z</time></trkpt><trkpt lat="40.0101121" lon="18.1866753"><ele>146.33333333333331</ele><time>2026-03-29T11:02:29.938Z</time></trkpt><trkpt lat="40.0101385" lon="18.1865958"><ele>146.0</ele><time>2026-03-29T11:02:30.937Z</time></trkpt><trkpt lat="40.0101933" lon="18.1864481"><ele>146.0</ele><time>2026-03-29T11:02:32.937Z</time></trkpt><trkpt lat="40.010222" lon="18.1863719"><ele>146.0</ele><time>2026-03-29T11:02:33.938Z</time></trkpt><trkpt lat="40.0102463" lon="18.1862934"><ele>146.0</ele><time>2026-03-29T11:02:34.937Z</time></trkpt><trkpt lat="40.0102707" lon="18.1862155"><ele>146.0</ele><time>2026-03-29T11:02:35.937Z</time></trkpt><trkpt lat="40.0102996" lon="18.1861403"><ele>146.0</ele><time>2026-03-29T11:02:36.937Z</time></trkpt><trkpt lat="40.0103276" lon="18.1860656"><ele>146.0</ele><time>2026-03-29T11:02:37.938Z</time></trkpt><trkpt lat="40.0103541" lon="18.1859905"><ele>146.0</ele><time>2026-03-29T11:02:38.937Z</time></trkpt><trkpt lat="40.0103777" lon="18.1859125"><ele>146.0</ele><time>2026-03-29T11:02:39.938Z</time></trkpt><trkpt lat="40.0104006" lon="18.1858331"><ele>146.0</ele><time>2026-03-29T11:02:40.938Z</time></trkpt><trkpt lat="40.0104257" lon="18.1857529"><ele>146.0</ele><time>2026-03-29T11:02:41.937Z</time></trkpt><trkpt lat="40.0104519" lon="18.1856756"><ele>146.0</ele><time>2026-03-29T11:02:42.937Z</time></trkpt><trkpt lat="40.0104768" lon="18.1855982"><ele>146.0</ele><time>2026-03-29T11:02:43.937Z</time></trkpt><trkpt lat="40.0105018" lon="18.1855222"><ele>146.0</ele><time>2026-03-29T11:02:44.937Z</time></trkpt><trkpt lat="40.0105281" lon="18.1854458"><ele>146.0</ele><time>2026-03-29T11:02:45.937Z</time></trkpt><trkpt lat="40.0105544" lon="18.185369"><ele>146.0</ele><time>2026-03-29T11:02:46.938Z</time></trkpt><trkpt lat="40.0105779" lon="18.1852919"><ele>146.0</ele><time>2026-03-29T11:02:47.937Z</time></trkpt><trkpt lat="40.0105954" lon="18.1852127"><ele>146.0</ele><time>2026-03-29T11:02:48.937Z</time></trkpt><trkpt lat="40.0106359" lon="18.1850599"><ele>146.0</ele><time>2026-03-29T11:02:50.938Z</time></trkpt><trkpt lat="40.0106819" lon="18.1849083"><ele>146.0</ele><time>2026-03-29T11:02:52.937Z</time></trkpt><trkpt lat="40.0107025" lon="18.184829"><ele>146.0</ele><time>2026-03-29T11:02:53.937Z</time></trkpt><trkpt lat="40.0107414" lon="18.1846738"><ele>145.85714285714286</ele><time>2026-03-29T11:02:55.937Z</time></trkpt><trkpt lat="40.0107621" lon="18.1845953"><ele>145.71428571428572</ele><time>2026-03-29T11:02:56.937Z</time></trkpt><trkpt lat="40.0107817" lon="18.1845152"><ele>145.57142857142858</ele><time>2026-03-29T11:02:57.937Z</time></trkpt><trkpt lat="40.0107998" lon="18.1844332"><ele>145.42857142857144</ele><time>2026-03-29T11:02:58.937Z</time></trkpt><trkpt lat="40.0108164" lon="18.184352"><ele>145.2857142857143</ele><time>2026-03-29T11:02:59.937Z</time></trkpt><trkpt lat="40.0108337" lon="18.1842728"><ele>145.14285714285714</ele><time>2026-03-29T11:03:00.937Z</time></trkpt><trkpt lat="40.0108682" lon="18.1841151"><ele>145.0</ele><time>2026-03-29T11:03:02.937Z</time></trkpt><trkpt lat="40.0108859" lon="18.184035"><ele>144.33333333333334</ele><time>2026-03-29T11:03:03.938Z</time></trkpt><trkpt lat="40.0109202" lon="18.1838816"><ele>143.66666666666669</ele><time>2026-03-29T11:03:05.937Z</time></trkpt><trkpt lat="40.0109372" lon="18.1838019"><ele>143.0</ele><time>2026-03-29T11:03:06.937Z</time></trkpt><trkpt lat="40.0109668" lon="18.1836408"><ele>142.33333333333334</ele><time>2026-03-29T11:03:08.937Z</time></trkpt><trkpt lat="40.0109813" lon="18.1835572"><ele>141.66666666666666</ele><time>2026-03-29T11:03:09.937Z</time></trkpt><trkpt lat="40.0109961" lon="18.1834747"><ele>141.0</ele><time>2026-03-29T11:03:10.938Z</time></trkpt><trkpt lat="40.0110207" lon="18.1833218"><ele>141.14285714285714</ele><time>2026-03-29T11:03:12.937Z</time></trkpt><trkpt lat="40.0110484" lon="18.1831662"><ele>141.28571428571428</ele><time>2026-03-29T11:03:14.938Z</time></trkpt><trkpt lat="40.011062" lon="18.1830846"><ele>141.42857142857142</ele><time>2026-03-29T11:03:15.937Z</time></trkpt><trkpt lat="40.011073" lon="18.1830019"><ele>141.57142857142856</ele><time>2026-03-29T11:03:16.937Z</time></trkpt><trkpt lat="40.0110821" lon="18.1829167"><ele>141.7142857142857</ele><time>2026-03-29T11:03:17.938Z</time></trkpt><trkpt lat="40.0110912" lon="18.1828314"><ele>141.85714285714286</ele><time>2026-03-29T11:03:18.937Z</time></trkpt><trkpt lat="40.0111025" lon="18.1827454"><ele>142.0</ele><time>2026-03-29T11:03:19.937Z</time></trkpt><trkpt lat="40.011114" lon="18.1826572"><ele>142.0</ele><time>2026-03-29T11:03:20.938Z</time></trkpt><trkpt lat="40.0111226" lon="18.1825744"><ele>142.0</ele><time>2026-03-29T11:03:21.937Z</time></trkpt><trkpt lat="40.0111371" lon="18.1824097"><ele>142.0</ele><time>2026-03-29T11:03:23.937Z</time></trkpt><trkpt lat="40.0111466" lon="18.1823236"><ele>142.0</ele><time>2026-03-29T11:03:24.937Z</time></trkpt><trkpt lat="40.0111549" lon="18.1822412"><ele>142.0</ele><time>2026-03-29T11:03:25.937Z</time></trkpt><trkpt lat="40.0111623" lon="18.1821585"><ele>142.0</ele><time>2026-03-29T11:03:26.938Z</time></trkpt><trkpt lat="40.0111704" lon="18.1820756"><ele>142.0</ele><time>2026-03-29T11:03:27.938Z</time></trkpt><trkpt lat="40.011179" lon="18.1819906"><ele>142.2</ele><time>2026-03-29T11:03:28.938Z</time></trkpt><trkpt lat="40.0111849" lon="18.1819058"><ele>142.39999999999998</ele><time>2026-03-29T11:03:29.938Z</time></trkpt><trkpt lat="40.0111897" lon="18.181823"><ele>142.60000000000002</ele><time>2026-03-29T11:03:30.938Z</time></trkpt><trkpt lat="40.0111972" lon="18.1816579"><ele>142.8</ele><time>2026-03-29T11:03:32.939Z</time></trkpt><trkpt lat="40.0112023" lon="18.1814959"><ele>143.0</ele><time>2026-03-29T11:03:34.939Z</time></trkpt><trkpt lat="40.0112118" lon="18.1813318"><ele>142.99999999999997</ele><time>2026-03-29T11:03:36.939Z</time></trkpt><trkpt lat="40.0112161" lon="18.1812493"><ele>143.0</ele><time>2026-03-29T11:03:37.939Z</time></trkpt><trkpt lat="40.0112188" lon="18.1811574"><ele>143.0</ele><time>2026-03-29T11:03:38.938Z</time></trkpt><trkpt lat="40.011218" lon="18.1810739"><ele>143.0</ele><time>2026-03-29T11:03:39.938Z</time></trkpt><trkpt lat="40.0112144" lon="18.1809859"><ele>143.0</ele><time>2026-03-29T11:03:40.938Z</time></trkpt><trkpt lat="40.0112141" lon="18.1809009"><ele>142.99999999999997</ele><time>2026-03-29T11:03:41.938Z</time></trkpt><trkpt lat="40.011212" lon="18.1808184"><ele>143.0</ele><time>2026-03-29T11:03:42.938Z</time></trkpt><trkpt lat="40.0112119" lon="18.1806541"><ele>142.83333333333331</ele><time>2026-03-29T11:03:44.939Z</time></trkpt><trkpt lat="40.0112192" lon="18.1804879"><ele>142.66666666666666</ele><time>2026-03-29T11:03:46.938Z</time></trkpt><trkpt lat="40.0112207" lon="18.1803287"><ele>142.5</ele><time>2026-03-29T11:03:48.938Z</time></trkpt><trkpt lat="40.0112192" lon="18.1802446"><ele>142.33333333333334</ele><time>2026-03-29T11:03:49.938Z</time></trkpt><trkpt lat="40.0112202" lon="18.1801595"><ele>142.16666666666669</ele><time>2026-03-29T11:03:50.939Z</time></trkpt><trkpt lat="40.0112203" lon="18.1800733"><ele>142.0</ele><time>2026-03-29T11:03:51.939Z</time></trkpt><trkpt lat="40.0112178" lon="18.1799887"><ele>142.0</ele><time>2026-03-29T11:03:52.939Z</time></trkpt><trkpt lat="40.0112158" lon="18.1799038"><ele>142.0</ele><time>2026-03-29T11:03:53.938Z</time></trkpt><trkpt lat="40.0112177" lon="18.1798184"><ele>142.0</ele><time>2026-03-29T11:03:54.938Z</time></trkpt><trkpt lat="40.0112213" lon="18.1797316"><ele>142.0</ele><time>2026-03-29T11:03:55.939Z</time></trkpt><trkpt lat="40.0112266" lon="18.1796493"><ele>142.0</ele><time>2026-03-29T11:03:56.938Z</time></trkpt><trkpt lat="40.0112293" lon="18.1795659"><ele>142.0</ele><time>2026-03-29T11:03:57.938Z</time></trkpt><trkpt lat="40.0112308" lon="18.1793985"><ele>142.0</ele><time>2026-03-29T11:03:59.938Z</time></trkpt><trkpt lat="40.0112307" lon="18.1793109"><ele>142.0</ele><time>2026-03-29T11:04:00.938Z</time></trkpt><trkpt lat="40.0112323" lon="18.1792279"><ele>142.0</ele><time>2026-03-29T11:04:01.938Z</time></trkpt><trkpt lat="40.0112327" lon="18.1791445"><ele>142.0</ele><time>2026-03-29T11:04:02.938Z</time></trkpt><trkpt lat="40.0112346" lon="18.1790595"><ele>142.0</ele><time>2026-03-29T11:04:03.938Z</time></trkpt><trkpt lat="40.0112384" lon="18.1789727"><ele>142.0</ele><time>2026-03-29T11:04:04.938Z</time></trkpt><trkpt lat="40.0112381" lon="18.1788838"><ele>142.0</ele><time>2026-03-29T11:04:05.939Z</time></trkpt><trkpt lat="40.0112357" lon="18.1788006"><ele>142.0</ele><time>2026-03-29T11:04:06.938Z</time></trkpt><trkpt lat="40.0112328" lon="18.1787183"><ele>142.0</ele><time>2026-03-29T11:04:07.939Z</time></trkpt><trkpt lat="40.0112238" lon="18.1785578"><ele>142.0</ele><time>2026-03-29T11:04:09.939Z</time></trkpt><trkpt lat="40.0112092" lon="18.1784124"><ele>142.0</ele><time>2026-03-29T11:04:11.939Z</time></trkpt><trkpt lat="40.0112104" lon="18.1783001"><ele>142.0</ele><time>2026-03-29T11:04:13.939Z</time></trkpt><trkpt lat="40.011224" lon="18.1781758"><ele>142.25</ele><time>2026-03-29T11:04:15.939Z</time></trkpt><trkpt lat="40.0112617" lon="18.1780279"><ele>142.5</ele><time>2026-03-29T11:04:17.938Z</time></trkpt><trkpt lat="40.0112997" lon="18.1778771"><ele>142.75</ele><time>2026-03-29T11:04:19.938Z</time></trkpt><trkpt lat="40.0113283" lon="18.1777304"><ele>143.0</ele><time>2026-03-29T11:04:21.939Z</time></trkpt><trkpt lat="40.0113628" lon="18.17759"><ele>143.0</ele><time>2026-03-29T11:04:23.938Z</time></trkpt><trkpt lat="40.0113998" lon="18.1774426"><ele>143.0</ele><time>2026-03-29T11:04:25.938Z</time></trkpt><trkpt lat="40.0114335" lon="18.177293"><ele>143.0</ele><time>2026-03-29T11:04:27.938Z</time></trkpt><trkpt lat="40.0114711" lon="18.1771622"><ele>143.0</ele><time>2026-03-29T11:04:29.938Z</time></trkpt><trkpt lat="40.0115112" lon="18.1770301"><ele>143.0</ele><time>2026-03-29T11:04:31.938Z</time></trkpt><trkpt lat="40.0115506" lon="18.1768938"><ele>143.0</ele><time>2026-03-29T11:04:33.939Z</time></trkpt><trkpt lat="40.0115952" lon="18.1767587"><ele>143.0</ele><time>2026-03-29T11:04:35.939Z</time></trkpt><trkpt lat="40.0116394" lon="18.1766271"><ele>143.0</ele><time>2026-03-29T11:04:37.939Z</time></trkpt><trkpt lat="40.0116923" lon="18.1764968"><ele>143.0</ele><time>2026-03-29T11:04:39.94Z</time></trkpt><trkpt lat="40.0117441" lon="18.1763787"><ele>142.16666666666666</ele><time>2026-03-29T11:04:41.939Z</time></trkpt><trkpt lat="40.0117975" lon="18.1762875"><ele>141.33333333333331</ele><time>2026-03-29T11:04:43.939Z</time></trkpt><trkpt lat="40.0118361" lon="18.1762126"><ele>140.5</ele><time>2026-03-29T11:04:45.939Z</time></trkpt><trkpt lat="40.011884" lon="18.1761557"><ele>139.66666666666666</ele><time>2026-03-29T11:04:48.94Z</time></trkpt><trkpt lat="40.0119654" lon="18.1760439"><ele>138.83333333333334</ele><time>2026-03-29T11:05:14.939Z</time></trkpt><trkpt lat="40.0120098" lon="18.1759733"><ele>138.0</ele><time>2026-03-29T11:05:17.939Z</time></trkpt><trkpt lat="40.0120689" lon="18.1758948"><ele>138.0</ele><time>2026-03-29T11:05:19.939Z</time></trkpt><trkpt lat="40.0121451" lon="18.175819"><ele>138.0</ele><time>2026-03-29T11:05:21.939Z</time></trkpt><trkpt lat="40.0122275" lon="18.1757283"><ele>138.0</ele><time>2026-03-29T11:05:23.939Z</time></trkpt><trkpt lat="40.0123178" lon="18.1756271"><ele>138.0</ele><time>2026-03-29T11:05:25.939Z</time></trkpt><trkpt lat="40.0123718" lon="18.1755821"><ele>138.0</ele><time>2026-03-29T11:05:26.939Z</time></trkpt><trkpt lat="40.0124286" lon="18.1755439"><ele>137.57142857142858</ele><time>2026-03-29T11:05:27.939Z</time></trkpt><trkpt lat="40.0124875" lon="18.1755063"><ele>137.14285714285717</ele><time>2026-03-29T11:05:28.94Z</time></trkpt><trkpt lat="40.0125531" lon="18.1754687"><ele>136.71428571428572</ele><time>2026-03-29T11:05:29.939Z</time></trkpt><trkpt lat="40.0126181" lon="18.1754274"><ele>136.28571428571428</ele><time>2026-03-29T11:05:30.939Z</time></trkpt><trkpt lat="40.0126843" lon="18.1753818"><ele>135.85714285714283</ele><time>2026-03-29T11:05:31.939Z</time></trkpt><trkpt lat="40.0127489" lon="18.1753337"><ele>135.42857142857142</ele><time>2026-03-29T11:05:32.939Z</time></trkpt><trkpt lat="40.012816" lon="18.1752898"><ele>135.0</ele><time>2026-03-29T11:05:33.939Z</time></trkpt><trkpt lat="40.0128866" lon="18.175247"><ele>134.66666666666666</ele><time>2026-03-29T11:05:34.94Z</time></trkpt><trkpt lat="40.0129577" lon="18.1752041"><ele>134.33333333333334</ele><time>2026-03-29T11:05:35.94Z</time></trkpt><trkpt lat="40.0130265" lon="18.1751621"><ele>134.0</ele><time>2026-03-29T11:05:36.939Z</time></trkpt><trkpt lat="40.013093" lon="18.1751168"><ele>133.66666666666669</ele><time>2026-03-29T11:05:37.941Z</time></trkpt><trkpt lat="40.0131636" lon="18.175071"><ele>133.33333333333334</ele><time>2026-03-29T11:05:38.939Z</time></trkpt><trkpt lat="40.013231" lon="18.1750267"><ele>133.0</ele><time>2026-03-29T11:05:39.939Z</time></trkpt><trkpt lat="40.0132967" lon="18.1749803"><ele>132.57142857142858</ele><time>2026-03-29T11:05:40.939Z</time></trkpt><trkpt lat="40.013362" lon="18.1749356"><ele>132.14285714285714</ele><time>2026-03-29T11:05:41.94Z</time></trkpt><trkpt lat="40.013431" lon="18.1748918"><ele>131.71428571428572</ele><time>2026-03-29T11:05:42.939Z</time></trkpt><trkpt lat="40.0135002" lon="18.1748458"><ele>131.28571428571428</ele><time>2026-03-29T11:05:43.94Z</time></trkpt><trkpt lat="40.0135628" lon="18.174808"><ele>130.85714285714286</ele><time>2026-03-29T11:05:44.94Z</time></trkpt><trkpt lat="40.013623" lon="18.1747721"><ele>130.42857142857144</ele><time>2026-03-29T11:05:45.94Z</time></trkpt><trkpt lat="40.0136856" lon="18.1747346"><ele>130.0</ele><time>2026-03-29T11:05:46.939Z</time></trkpt><trkpt lat="40.0137441" lon="18.1746943"><ele>129.0</ele><time>2026-03-29T11:05:47.94Z</time></trkpt><trkpt lat="40.013845" lon="18.1746087"><ele>128.0</ele><time>2026-03-29T11:05:49.939Z</time></trkpt><trkpt lat="40.0139443" lon="18.1745477"><ele>127.0</ele><time>2026-03-29T11:05:51.939Z</time></trkpt><trkpt lat="40.0140486" lon="18.1744823"><ele>126.0</ele><time>2026-03-29T11:05:53.941Z</time></trkpt><trkpt lat="40.0141449" lon="18.1744165"><ele>127.0</ele><time>2026-03-29T11:05:55.94Z</time></trkpt><trkpt lat="40.0142386" lon="18.1743566"><ele>128.0</ele><time>2026-03-29T11:05:57.94Z</time></trkpt><trkpt lat="40.0143254" lon="18.1743"><ele>129.0</ele><time>2026-03-29T11:05:59.941Z</time></trkpt><trkpt lat="40.01442" lon="18.1742617"><ele>130.0</ele><time>2026-03-29T11:06:01.941Z</time></trkpt><trkpt lat="40.0145095" lon="18.174219"><ele>131.0</ele><time>2026-03-29T11:06:03.941Z</time></trkpt><trkpt lat="40.0146083" lon="18.1742065"><ele>131.0</ele><time>2026-03-29T11:06:05.94Z</time></trkpt><trkpt lat="40.014684" lon="18.1742291"><ele>131.0</ele><time>2026-03-29T11:06:07.94Z</time></trkpt><trkpt lat="40.0146992" lon="18.1741287"><ele>131.0</ele><time>2026-03-29T11:06:44.94Z</time></trkpt><trkpt lat="40.0147694" lon="18.1740534"><ele>131.0</ele><time>2026-03-29T11:06:47.941Z</time></trkpt><trkpt lat="40.0148264" lon="18.1740078"><ele>131.0</ele><time>2026-03-29T11:06:49.94Z</time></trkpt><trkpt lat="40.0148737" lon="18.1739411"><ele>131.0</ele><time>2026-03-29T11:06:51.94Z</time></trkpt><trkpt lat="40.0149502" lon="18.1738892"><ele>131.66666666666666</ele><time>2026-03-29T11:06:53.94Z</time></trkpt><trkpt lat="40.0150298" lon="18.1738536"><ele>132.33333333333331</ele><time>2026-03-29T11:06:55.94Z</time></trkpt><trkpt lat="40.0151115" lon="18.1737833"><ele>133.0</ele><time>2026-03-29T11:06:57.941Z</time></trkpt><trkpt lat="40.0151894" lon="18.173725"><ele>133.66666666666666</ele><time>2026-03-29T11:06:59.941Z</time></trkpt><trkpt lat="40.0152592" lon="18.1736764"><ele>134.33333333333334</ele><time>2026-03-29T11:07:01.94Z</time></trkpt><trkpt lat="40.0153358" lon="18.1736242"><ele>135.0</ele><time>2026-03-29T11:07:03.94Z</time></trkpt><trkpt lat="40.0154112" lon="18.1735818"><ele>135.0</ele><time>2026-03-29T11:07:05.941Z</time></trkpt><trkpt lat="40.015489" lon="18.1735314"><ele>135.0</ele><time>2026-03-29T11:07:07.941Z</time></trkpt><trkpt lat="40.0155711" lon="18.1734811"><ele>135.0</ele><time>2026-03-29T11:07:09.942Z</time></trkpt><trkpt lat="40.0156452" lon="18.1734242"><ele>135.0</ele><time>2026-03-29T11:07:11.941Z</time></trkpt><trkpt lat="40.0157277" lon="18.1733733"><ele>135.0</ele><time>2026-03-29T11:07:13.941Z</time></trkpt><trkpt lat="40.0158123" lon="18.1733183"><ele>135.0</ele><time>2026-03-29T11:07:15.941Z</time></trkpt><trkpt lat="40.0158946" lon="18.1732629"><ele>135.2</ele><time>2026-03-29T11:07:17.942Z</time></trkpt><trkpt lat="40.0159792" lon="18.1732047"><ele>135.4</ele><time>2026-03-29T11:07:19.941Z</time></trkpt><trkpt lat="40.0160641" lon="18.1731489"><ele>135.6</ele><time>2026-03-29T11:07:21.942Z</time></trkpt><trkpt lat="40.0161508" lon="18.173092"><ele>135.8</ele><time>2026-03-29T11:07:23.941Z</time></trkpt><trkpt lat="40.0162422" lon="18.1730422"><ele>136.0</ele><time>2026-03-29T11:07:25.941Z</time></trkpt><trkpt lat="40.0163372" lon="18.1729818"><ele>136.0</ele><time>2026-03-29T11:07:27.941Z</time></trkpt><trkpt lat="40.016427" lon="18.1729187"><ele>136.0</ele><time>2026-03-29T11:07:29.941Z</time></trkpt><trkpt lat="40.016517" lon="18.1728564"><ele>136.0</ele><time>2026-03-29T11:07:31.941Z</time></trkpt><trkpt lat="40.0166016" lon="18.1727957"><ele>136.0</ele><time>2026-03-29T11:07:33.941Z</time></trkpt><trkpt lat="40.0166983" lon="18.1727248"><ele>136.0</ele><time>2026-03-29T11:07:35.941Z</time></trkpt><trkpt lat="40.0168033" lon="18.172676"><ele>136.4</ele><time>2026-03-29T11:07:37.942Z</time></trkpt><trkpt lat="40.0168962" lon="18.1726159"><ele>136.8</ele><time>2026-03-29T11:07:39.942Z</time></trkpt><trkpt lat="40.0169877" lon="18.1725423"><ele>137.20000000000002</ele><time>2026-03-29T11:07:41.941Z</time></trkpt><trkpt lat="40.0170769" lon="18.172483"><ele>137.6</ele><time>2026-03-29T11:07:43.941Z</time></trkpt><trkpt lat="40.017162" lon="18.1724158"><ele>138.0</ele><time>2026-03-29T11:07:45.941Z</time></trkpt><trkpt lat="40.0172523" lon="18.172344"><ele>137.5</ele><time>2026-03-29T11:07:47.941Z</time></trkpt><trkpt lat="40.0173557" lon="18.1722862"><ele>137.0</ele><time>2026-03-29T11:07:49.941Z</time></trkpt><trkpt lat="40.0174593" lon="18.1722274"><ele>136.5</ele><time>2026-03-29T11:07:51.942Z</time></trkpt><trkpt lat="40.017579" lon="18.1721842"><ele>136.0</ele><time>2026-03-29T11:07:53.941Z</time></trkpt><trkpt lat="40.0176792" lon="18.1721331"><ele>136.0</ele><time>2026-03-29T11:07:55.941Z</time></trkpt><trkpt lat="40.0177811" lon="18.1720623"><ele>136.0</ele><time>2026-03-29T11:07:57.942Z</time></trkpt><trkpt lat="40.0178977" lon="18.1719883"><ele>136.0</ele><time>2026-03-29T11:07:59.941Z</time></trkpt><trkpt lat="40.0180022" lon="18.1719213"><ele>136.0</ele><time>2026-03-29T11:08:01.942Z</time></trkpt><trkpt lat="40.0181115" lon="18.1718608"><ele>136.0</ele><time>2026-03-29T11:08:03.942Z</time></trkpt><trkpt lat="40.0181726" lon="18.1718369"><ele>136.0</ele><time>2026-03-29T11:08:04.942Z</time></trkpt><trkpt lat="40.0182751" lon="18.1717833"><ele>136.0</ele><time>2026-03-29T11:08:06.941Z</time></trkpt><trkpt lat="40.0183783" lon="18.1717164"><ele>136.0</ele><time>2026-03-29T11:08:08.941Z</time></trkpt><trkpt lat="40.0184861" lon="18.1716531"><ele>136.0</ele><time>2026-03-29T11:08:10.942Z</time></trkpt><trkpt lat="40.0185968" lon="18.1715874"><ele>136.25</ele><time>2026-03-29T11:08:12.941Z</time></trkpt><trkpt lat="40.0187046" lon="18.1715287"><ele>136.5</ele><time>2026-03-29T11:08:14.941Z</time></trkpt><trkpt lat="40.0188134" lon="18.1714788"><ele>136.75</ele><time>2026-03-29T11:08:16.941Z</time></trkpt><trkpt lat="40.0189247" lon="18.1714345"><ele>137.0</ele><time>2026-03-29T11:08:18.941Z</time></trkpt><trkpt lat="40.0190349" lon="18.1713945"><ele>136.6</ele><time>2026-03-29T11:08:20.943Z</time></trkpt><trkpt lat="40.0191416" lon="18.1713635"><ele>136.2</ele><time>2026-03-29T11:08:22.942Z</time></trkpt><trkpt lat="40.0192376" lon="18.1713384"><ele>135.8</ele><time>2026-03-29T11:08:24.942Z</time></trkpt><trkpt lat="40.0193216" lon="18.1713398"><ele>135.4</ele><time>2026-03-29T11:08:26.943Z</time></trkpt><trkpt lat="40.0194087" lon="18.1713329"><ele>135.0</ele><time>2026-03-29T11:08:28.942Z</time></trkpt><trkpt lat="40.0194938" lon="18.1713188"><ele>135.0</ele><time>2026-03-29T11:08:30.942Z</time></trkpt><trkpt lat="40.01957" lon="18.1713007"><ele>135.0</ele><time>2026-03-29T11:08:32.942Z</time></trkpt><trkpt lat="40.0196304" lon="18.1712286"><ele>135.0</ele><time>2026-03-29T11:08:34.943Z</time></trkpt><trkpt lat="40.0196314" lon="18.1710951"><ele>135.0</ele><time>2026-03-29T11:08:36.942Z</time></trkpt><trkpt lat="40.0195985" lon="18.1710194"><ele>135.0</ele><time>2026-03-29T11:08:37.943Z</time></trkpt><trkpt lat="40.0195496" lon="18.170955"><ele>135.0</ele><time>2026-03-29T11:08:38.942Z</time></trkpt><trkpt lat="40.019457" lon="18.1708416"><ele>135.0</ele><time>2026-03-29T11:08:40.943Z</time></trkpt><trkpt lat="40.0194365" lon="18.170757"><ele>135.0</ele><time>2026-03-29T11:08:41.943Z</time></trkpt><trkpt lat="40.0194459" lon="18.1706714"><ele>135.0</ele><time>2026-03-29T11:08:42.942Z</time></trkpt><trkpt lat="40.0195194" lon="18.1705408"><ele>135.0</ele><time>2026-03-29T11:08:44.942Z</time></trkpt><trkpt lat="40.0195758" lon="18.1705028"><ele>135.0</ele><time>2026-03-29T11:08:45.942Z</time></trkpt><trkpt lat="40.0196752" lon="18.1704444"><ele>135.0</ele><time>2026-03-29T11:08:47.942Z</time></trkpt><trkpt lat="40.0197764" lon="18.1703699"><ele>135.0</ele><time>2026-03-29T11:08:49.942Z</time></trkpt><trkpt lat="40.019871" lon="18.1702962"><ele>135.0</ele><time>2026-03-29T11:08:51.942Z</time></trkpt><trkpt lat="40.0199715" lon="18.1702288"><ele>135.0</ele><time>2026-03-29T11:08:53.942Z</time></trkpt><trkpt lat="40.020029" lon="18.1701915"><ele>135.0</ele><time>2026-03-29T11:08:54.943Z</time></trkpt><trkpt lat="40.0201314" lon="18.1701213"><ele>135.0</ele><time>2026-03-29T11:08:56.942Z</time></trkpt><trkpt lat="40.0202338" lon="18.1700659"><ele>135.0</ele><time>2026-03-29T11:08:58.943Z</time></trkpt><trkpt lat="40.0203171" lon="18.1699722"><ele>135.0</ele><time>2026-03-29T11:09:00.942Z</time></trkpt><trkpt lat="40.0203284" lon="18.1698184"><ele>135.0</ele><time>2026-03-29T11:09:02.942Z</time></trkpt><trkpt lat="40.0202832" lon="18.1696599"><ele>135.0</ele><time>2026-03-29T11:09:04.944Z</time></trkpt><trkpt lat="40.02024" lon="18.1695823"><ele>135.0</ele><time>2026-03-29T11:09:05.942Z</time></trkpt><trkpt lat="40.0201981" lon="18.1695086"><ele>135.0</ele><time>2026-03-29T11:09:06.942Z</time></trkpt><trkpt lat="40.0201278" lon="18.1693924"><ele>135.0</ele><time>2026-03-29T11:09:08.942Z</time></trkpt><trkpt lat="40.0200535" lon="18.1692595"><ele>135.0</ele><time>2026-03-29T11:09:10.943Z</time></trkpt><trkpt lat="40.0200132" lon="18.1691867"><ele>135.0</ele><time>2026-03-29T11:09:11.942Z</time></trkpt><trkpt lat="40.0199801" lon="18.169116"><ele>135.0</ele><time>2026-03-29T11:09:12.942Z</time></trkpt><trkpt lat="40.0199266" lon="18.1689967"><ele>135.4</ele><time>2026-03-29T11:09:14.943Z</time></trkpt><trkpt lat="40.0198795" lon="18.1688831"><ele>135.8</ele><time>2026-03-29T11:09:16.942Z</time></trkpt><trkpt lat="40.0198227" lon="18.1687623"><ele>136.2</ele><time>2026-03-29T11:09:18.943Z</time></trkpt><trkpt lat="40.019766" lon="18.1686633"><ele>136.6</ele><time>2026-03-29T11:09:20.942Z</time></trkpt><trkpt lat="40.0197146" lon="18.1685522"><ele>137.0</ele><time>2026-03-29T11:09:22.942Z</time></trkpt><trkpt lat="40.0197372" lon="18.1684262"><ele>137.0</ele><time>2026-03-29T11:09:24.942Z</time></trkpt><trkpt lat="40.0198213" lon="18.1683402"><ele>137.0</ele><time>2026-03-29T11:09:26.943Z</time></trkpt><trkpt lat="40.0199295" lon="18.1682933"><ele>137.0</ele><time>2026-03-29T11:09:28.942Z</time></trkpt><trkpt lat="40.0200219" lon="18.1682276"><ele>137.0</ele><time>2026-03-29T11:09:30.943Z</time></trkpt><trkpt lat="40.020071" lon="18.1681344"><ele>137.0</ele><time>2026-03-29T11:09:32.943Z</time></trkpt><trkpt lat="40.0200824" lon="18.1680172"><ele>137.0</ele><time>2026-03-29T11:09:34.943Z</time></trkpt><trkpt lat="40.020059" lon="18.1678912"><ele>137.0</ele><time>2026-03-29T11:09:36.943Z</time></trkpt><trkpt lat="40.0200253" lon="18.1677669"><ele>137.0</ele><time>2026-03-29T11:09:38.943Z</time></trkpt><trkpt lat="40.0199908" lon="18.1676471"><ele>137.0</ele><time>2026-03-29T11:09:40.944Z</time></trkpt><trkpt lat="40.0199607" lon="18.1675385"><ele>137.0</ele><time>2026-03-29T11:09:42.943Z</time></trkpt><trkpt lat="40.0199359" lon="18.1674244"><ele>136.83333333333331</ele><time>2026-03-29T11:09:44.944Z</time></trkpt><trkpt lat="40.0199051" lon="18.1673104"><ele>136.66666666666666</ele><time>2026-03-29T11:09:46.944Z</time></trkpt><trkpt lat="40.0198886" lon="18.1671954"><ele>136.5</ele><time>2026-03-29T11:09:48.943Z</time></trkpt><trkpt lat="40.0198642" lon="18.1670815"><ele>136.33333333333334</ele><time>2026-03-29T11:09:50.943Z</time></trkpt><trkpt lat="40.0198494" lon="18.1669667"><ele>136.16666666666669</ele><time>2026-03-29T11:09:52.943Z</time></trkpt><trkpt lat="40.0198375" lon="18.1668573"><ele>136.0</ele><time>2026-03-29T11:09:54.943Z</time></trkpt><trkpt lat="40.0198217" lon="18.1667358"><ele>136.0</ele><time>2026-03-29T11:09:56.944Z</time></trkpt><trkpt lat="40.0198168" lon="18.1666307"><ele>136.0</ele><time>2026-03-29T11:09:58.943Z</time></trkpt><trkpt lat="40.0198004" lon="18.1664969"><ele>136.0</ele><time>2026-03-29T11:10:00.943Z</time></trkpt><trkpt lat="40.0197768" lon="18.1663679"><ele>136.0</ele><time>2026-03-29T11:10:02.943Z</time></trkpt><trkpt lat="40.0197653" lon="18.1662266"><ele>136.0</ele><time>2026-03-29T11:10:04.944Z</time></trkpt><trkpt lat="40.0197497" lon="18.1660755"><ele>135.33333333333334</ele><time>2026-03-29T11:10:06.944Z</time></trkpt><trkpt lat="40.0197308" lon="18.1659414"><ele>134.66666666666669</ele><time>2026-03-29T11:10:08.943Z</time></trkpt><trkpt lat="40.0197251" lon="18.1658192"><ele>134.0</ele><time>2026-03-29T11:10:10.943Z</time></trkpt><trkpt lat="40.0197367" lon="18.1657138"><ele>133.33333333333334</ele><time>2026-03-29T11:10:13.944Z</time></trkpt><trkpt lat="40.0196727" lon="18.1656547"><ele>132.66666666666666</ele><time>2026-03-29T11:10:15.943Z</time></trkpt><trkpt lat="40.0195858" lon="18.1656244"><ele>132.0</ele><time>2026-03-29T11:10:17.943Z</time></trkpt><trkpt lat="40.0194813" lon="18.1655724"><ele>130.83333333333334</ele><time>2026-03-29T11:10:19.943Z</time></trkpt><trkpt lat="40.0193947" lon="18.1654684"><ele>129.66666666666666</ele><time>2026-03-29T11:10:21.943Z</time></trkpt><trkpt lat="40.0193398" lon="18.165426"><ele>128.5</ele><time>2026-03-29T11:10:22.943Z</time></trkpt><trkpt lat="40.0192249" lon="18.1653727"><ele>127.33333333333333</ele><time>2026-03-29T11:10:24.944Z</time></trkpt><trkpt lat="40.0191627" lon="18.1653439"><ele>126.16666666666666</ele><time>2026-03-29T11:10:25.944Z</time></trkpt><trkpt lat="40.0190994" lon="18.1653035"><ele>125.0</ele><time>2026-03-29T11:10:26.943Z</time></trkpt><trkpt lat="40.0190368" lon="18.1652718"><ele>124.57142857142857</ele><time>2026-03-29T11:10:27.943Z</time></trkpt><trkpt lat="40.0189655" lon="18.1652363"><ele>124.14285714285714</ele><time>2026-03-29T11:10:28.944Z</time></trkpt><trkpt lat="40.0188966" lon="18.165208"><ele>123.71428571428571</ele><time>2026-03-29T11:10:29.943Z</time></trkpt><trkpt lat="40.0188382" lon="18.165176"><ele>123.28571428571428</ele><time>2026-03-29T11:10:30.943Z</time></trkpt><trkpt lat="40.0188071" lon="18.1650744"><ele>122.85714285714286</ele><time>2026-03-29T11:10:32.943Z</time></trkpt><trkpt lat="40.0188437" lon="18.1650026"><ele>122.42857142857142</ele><time>2026-03-29T11:10:33.943Z</time></trkpt><trkpt lat="40.0188986" lon="18.1649456"><ele>121.99999999999999</ele><time>2026-03-29T11:10:34.944Z</time></trkpt><trkpt lat="40.0189543" lon="18.1649022"><ele>121.8</ele><time>2026-03-29T11:10:35.943Z</time></trkpt><trkpt lat="40.0190081" lon="18.1648576"><ele>121.6</ele><time>2026-03-29T11:10:36.943Z</time></trkpt><trkpt lat="40.019104" lon="18.1647823"><ele>121.39999999999999</ele><time>2026-03-29T11:10:38.943Z</time></trkpt><trkpt lat="40.0192014" lon="18.1647048"><ele>121.19999999999999</ele><time>2026-03-29T11:10:40.943Z</time></trkpt><trkpt lat="40.0192987" lon="18.1646353"><ele>121.0</ele><time>2026-03-29T11:10:42.944Z</time></trkpt><trkpt lat="40.0193753" lon="18.1645393"><ele>121.0</ele><time>2026-03-29T11:10:44.943Z</time></trkpt><trkpt lat="40.019455" lon="18.1644649"><ele>121.0</ele><time>2026-03-29T11:10:46.945Z</time></trkpt><trkpt lat="40.0195346" lon="18.1643924"><ele>121.0</ele><time>2026-03-29T11:10:48.944Z</time></trkpt><trkpt lat="40.0196048" lon="18.1643107"><ele>121.0</ele><time>2026-03-29T11:10:50.944Z</time></trkpt><trkpt lat="40.0196644" lon="18.1642084"><ele>121.0</ele><time>2026-03-29T11:10:52.945Z</time></trkpt><trkpt lat="40.019739" lon="18.1641189"><ele>121.0</ele><time>2026-03-29T11:10:54.944Z</time></trkpt><trkpt lat="40.0198185" lon="18.1640379"><ele>121.0</ele><time>2026-03-29T11:10:56.944Z</time></trkpt><trkpt lat="40.0198967" lon="18.1639668"><ele>121.0</ele><time>2026-03-29T11:10:58.945Z</time></trkpt><trkpt lat="40.0199688" lon="18.1638896"><ele>121.0</ele><time>2026-03-29T11:11:00.944Z</time></trkpt><trkpt lat="40.0200383" lon="18.1637958"><ele>121.0</ele><time>2026-03-29T11:11:02.945Z</time></trkpt><trkpt lat="40.0201062" lon="18.1637206"><ele>121.0</ele><time>2026-03-29T11:11:04.944Z</time></trkpt><trkpt lat="40.0201863" lon="18.1636387"><ele>121.0</ele><time>2026-03-29T11:11:06.944Z</time></trkpt><trkpt lat="40.020263" lon="18.1635607"><ele>121.0</ele><time>2026-03-29T11:11:08.944Z</time></trkpt><trkpt lat="40.020335" lon="18.1634954"><ele>121.0</ele><time>2026-03-29T11:11:10.944Z</time></trkpt><trkpt lat="40.0204013" lon="18.1634223"><ele>121.0</ele><time>2026-03-29T11:11:12.944Z</time></trkpt><trkpt lat="40.0204721" lon="18.1633392"><ele>121.0</ele><time>2026-03-29T11:11:14.944Z</time></trkpt><trkpt lat="40.0205319" lon="18.1632471"><ele>121.0</ele><time>2026-03-29T11:11:16.945Z</time></trkpt><trkpt lat="40.0205358" lon="18.1630837"><ele>121.0</ele><time>2026-03-29T11:11:18.944Z</time></trkpt><trkpt lat="40.0205191" lon="18.1629847"><ele>121.0</ele><time>2026-03-29T11:11:19.944Z</time></trkpt><trkpt lat="40.020492" lon="18.1628909"><ele>121.0</ele><time>2026-03-29T11:11:20.944Z</time></trkpt><trkpt lat="40.0204581" lon="18.1627919"><ele>120.50000000000001</ele><time>2026-03-29T11:11:21.945Z</time></trkpt><trkpt lat="40.0204346" lon="18.1626899"><ele>120.0</ele><time>2026-03-29T11:11:22.944Z</time></trkpt><trkpt lat="40.0204234" lon="18.1625924"><ele>119.5</ele><time>2026-03-29T11:11:23.944Z</time></trkpt><trkpt lat="40.0204166" lon="18.1625"><ele>119.0</ele><time>2026-03-29T11:11:24.944Z</time></trkpt><trkpt lat="40.0204105" lon="18.1624026"><ele>118.50000000000001</ele><time>2026-03-29T11:11:25.945Z</time></trkpt><trkpt lat="40.0203934" lon="18.1623068"><ele>118.0</ele><time>2026-03-29T11:11:26.944Z</time></trkpt><trkpt lat="40.0203755" lon="18.1622117"><ele>117.66666666666667</ele><time>2026-03-29T11:11:27.944Z</time></trkpt><trkpt lat="40.0203636" lon="18.1621212"><ele>117.33333333333334</ele><time>2026-03-29T11:11:28.944Z</time></trkpt><trkpt lat="40.0203487" lon="18.1620393"><ele>117.0</ele><time>2026-03-29T11:11:29.945Z</time></trkpt><trkpt lat="40.0203153" lon="18.1618902"><ele>116.66666666666666</ele><time>2026-03-29T11:11:31.944Z</time></trkpt><trkpt lat="40.0202944" lon="18.1617757"><ele>116.33333333333333</ele><time>2026-03-29T11:11:33.945Z</time></trkpt><trkpt lat="40.0202763" lon="18.1616897"><ele>116.0</ele><time>2026-03-29T11:11:35.945Z</time></trkpt><trkpt lat="40.0202335" lon="18.1615862"><ele>115.8</ele><time>2026-03-29T11:11:38.944Z</time></trkpt><trkpt lat="40.0201837" lon="18.1614884"><ele>115.6</ele><time>2026-03-29T11:11:40.944Z</time></trkpt><trkpt lat="40.0201302" lon="18.1613762"><ele>115.4</ele><time>2026-03-29T11:11:42.945Z</time></trkpt><trkpt lat="40.0200971" lon="18.1612463"><ele>115.2</ele><time>2026-03-29T11:11:44.944Z</time></trkpt><trkpt lat="40.0200847" lon="18.1611157"><ele>115.0</ele><time>2026-03-29T11:11:46.945Z</time></trkpt><trkpt lat="40.0200575" lon="18.1609817"><ele>115.0</ele><time>2026-03-29T11:11:48.945Z</time></trkpt><trkpt lat="40.0200311" lon="18.16085"><ele>115.0</ele><time>2026-03-29T11:11:50.944Z</time></trkpt><trkpt lat="40.0200058" lon="18.1607122"><ele>115.0</ele><time>2026-03-29T11:11:52.944Z</time></trkpt><trkpt lat="40.0199731" lon="18.1605583"><ele>115.0</ele><time>2026-03-29T11:11:54.944Z</time></trkpt><trkpt lat="40.0199448" lon="18.1604099"><ele>114.6</ele><time>2026-03-29T11:11:56.944Z</time></trkpt><trkpt lat="40.0199161" lon="18.1602674"><ele>114.2</ele><time>2026-03-29T11:11:58.945Z</time></trkpt><trkpt lat="40.0198958" lon="18.1600904"><ele>113.80000000000001</ele><time>2026-03-29T11:12:00.945Z</time></trkpt><trkpt lat="40.0198855" lon="18.1600058"><ele>113.4</ele><time>2026-03-29T11:12:01.945Z</time></trkpt><trkpt lat="40.0198648" lon="18.1598536"><ele>113.0</ele><time>2026-03-29T11:12:03.945Z</time></trkpt><trkpt lat="40.0198328" lon="18.1597019"><ele>113.0</ele><time>2026-03-29T11:12:05.946Z</time></trkpt><trkpt lat="40.0197975" lon="18.1595453"><ele>113.00000000000001</ele><time>2026-03-29T11:12:07.945Z</time></trkpt><trkpt lat="40.0197747" lon="18.1594668"><ele>113.00000000000001</ele><time>2026-03-29T11:12:08.945Z</time></trkpt><trkpt lat="40.0197594" lon="18.1593838"><ele>113.0</ele><time>2026-03-29T11:12:09.946Z</time></trkpt><trkpt lat="40.019736" lon="18.1592312"><ele>113.0</ele><time>2026-03-29T11:12:11.945Z</time></trkpt><trkpt lat="40.0197159" lon="18.1590822"><ele>112.66666666666666</ele><time>2026-03-29T11:12:13.946Z</time></trkpt><trkpt lat="40.0196862" lon="18.1589408"><ele>112.33333333333333</ele><time>2026-03-29T11:12:15.945Z</time></trkpt><trkpt lat="40.019651" lon="18.1587799"><ele>112.0</ele><time>2026-03-29T11:12:17.945Z</time></trkpt><trkpt lat="40.0196365" lon="18.1586927"><ele>111.66666666666666</ele><time>2026-03-29T11:12:18.945Z</time></trkpt><trkpt lat="40.0196245" lon="18.1586048"><ele>111.33333333333333</ele><time>2026-03-29T11:12:19.945Z</time></trkpt><trkpt lat="40.0196179" lon="18.1585177"><ele>111.0</ele><time>2026-03-29T11:12:20.946Z</time></trkpt><trkpt lat="40.0196156" lon="18.1584349"><ele>111.0</ele><time>2026-03-29T11:12:21.945Z</time></trkpt><trkpt lat="40.0196285" lon="18.1582802"><ele>111.0</ele><time>2026-03-29T11:12:23.946Z</time></trkpt><trkpt lat="40.0196463" lon="18.1581382"><ele>111.0</ele><time>2026-03-29T11:12:25.945Z</time></trkpt><trkpt lat="40.0196686" lon="18.158007"><ele>111.0</ele><time>2026-03-29T11:12:27.945Z</time></trkpt><trkpt lat="40.0196862" lon="18.1578769"><ele>111.0</ele><time>2026-03-29T11:12:29.945Z</time></trkpt><trkpt lat="40.0196963" lon="18.1577467"><ele>111.19999999999999</ele><time>2026-03-29T11:12:31.946Z</time></trkpt><trkpt lat="40.0197163" lon="18.1576078"><ele>111.39999999999999</ele><time>2026-03-29T11:12:33.945Z</time></trkpt><trkpt lat="40.0197328" lon="18.1574803"><ele>111.6</ele><time>2026-03-29T11:12:35.945Z</time></trkpt><trkpt lat="40.0197306" lon="18.1573695"><ele>111.8</ele><time>2026-03-29T11:12:37.945Z</time></trkpt><trkpt lat="40.0197384" lon="18.1572643"><ele>112.0</ele><time>2026-03-29T11:12:39.945Z</time></trkpt><trkpt lat="40.0197625" lon="18.157155"><ele>111.6</ele><time>2026-03-29T11:12:41.946Z</time></trkpt><trkpt lat="40.0197747" lon="18.1570326"><ele>111.19999999999999</ele><time>2026-03-29T11:12:43.947Z</time></trkpt><trkpt lat="40.0197814" lon="18.1569029"><ele>110.8</ele><time>2026-03-29T11:12:45.946Z</time></trkpt><trkpt lat="40.0197853" lon="18.1567712"><ele>110.4</ele><time>2026-03-29T11:12:47.945Z</time></trkpt><trkpt lat="40.0198003" lon="18.1566435"><ele>110.0</ele><time>2026-03-29T11:12:49.945Z</time></trkpt><trkpt lat="40.0198133" lon="18.1565272"><ele>109.83333333333333</ele><time>2026-03-29T11:12:51.946Z</time></trkpt><trkpt lat="40.0198256" lon="18.1564144"><ele>109.66666666666666</ele><time>2026-03-29T11:12:53.946Z</time></trkpt><trkpt lat="40.0198309" lon="18.156306"><ele>109.5</ele><time>2026-03-29T11:12:55.946Z</time></trkpt><trkpt lat="40.0198393" lon="18.1561996"><ele>109.33333333333334</ele><time>2026-03-29T11:12:57.946Z</time></trkpt><trkpt lat="40.0198454" lon="18.1560881"><ele>109.16666666666667</ele><time>2026-03-29T11:12:59.946Z</time></trkpt><trkpt lat="40.0198523" lon="18.1559903"><ele>109.0</ele><time>2026-03-29T11:13:01.946Z</time></trkpt><trkpt lat="40.0198677" lon="18.1558835"><ele>109.00000000000001</ele><time>2026-03-29T11:13:03.945Z</time></trkpt><trkpt lat="40.019878" lon="18.1557854"><ele>109.0</ele><time>2026-03-29T11:13:05.947Z</time></trkpt><trkpt lat="40.0198339" lon="18.1557021"><ele>109.0</ele><time>2026-03-29T11:13:08.947Z</time></trkpt><trkpt lat="40.0197582" lon="18.1556631"><ele>109.0</ele><time>2026-03-29T11:13:10.946Z</time></trkpt><trkpt lat="40.0196624" lon="18.1556644"><ele>109.00000000000001</ele><time>2026-03-29T11:13:12.946Z</time></trkpt><trkpt lat="40.0195677" lon="18.1556531"><ele>109.0</ele><time>2026-03-29T11:13:14.946Z</time></trkpt><trkpt lat="40.0194642" lon="18.1556317"><ele>108.6</ele><time>2026-03-29T11:13:16.946Z</time></trkpt><trkpt lat="40.0193753" lon="18.1556206"><ele>108.2</ele><time>2026-03-29T11:13:18.946Z</time></trkpt><trkpt lat="40.0193091" lon="18.1555928"><ele>107.79999999999998</ele><time>2026-03-29T11:13:20.947Z</time></trkpt><trkpt lat="40.019281" lon="18.1554878"><ele>107.39999999999999</ele><time>2026-03-29T11:13:22.946Z</time></trkpt><trkpt lat="40.0193124" lon="18.1553519"><ele>107.0</ele><time>2026-03-29T11:13:24.946Z</time></trkpt><trkpt lat="40.0193402" lon="18.1552192"><ele>107.0</ele><time>2026-03-29T11:13:26.946Z</time></trkpt><trkpt lat="40.0193504" lon="18.1550591"><ele>106.99999999999999</ele><time>2026-03-29T11:13:28.947Z</time></trkpt><trkpt lat="40.0193631" lon="18.1548972"><ele>106.99999999999999</ele><time>2026-03-29T11:13:30.947Z</time></trkpt><trkpt lat="40.0193753" lon="18.1547316"><ele>107.0</ele><time>2026-03-29T11:13:32.947Z</time></trkpt><trkpt lat="40.0193861" lon="18.1546501"><ele>107.0</ele><time>2026-03-29T11:13:33.946Z</time></trkpt><trkpt lat="40.0193912" lon="18.1545642"><ele>106.8</ele><time>2026-03-29T11:13:34.946Z</time></trkpt><trkpt lat="40.0193962" lon="18.154425"><ele>106.6</ele><time>2026-03-29T11:13:36.947Z</time></trkpt><trkpt lat="40.0193925" lon="18.1542941"><ele>106.39999999999999</ele><time>2026-03-29T11:13:38.947Z</time></trkpt><trkpt lat="40.0193729" lon="18.1541692"><ele>106.19999999999999</ele><time>2026-03-29T11:13:40.947Z</time></trkpt><trkpt lat="40.0193342" lon="18.1540232"><ele>106.0</ele><time>2026-03-29T11:13:42.946Z</time></trkpt><trkpt lat="40.0192782" lon="18.1538709"><ele>106.0</ele><time>2026-03-29T11:13:44.947Z</time></trkpt><trkpt lat="40.0192514" lon="18.15373"><ele>106.0</ele><time>2026-03-29T11:13:46.946Z</time></trkpt><trkpt lat="40.019258" lon="18.1536403"><ele>106.0</ele><time>2026-03-29T11:13:47.947Z</time></trkpt><trkpt lat="40.0192838" lon="18.1535647"><ele>106.0</ele><time>2026-03-29T11:13:48.947Z</time></trkpt><trkpt lat="40.0193788" lon="18.1534862"><ele>106.0</ele><time>2026-03-29T11:13:50.946Z</time></trkpt><trkpt lat="40.0194644" lon="18.1534061"><ele>106.0</ele><time>2026-03-29T11:13:52.946Z</time></trkpt><trkpt lat="40.0195536" lon="18.153313"><ele>106.0</ele><time>2026-03-29T11:13:54.946Z</time></trkpt><trkpt lat="40.0196503" lon="18.1532204"><ele>106.0</ele><time>2026-03-29T11:13:56.947Z</time></trkpt><trkpt lat="40.0197519" lon="18.1531465"><ele>106.0</ele><time>2026-03-29T11:13:58.946Z</time></trkpt><trkpt lat="40.0198582" lon="18.1531137"><ele>105.8</ele><time>2026-03-29T11:14:00.946Z</time></trkpt><trkpt lat="40.0199608" lon="18.1530446"><ele>105.6</ele><time>2026-03-29T11:14:02.946Z</time></trkpt><trkpt lat="40.020059" lon="18.1529676"><ele>105.4</ele><time>2026-03-29T11:14:04.946Z</time></trkpt><trkpt lat="40.0201451" lon="18.1529032"><ele>105.2</ele><time>2026-03-29T11:14:06.946Z</time></trkpt><trkpt lat="40.0202329" lon="18.1528324"><ele>105.0</ele><time>2026-03-29T11:14:08.946Z</time></trkpt><trkpt lat="40.0203194" lon="18.152759"><ele>105.0</ele><time>2026-03-29T11:14:10.946Z</time></trkpt><trkpt lat="40.0204109" lon="18.1526805"><ele>105.0</ele><time>2026-03-29T11:14:12.947Z</time></trkpt><trkpt lat="40.0205127" lon="18.1526088"><ele>105.0</ele><time>2026-03-29T11:14:14.947Z</time></trkpt><trkpt lat="40.0206152" lon="18.1525407"><ele>105.0</ele><time>2026-03-29T11:14:16.948Z</time></trkpt><trkpt lat="40.0207098" lon="18.152467"><ele>105.0</ele><time>2026-03-29T11:14:18.946Z</time></trkpt><trkpt lat="40.0207994" lon="18.1523883"><ele>105.0</ele><time>2026-03-29T11:14:20.947Z</time></trkpt><trkpt lat="40.0208928" lon="18.1523125"><ele>105.0</ele><time>2026-03-29T11:14:22.947Z</time></trkpt><trkpt lat="40.0209913" lon="18.1522344"><ele>105.0</ele><time>2026-03-29T11:14:24.947Z</time></trkpt><trkpt lat="40.02108" lon="18.1521584"><ele>105.0</ele><time>2026-03-29T11:14:26.947Z</time></trkpt><trkpt lat="40.0211534" lon="18.1521073"><ele>105.33333333333333</ele><time>2026-03-29T11:14:28.947Z</time></trkpt><trkpt lat="40.0212243" lon="18.1521298"><ele>105.66666666666666</ele><time>2026-03-29T11:14:31.947Z</time></trkpt><trkpt lat="40.0212918" lon="18.1520391"><ele>106.0</ele><time>2026-03-29T11:14:34.947Z</time></trkpt><trkpt lat="40.0213087" lon="18.1519582"><ele>106.33333333333333</ele><time>2026-03-29T11:14:36.947Z</time></trkpt><trkpt lat="40.0212744" lon="18.1518521"><ele>106.66666666666666</ele><time>2026-03-29T11:14:40.947Z</time></trkpt><trkpt lat="40.0211763" lon="18.1517746"><ele>107.0</ele><time>2026-03-29T11:14:42.947Z</time></trkpt><trkpt lat="40.0210831" lon="18.1516669"><ele>106.99999999999999</ele><time>2026-03-29T11:14:44.947Z</time></trkpt><trkpt lat="40.0210383" lon="18.1516055"><ele>107.0</ele><time>2026-03-29T11:14:45.947Z</time></trkpt><trkpt lat="40.0209913" lon="18.1515438"><ele>107.0</ele><time>2026-03-29T11:14:46.948Z</time></trkpt><trkpt lat="40.0209185" lon="18.1514379"><ele>107.0</ele><time>2026-03-29T11:14:48.947Z</time></trkpt><trkpt lat="40.0208635" lon="18.1513528"><ele>106.99999999999999</ele><time>2026-03-29T11:14:51.947Z</time></trkpt><trkpt lat="40.0208209" lon="18.1512891"><ele>107.0</ele><time>2026-03-29T11:14:53.948Z</time></trkpt><trkpt lat="40.0207614" lon="18.1511994"><ele>106.6</ele><time>2026-03-29T11:14:55.947Z</time></trkpt><trkpt lat="40.0207304" lon="18.1510667"><ele>106.19999999999999</ele><time>2026-03-29T11:14:57.947Z</time></trkpt><trkpt lat="40.0207787" lon="18.1509254"><ele>105.8</ele><time>2026-03-29T11:14:59.947Z</time></trkpt><trkpt lat="40.0208315" lon="18.1508789"><ele>105.4</ele><time>2026-03-29T11:15:00.947Z</time></trkpt><trkpt lat="40.0209286" lon="18.1508034"><ele>105.0</ele><time>2026-03-29T11:15:02.947Z</time></trkpt><trkpt lat="40.0210201" lon="18.1506973"><ele>104.25</ele><time>2026-03-29T11:15:04.948Z</time></trkpt><trkpt lat="40.0210986" lon="18.1505626"><ele>103.5</ele><time>2026-03-29T11:15:06.948Z</time></trkpt><trkpt lat="40.0211115" lon="18.1504053"><ele>102.75</ele><time>2026-03-29T11:15:08.947Z</time></trkpt><trkpt lat="40.0211303" lon="18.1502516"><ele>102.0</ele><time>2026-03-29T11:15:10.948Z</time></trkpt><trkpt lat="40.0212234" lon="18.1501488"><ele>102.0</ele><time>2026-03-29T11:15:12.947Z</time></trkpt><trkpt lat="40.0212799" lon="18.1501049"><ele>102.0</ele><time>2026-03-29T11:15:13.947Z</time></trkpt><trkpt lat="40.0213375" lon="18.1500631"><ele>102.0</ele><time>2026-03-29T11:15:14.947Z</time></trkpt><trkpt lat="40.0213907" lon="18.1500187"><ele>102.0</ele><time>2026-03-29T11:15:15.948Z</time></trkpt><trkpt lat="40.0214475" lon="18.14997"><ele>102.0</ele><time>2026-03-29T11:15:16.948Z</time></trkpt><trkpt lat="40.021528" lon="18.1498524"><ele>102.0</ele><time>2026-03-29T11:15:18.948Z</time></trkpt><trkpt lat="40.0216013" lon="18.1497257"><ele>102.8</ele><time>2026-03-29T11:15:20.948Z</time></trkpt><trkpt lat="40.0217005" lon="18.1496373"><ele>103.6</ele><time>2026-03-29T11:15:22.947Z</time></trkpt><trkpt lat="40.0218119" lon="18.1495653"><ele>104.39999999999999</ele><time>2026-03-29T11:15:24.947Z</time></trkpt><trkpt lat="40.0218679" lon="18.149525"><ele>105.19999999999999</ele><time>2026-03-29T11:15:25.948Z</time></trkpt><trkpt lat="40.0219724" lon="18.1494408"><ele>106.0</ele><time>2026-03-29T11:15:27.947Z</time></trkpt><trkpt lat="40.022025" lon="18.149391"><ele>106.0</ele><time>2026-03-29T11:15:28.947Z</time></trkpt><trkpt lat="40.0220795" lon="18.1493321"><ele>106.0</ele><time>2026-03-29T11:15:29.947Z</time></trkpt><trkpt lat="40.0221622" lon="18.1492293"><ele>106.0</ele><time>2026-03-29T11:15:31.948Z</time></trkpt><trkpt lat="40.0222506" lon="18.1491223"><ele>106.0</ele><time>2026-03-29T11:15:33.949Z</time></trkpt><trkpt lat="40.022335" lon="18.1490191"><ele>106.0</ele><time>2026-03-29T11:15:35.948Z</time></trkpt><trkpt lat="40.022388" lon="18.1489647"><ele>106.0</ele><time>2026-03-29T11:15:36.948Z</time></trkpt><trkpt lat="40.0224399" lon="18.1489141"><ele>106.0</ele><time>2026-03-29T11:15:37.949Z</time></trkpt><trkpt lat="40.0224913" lon="18.1488603"><ele>106.0</ele><time>2026-03-29T11:15:38.949Z</time></trkpt><trkpt lat="40.0225895" lon="18.1487679"><ele>106.0</ele><time>2026-03-29T11:15:40.948Z</time></trkpt><trkpt lat="40.0226781" lon="18.148681"><ele>106.0</ele><time>2026-03-29T11:15:42.949Z</time></trkpt><trkpt lat="40.022773" lon="18.1485821"><ele>106.0</ele><time>2026-03-29T11:15:44.948Z</time></trkpt><trkpt lat="40.0228686" lon="18.1484812"><ele>106.0</ele><time>2026-03-29T11:15:46.948Z</time></trkpt><trkpt lat="40.0229633" lon="18.1483786"><ele>106.0</ele><time>2026-03-29T11:15:48.948Z</time></trkpt><trkpt lat="40.0230144" lon="18.1483278"><ele>106.0</ele><time>2026-03-29T11:15:49.948Z</time></trkpt><trkpt lat="40.0231078" lon="18.148228"><ele>106.0</ele><time>2026-03-29T11:15:51.948Z</time></trkpt><trkpt lat="40.0232044" lon="18.1481315"><ele>105.75</ele><time>2026-03-29T11:15:53.948Z</time></trkpt><trkpt lat="40.023301" lon="18.1480276"><ele>105.5</ele><time>2026-03-29T11:15:55.949Z</time></trkpt><trkpt lat="40.0233634" lon="18.1479095"><ele>105.25</ele><time>2026-03-29T11:15:57.948Z</time></trkpt><trkpt lat="40.0234068" lon="18.1477656"><ele>105.0</ele><time>2026-03-29T11:15:59.948Z</time></trkpt><trkpt lat="40.0234469" lon="18.1476303"><ele>106.0</ele><time>2026-03-29T11:16:01.948Z</time></trkpt><trkpt lat="40.0234808" lon="18.1475033"><ele>107.0</ele><time>2026-03-29T11:16:03.948Z</time></trkpt><trkpt lat="40.023526" lon="18.1473926"><ele>108.0</ele><time>2026-03-29T11:16:05.948Z</time></trkpt><trkpt lat="40.0235923" lon="18.1472849"><ele>109.0</ele><time>2026-03-29T11:16:07.948Z</time></trkpt><trkpt lat="40.0236431" lon="18.147162"><ele>110.0</ele><time>2026-03-29T11:16:09.948Z</time></trkpt><trkpt lat="40.0236893" lon="18.1470347"><ele>110.25</ele><time>2026-03-29T11:16:11.949Z</time></trkpt><trkpt lat="40.023736" lon="18.1469029"><ele>110.5</ele><time>2026-03-29T11:16:13.948Z</time></trkpt><trkpt lat="40.0237894" lon="18.1467741"><ele>110.75</ele><time>2026-03-29T11:16:15.948Z</time></trkpt><trkpt lat="40.0238427" lon="18.1466392"><ele>111.0</ele><time>2026-03-29T11:16:17.948Z</time></trkpt><trkpt lat="40.023907" lon="18.146515"><ele>111.0</ele><time>2026-03-29T11:16:19.949Z</time></trkpt><trkpt lat="40.0239693" lon="18.1463899"><ele>111.0</ele><time>2026-03-29T11:16:21.948Z</time></trkpt><trkpt lat="40.02401" lon="18.146269"><ele>111.0</ele><time>2026-03-29T11:16:23.949Z</time></trkpt><trkpt lat="40.024048" lon="18.1461653"><ele>111.0</ele><time>2026-03-29T11:16:25.948Z</time></trkpt><trkpt lat="40.0240739" lon="18.146079"><ele>111.0</ele><time>2026-03-29T11:16:27.948Z</time></trkpt><trkpt lat="40.0240202" lon="18.1460026"><ele>111.0</ele><time>2026-03-29T11:16:29.949Z</time></trkpt><trkpt lat="40.0239303" lon="18.1460012"><ele>111.0</ele><time>2026-03-29T11:16:31.949Z</time></trkpt><trkpt lat="40.0238279" lon="18.1460022"><ele>111.0</ele><time>2026-03-29T11:16:33.949Z</time></trkpt><trkpt lat="40.0237068" lon="18.1459638"><ele>111.0</ele><time>2026-03-29T11:16:35.948Z</time></trkpt><trkpt lat="40.023643" lon="18.1459326"><ele>111.0</ele><time>2026-03-29T11:16:36.948Z</time></trkpt><trkpt lat="40.0235847" lon="18.1458966"><ele>111.0</ele><time>2026-03-29T11:16:37.948Z</time></trkpt><trkpt lat="40.0235289" lon="18.1458542"><ele>111.0</ele><time>2026-03-29T11:16:38.948Z</time></trkpt><trkpt lat="40.023476" lon="18.1458085"><ele>111.0</ele><time>2026-03-29T11:16:39.948Z</time></trkpt><trkpt lat="40.0234224" lon="18.145754"><ele>111.0</ele><time>2026-03-29T11:16:40.949Z</time></trkpt><trkpt lat="40.0233696" lon="18.145698"><ele>111.0</ele><time>2026-03-29T11:16:41.949Z</time></trkpt><trkpt lat="40.0233225" lon="18.1456349"><ele>111.0</ele><time>2026-03-29T11:16:42.949Z</time></trkpt><trkpt lat="40.0232684" lon="18.1455629"><ele>111.0</ele><time>2026-03-29T11:16:43.949Z</time></trkpt><trkpt lat="40.023224" lon="18.1454834"><ele>111.6</ele><time>2026-03-29T11:16:44.949Z</time></trkpt><trkpt lat="40.0231862" lon="18.1454087"><ele>112.19999999999999</ele><time>2026-03-29T11:16:45.949Z</time></trkpt><trkpt lat="40.0231459" lon="18.1452773"><ele>112.80000000000001</ele><time>2026-03-29T11:16:47.949Z</time></trkpt><trkpt lat="40.0231019" lon="18.1451556"><ele>113.4</ele><time>2026-03-29T11:16:49.95Z</time></trkpt><trkpt lat="40.0230564" lon="18.1450392"><ele>114.0</ele><time>2026-03-29T11:16:51.95Z</time></trkpt><trkpt lat="40.0230137" lon="18.1449191"><ele>114.6</ele><time>2026-03-29T11:16:53.949Z</time></trkpt><trkpt lat="40.0229763" lon="18.1447856"><ele>115.2</ele><time>2026-03-29T11:16:55.949Z</time></trkpt><trkpt lat="40.0229351" lon="18.1446705"><ele>115.79999999999998</ele><time>2026-03-29T11:16:57.949Z</time></trkpt><trkpt lat="40.0228809" lon="18.1445716"><ele>116.39999999999999</ele><time>2026-03-29T11:16:59.949Z</time></trkpt><trkpt lat="40.0228317" lon="18.1444698"><ele>117.0</ele><time>2026-03-29T11:17:01.949Z</time></trkpt><trkpt lat="40.0227903" lon="18.1443767"><ele>117.0</ele><time>2026-03-29T11:17:03.95Z</time></trkpt><trkpt lat="40.0227394" lon="18.1442752"><ele>117.0</ele><time>2026-03-29T11:17:05.95Z</time></trkpt><trkpt lat="40.0227075" lon="18.1441744"><ele>117.0</ele><time>2026-03-29T11:17:07.949Z</time></trkpt><trkpt lat="40.0226721" lon="18.1440813"><ele>117.0</ele><time>2026-03-29T11:17:09.949Z</time></trkpt><trkpt lat="40.0226281" lon="18.1439865"><ele>117.0</ele><time>2026-03-29T11:17:11.95Z</time></trkpt><trkpt lat="40.0225835" lon="18.1438946"><ele>117.0</ele><time>2026-03-29T11:17:13.949Z</time></trkpt><trkpt lat="40.0225434" lon="18.1437958"><ele>117.16666666666667</ele><time>2026-03-29T11:17:15.949Z</time></trkpt><trkpt lat="40.0225143" lon="18.1437045"><ele>117.33333333333334</ele><time>2026-03-29T11:17:17.95Z</time></trkpt><trkpt lat="40.022476" lon="18.1436156"><ele>117.5</ele><time>2026-03-29T11:17:19.949Z</time></trkpt><trkpt lat="40.0224486" lon="18.1435215"><ele>117.66666666666667</ele><time>2026-03-29T11:17:21.95Z</time></trkpt><trkpt lat="40.0224584" lon="18.1434224"><ele>117.83333333333334</ele><time>2026-03-29T11:17:23.95Z</time></trkpt><trkpt lat="40.0224716" lon="18.143326"><ele>118.0</ele><time>2026-03-29T11:17:25.949Z</time></trkpt><trkpt lat="40.0224637" lon="18.143233"><ele>117.33333333333334</ele><time>2026-03-29T11:17:27.949Z</time></trkpt><trkpt lat="40.0224531" lon="18.1431463"><ele>116.66666666666667</ele><time>2026-03-29T11:17:29.95Z</time></trkpt><trkpt lat="40.0224458" lon="18.1430628"><ele>116.0</ele><time>2026-03-29T11:17:31.95Z</time></trkpt><trkpt lat="40.0224283" lon="18.1429362"><ele>115.33333333333334</ele><time>2026-03-29T11:17:34.95Z</time></trkpt><trkpt lat="40.0224099" lon="18.1428222"><ele>114.66666666666667</ele><time>2026-03-29T11:17:37.949Z</time></trkpt><trkpt lat="40.0223954" lon="18.1427334"><ele>114.0</ele><time>2026-03-29T11:17:39.95Z</time></trkpt><trkpt lat="40.0223768" lon="18.1426211"><ele>114.0</ele><time>2026-03-29T11:17:42.949Z</time></trkpt><trkpt lat="40.0223632" lon="18.1425277"><ele>114.0</ele><time>2026-03-29T11:17:44.95Z</time></trkpt><trkpt lat="40.0223554" lon="18.1424282"><ele>114.0</ele><time>2026-03-29T11:17:46.949Z</time></trkpt><trkpt lat="40.0223957" lon="18.1423368"><ele>114.0</ele><time>2026-03-29T11:17:48.95Z</time></trkpt><trkpt lat="40.0224437" lon="18.142277"><ele>114.0</ele><time>2026-03-29T11:17:50.95Z</time></trkpt><trkpt lat="40.0224939" lon="18.1421772"><ele>114.0</ele><time>2026-03-29T11:17:53.95Z</time></trkpt><trkpt lat="40.0225147" lon="18.1420638"><ele>114.14285714285714</ele><time>2026-03-29T11:17:56.95Z</time></trkpt><trkpt lat="40.0225321" lon="18.1419727"><ele>114.28571428571428</ele><time>2026-03-29T11:17:58.95Z</time></trkpt><trkpt lat="40.0225637" lon="18.141896"><ele>114.42857142857142</ele><time>2026-03-29T11:18:00.95Z</time></trkpt><trkpt lat="40.0226007" lon="18.1418108"><ele>114.57142857142856</ele><time>2026-03-29T11:18:02.95Z</time></trkpt><trkpt lat="40.0226366" lon="18.1417324"><ele>114.71428571428571</ele><time>2026-03-29T11:18:04.95Z</time></trkpt><trkpt lat="40.022682" lon="18.14165"><ele>114.85714285714283</ele><time>2026-03-29T11:18:06.95Z</time></trkpt><trkpt lat="40.0227155" lon="18.1415673"><ele>114.99999999999999</ele><time>2026-03-29T11:18:08.95Z</time></trkpt><trkpt lat="40.0227664" lon="18.1414788"><ele>113.66666666666667</ele><time>2026-03-29T11:18:10.95Z</time></trkpt><trkpt lat="40.0228077" lon="18.1413921"><ele>112.33333333333334</ele><time>2026-03-29T11:18:12.95Z</time></trkpt><trkpt lat="40.0228467" lon="18.1413196"><ele>111.0</ele><time>2026-03-29T11:18:14.95Z</time></trkpt><trkpt lat="40.0228906" lon="18.1412362"><ele>109.66666666666666</ele><time>2026-03-29T11:18:16.951Z</time></trkpt><trkpt lat="40.0229436" lon="18.1411437"><ele>108.33333333333333</ele><time>2026-03-29T11:18:18.95Z</time></trkpt><trkpt lat="40.0229994" lon="18.1410568"><ele>107.0</ele><time>2026-03-29T11:18:20.951Z</time></trkpt><trkpt lat="40.0230677" lon="18.1409805"><ele>107.0</ele><time>2026-03-29T11:18:22.95Z</time></trkpt><trkpt lat="40.0231548" lon="18.1409144"><ele>107.0</ele><time>2026-03-29T11:18:24.951Z</time></trkpt><trkpt lat="40.0232548" lon="18.1408481"><ele>107.0</ele><time>2026-03-29T11:18:26.95Z</time></trkpt><trkpt lat="40.0233618" lon="18.1407891"><ele>107.0</ele><time>2026-03-29T11:18:28.95Z</time></trkpt><trkpt lat="40.0234745" lon="18.1407252"><ele>106.71428571428572</ele><time>2026-03-29T11:18:30.95Z</time></trkpt><trkpt lat="40.0235345" lon="18.1406925"><ele>106.42857142857143</ele><time>2026-03-29T11:18:31.95Z</time></trkpt><trkpt lat="40.0235913" lon="18.1406553"><ele>106.14285714285714</ele><time>2026-03-29T11:18:32.951Z</time></trkpt><trkpt lat="40.0236477" lon="18.1406162"><ele>105.85714285714286</ele><time>2026-03-29T11:18:33.951Z</time></trkpt><trkpt lat="40.0237088" lon="18.1405805"><ele>105.57142857142857</ele><time>2026-03-29T11:18:34.95Z</time></trkpt><trkpt lat="40.0237742" lon="18.1405423"><ele>105.28571428571429</ele><time>2026-03-29T11:18:35.95Z</time></trkpt><trkpt lat="40.023844" lon="18.1405085"><ele>105.0</ele><time>2026-03-29T11:18:36.951Z</time></trkpt><trkpt lat="40.0239165" lon="18.1404747"><ele>105.0</ele><time>2026-03-29T11:18:37.95Z</time></trkpt><trkpt lat="40.0239836" lon="18.140435"><ele>105.0</ele><time>2026-03-29T11:18:38.95Z</time></trkpt><trkpt lat="40.024051" lon="18.1403996"><ele>105.0</ele><time>2026-03-29T11:18:39.951Z</time></trkpt><trkpt lat="40.0241236" lon="18.1403674"><ele>105.0</ele><time>2026-03-29T11:18:40.95Z</time></trkpt><trkpt lat="40.0241827" lon="18.1403371"><ele>105.0</ele><time>2026-03-29T11:18:41.95Z</time></trkpt><trkpt lat="40.0242618" lon="18.1403042"><ele>105.0</ele><time>2026-03-29T11:18:42.95Z</time></trkpt><trkpt lat="40.0243433" lon="18.1402755"><ele>105.0</ele><time>2026-03-29T11:18:43.95Z</time></trkpt><trkpt lat="40.0244135" lon="18.1402363"><ele>105.0</ele><time>2026-03-29T11:18:44.951Z</time></trkpt><trkpt lat="40.0244844" lon="18.1401918"><ele>105.0</ele><time>2026-03-29T11:18:45.95Z</time></trkpt><trkpt lat="40.0245575" lon="18.1401423"><ele>105.0</ele><time>2026-03-29T11:18:46.951Z</time></trkpt><trkpt lat="40.0246213" lon="18.140091"><ele>105.0</ele><time>2026-03-29T11:18:47.951Z</time></trkpt><trkpt lat="40.0246888" lon="18.1400462"><ele>105.0</ele><time>2026-03-29T11:18:48.95Z</time></trkpt><trkpt lat="40.0247578" lon="18.1400035"><ele>105.0</ele><time>2026-03-29T11:18:49.951Z</time></trkpt><trkpt lat="40.0248408" lon="18.1399595"><ele>105.0</ele><time>2026-03-29T11:18:50.951Z</time></trkpt><trkpt lat="40.0249107" lon="18.1399215"><ele>105.0</ele><time>2026-03-29T11:18:51.95Z</time></trkpt><trkpt lat="40.0249836" lon="18.1398851"><ele>105.0</ele><time>2026-03-29T11:18:52.95Z</time></trkpt><trkpt lat="40.0250568" lon="18.1398397"><ele>105.0</ele><time>2026-03-29T11:18:53.95Z</time></trkpt><trkpt lat="40.0251359" lon="18.1398"><ele>105.0</ele><time>2026-03-29T11:18:54.95Z</time></trkpt><trkpt lat="40.0252103" lon="18.1397593"><ele>102.8</ele><time>2026-03-29T11:18:55.95Z</time></trkpt><trkpt lat="40.0252704" lon="18.1397175"><ele>100.6</ele><time>2026-03-29T11:18:56.95Z</time></trkpt><trkpt lat="40.0253742" lon="18.1396662"><ele>98.4</ele><time>2026-03-29T11:18:58.95Z</time></trkpt><trkpt lat="40.0254798" lon="18.1396145"><ele>96.2</ele><time>2026-03-29T11:19:00.951Z</time></trkpt><trkpt lat="40.0255925" lon="18.1395494"><ele>94.0</ele><time>2026-03-29T11:19:02.95Z</time></trkpt><trkpt lat="40.0257153" lon="18.1394891"><ele>94.0</ele><time>2026-03-29T11:19:04.95Z</time></trkpt><trkpt lat="40.0257821" lon="18.1394622"><ele>94.0</ele><time>2026-03-29T11:19:05.951Z</time></trkpt><trkpt lat="40.0258435" lon="18.1394247"><ele>94.0</ele><time>2026-03-29T11:19:06.951Z</time></trkpt><trkpt lat="40.0259066" lon="18.1393896"><ele>94.0</ele><time>2026-03-29T11:19:07.951Z</time></trkpt><trkpt lat="40.0259669" lon="18.1393541"><ele>94.0</ele><time>2026-03-29T11:19:08.951Z</time></trkpt><trkpt lat="40.0260385" lon="18.1393171"><ele>94.0</ele><time>2026-03-29T11:19:09.951Z</time></trkpt><trkpt lat="40.0261003" lon="18.1392818"><ele>94.0</ele><time>2026-03-29T11:19:10.952Z</time></trkpt><trkpt lat="40.0262195" lon="18.1392301"><ele>93.85714285714286</ele><time>2026-03-29T11:19:12.952Z</time></trkpt><trkpt lat="40.0262832" lon="18.1391967"><ele>93.71428571428571</ele><time>2026-03-29T11:19:13.951Z</time></trkpt><trkpt lat="40.0263477" lon="18.1391644"><ele>93.57142857142858</ele><time>2026-03-29T11:19:14.952Z</time></trkpt><trkpt lat="40.0264171" lon="18.1391311"><ele>93.42857142857143</ele><time>2026-03-29T11:19:15.952Z</time></trkpt><trkpt lat="40.026486" lon="18.1390947"><ele>93.28571428571429</ele><time>2026-03-29T11:19:16.951Z</time></trkpt><trkpt lat="40.0265539" lon="18.1390529"><ele>93.14285714285715</ele><time>2026-03-29T11:19:17.952Z</time></trkpt><trkpt lat="40.0266215" lon="18.139014"><ele>93.0</ele><time>2026-03-29T11:19:18.952Z</time></trkpt><trkpt lat="40.0266823" lon="18.1389759"><ele>92.14285714285715</ele><time>2026-03-29T11:19:19.951Z</time></trkpt><trkpt lat="40.0267472" lon="18.1389392"><ele>91.28571428571429</ele><time>2026-03-29T11:19:20.951Z</time></trkpt><trkpt lat="40.0268139" lon="18.1389018"><ele>90.42857142857143</ele><time>2026-03-29T11:19:21.951Z</time></trkpt><trkpt lat="40.0268841" lon="18.1388645"><ele>89.57142857142858</ele><time>2026-03-29T11:19:22.951Z</time></trkpt><trkpt lat="40.0269533" lon="18.1388283"><ele>88.71428571428572</ele><time>2026-03-29T11:19:23.951Z</time></trkpt><trkpt lat="40.0270207" lon="18.1387995"><ele>87.85714285714286</ele><time>2026-03-29T11:19:24.951Z</time></trkpt><trkpt lat="40.0270892" lon="18.1387745"><ele>87.0</ele><time>2026-03-29T11:19:25.951Z</time></trkpt><trkpt lat="40.0271562" lon="18.1387597"><ele>87.0</ele><time>2026-03-29T11:19:26.952Z</time></trkpt><trkpt lat="40.0272276" lon="18.1387375"><ele>87.0</ele><time>2026-03-29T11:19:27.952Z</time></trkpt><trkpt lat="40.0272988" lon="18.1387176"><ele>87.0</ele><time>2026-03-29T11:19:28.952Z</time></trkpt><trkpt lat="40.0273691" lon="18.1387039"><ele>87.0</ele><time>2026-03-29T11:19:29.951Z</time></trkpt><trkpt lat="40.0274417" lon="18.1386864"><ele>87.0</ele><time>2026-03-29T11:19:30.951Z</time></trkpt><trkpt lat="40.027507" lon="18.1386756"><ele>87.0</ele><time>2026-03-29T11:19:31.952Z</time></trkpt><trkpt lat="40.0276229" lon="18.1386492"><ele>87.0</ele><time>2026-03-29T11:19:33.951Z</time></trkpt><trkpt lat="40.0276951" lon="18.1386499"><ele>87.0</ele><time>2026-03-29T11:19:34.951Z</time></trkpt><trkpt lat="40.0278129" lon="18.1386263"><ele>87.0</ele><time>2026-03-29T11:19:36.952Z</time></trkpt><trkpt lat="40.0279245" lon="18.1385732"><ele>87.0</ele><time>2026-03-29T11:19:38.952Z</time></trkpt><trkpt lat="40.0280453" lon="18.138517"><ele>87.0</ele><time>2026-03-29T11:19:40.951Z</time></trkpt><trkpt lat="40.0281624" lon="18.1384829"><ele>87.0</ele><time>2026-03-29T11:19:42.952Z</time></trkpt><trkpt lat="40.0282778" lon="18.138426"><ele>87.0</ele><time>2026-03-29T11:19:44.951Z</time></trkpt><trkpt lat="40.0283327" lon="18.1383683"><ele>87.0</ele><time>2026-03-29T11:19:45.952Z</time></trkpt><trkpt lat="40.0283816" lon="18.1383111"><ele>87.0</ele><time>2026-03-29T11:19:46.951Z</time></trkpt><trkpt lat="40.0285198" lon="18.1381341"><ele>86.83333333333333</ele><time>2026-03-29T11:19:49.951Z</time></trkpt><trkpt lat="40.0285652" lon="18.1380685"><ele>86.66666666666667</ele><time>2026-03-29T11:19:50.951Z</time></trkpt><trkpt lat="40.0286494" lon="18.1379387"><ele>86.5</ele><time>2026-03-29T11:19:52.952Z</time></trkpt><trkpt lat="40.0286903" lon="18.1378718"><ele>86.33333333333334</ele><time>2026-03-29T11:19:53.951Z</time></trkpt><trkpt lat="40.0287294" lon="18.1378032"><ele>86.16666666666667</ele><time>2026-03-29T11:19:54.951Z</time></trkpt><trkpt lat="40.0287626" lon="18.1377286"><ele>86.0</ele><time>2026-03-29T11:19:55.952Z</time></trkpt><trkpt lat="40.0287896" lon="18.13765"><ele>86.0</ele><time>2026-03-29T11:19:56.952Z</time></trkpt><trkpt lat="40.0288119" lon="18.1375672"><ele>86.0</ele><time>2026-03-29T11:19:57.951Z</time></trkpt><trkpt lat="40.0288397" lon="18.1374036"><ele>86.0</ele><time>2026-03-29T11:19:59.951Z</time></trkpt><trkpt lat="40.0288248" lon="18.1371991"><ele>86.0</ele><time>2026-03-29T11:20:01.951Z</time></trkpt><trkpt lat="40.0288109" lon="18.1370834"><ele>86.0</ele><time>2026-03-29T11:20:02.952Z</time></trkpt><trkpt lat="40.0288019" lon="18.1369808"><ele>85.14285714285715</ele><time>2026-03-29T11:20:03.951Z</time></trkpt><trkpt lat="40.0287882" lon="18.1368881"><ele>84.28571428571429</ele><time>2026-03-29T11:20:04.951Z</time></trkpt><trkpt lat="40.0287785" lon="18.1367936"><ele>83.42857142857143</ele><time>2026-03-29T11:20:05.952Z</time></trkpt><trkpt lat="40.0287735" lon="18.1367047"><ele>82.57142857142858</ele><time>2026-03-29T11:20:06.951Z</time></trkpt><trkpt lat="40.0287646" lon="18.1366067"><ele>81.71428571428572</ele><time>2026-03-29T11:20:07.951Z</time></trkpt><trkpt lat="40.0287648" lon="18.1365092"><ele>80.85714285714286</ele><time>2026-03-29T11:20:08.951Z</time></trkpt><trkpt lat="40.0287765" lon="18.1364197"><ele>80.0</ele><time>2026-03-29T11:20:09.951Z</time></trkpt><trkpt lat="40.0288335" lon="18.1362515"><ele>79.57142857142857</ele><time>2026-03-29T11:20:11.951Z</time></trkpt><trkpt lat="40.028871" lon="18.1361685"><ele>79.14285714285714</ele><time>2026-03-29T11:20:12.951Z</time></trkpt><trkpt lat="40.0289092" lon="18.1360918"><ele>78.71428571428572</ele><time>2026-03-29T11:20:13.951Z</time></trkpt><trkpt lat="40.0289469" lon="18.1360196"><ele>78.28571428571428</ele><time>2026-03-29T11:20:14.951Z</time></trkpt><trkpt lat="40.0289885" lon="18.1359518"><ele>77.85714285714286</ele><time>2026-03-29T11:20:15.951Z</time></trkpt><trkpt lat="40.0290287" lon="18.1358855"><ele>77.42857142857143</ele><time>2026-03-29T11:20:16.952Z</time></trkpt><trkpt lat="40.0290691" lon="18.135817"><ele>77.0</ele><time>2026-03-29T11:20:17.951Z</time></trkpt><trkpt lat="40.029107" lon="18.1357453"><ele>76.85714285714286</ele><time>2026-03-29T11:20:18.951Z</time></trkpt><trkpt lat="40.0291449" lon="18.1356725"><ele>76.71428571428572</ele><time>2026-03-29T11:20:19.952Z</time></trkpt><trkpt lat="40.0291857" lon="18.1356025"><ele>76.57142857142857</ele><time>2026-03-29T11:20:20.952Z</time></trkpt><trkpt lat="40.0292256" lon="18.1355301"><ele>76.42857142857143</ele><time>2026-03-29T11:20:21.952Z</time></trkpt><trkpt lat="40.0292649" lon="18.1354559"><ele>76.28571428571429</ele><time>2026-03-29T11:20:22.953Z</time></trkpt><trkpt lat="40.0293031" lon="18.1353816"><ele>76.14285714285714</ele><time>2026-03-29T11:20:23.952Z</time></trkpt><trkpt lat="40.0293407" lon="18.1353077"><ele>76.0</ele><time>2026-03-29T11:20:24.952Z</time></trkpt><trkpt lat="40.0293797" lon="18.1352351"><ele>76.0</ele><time>2026-03-29T11:20:25.952Z</time></trkpt><trkpt lat="40.0294221" lon="18.135164"><ele>76.0</ele><time>2026-03-29T11:20:26.952Z</time></trkpt><trkpt lat="40.0294641" lon="18.1350924"><ele>76.0</ele><time>2026-03-29T11:20:27.952Z</time></trkpt><trkpt lat="40.029505" lon="18.13502"><ele>76.0</ele><time>2026-03-29T11:20:28.953Z</time></trkpt><trkpt lat="40.0295478" lon="18.1349483"><ele>76.0</ele><time>2026-03-29T11:20:29.953Z</time></trkpt><trkpt lat="40.0295927" lon="18.1348747"><ele>76.0</ele><time>2026-03-29T11:20:30.952Z</time></trkpt><trkpt lat="40.0296336" lon="18.1347985"><ele>76.0</ele><time>2026-03-29T11:20:31.953Z</time></trkpt><trkpt lat="40.0296744" lon="18.1347239"><ele>75.0</ele><time>2026-03-29T11:20:32.953Z</time></trkpt><trkpt lat="40.0297103" lon="18.1346508"><ele>74.0</ele><time>2026-03-29T11:20:33.952Z</time></trkpt><trkpt lat="40.0297466" lon="18.1345833"><ele>73.0</ele><time>2026-03-29T11:20:34.952Z</time></trkpt><trkpt lat="40.0298175" lon="18.1344647"><ele>72.0</ele><time>2026-03-29T11:20:36.953Z</time></trkpt><trkpt lat="40.0298411" lon="18.1343609"><ele>71.0</ele><time>2026-03-29T11:20:38.952Z</time></trkpt><trkpt lat="40.0297974" lon="18.1342928"><ele>70.0</ele><time>2026-03-29T11:20:40.952Z</time></trkpt><trkpt lat="40.0296954" lon="18.1343079"><ele>70.0</ele><time>2026-03-29T11:20:43.953Z</time></trkpt><trkpt lat="40.029587" lon="18.1343887"><ele>70.0</ele><time>2026-03-29T11:20:45.953Z</time></trkpt><trkpt lat="40.0295028" lon="18.1344606"><ele>70.0</ele><time>2026-03-29T11:20:47.953Z</time></trkpt><trkpt lat="40.0294177" lon="18.1345118"><ele>70.0</ele><time>2026-03-29T11:20:49.953Z</time></trkpt><trkpt lat="40.0293226" lon="18.1345742"><ele>70.0</ele><time>2026-03-29T11:20:51.953Z</time></trkpt><trkpt lat="40.0292206" lon="18.1346546"><ele>70.0</ele><time>2026-03-29T11:20:53.952Z</time></trkpt><trkpt lat="40.0291223" lon="18.1347173"><ele>70.0</ele><time>2026-03-29T11:20:55.952Z</time></trkpt><trkpt lat="40.0290159" lon="18.1347813"><ele>70.0</ele><time>2026-03-29T11:20:57.953Z</time></trkpt><trkpt lat="40.028906" lon="18.1348407"><ele>70.0</ele><time>2026-03-29T11:20:59.952Z</time></trkpt><trkpt lat="40.0288495" lon="18.1348775"><ele>70.0</ele><time>2026-03-29T11:21:00.952Z</time></trkpt><trkpt lat="40.0287912" lon="18.1349132"><ele>70.0</ele><time>2026-03-29T11:21:01.952Z</time></trkpt><trkpt lat="40.0287343" lon="18.1349496"><ele>70.0</ele><time>2026-03-29T11:21:02.953Z</time></trkpt><trkpt lat="40.0286738" lon="18.1349879"><ele>70.0</ele><time>2026-03-29T11:21:03.952Z</time></trkpt><trkpt lat="40.0286129" lon="18.135022"><ele>70.0</ele><time>2026-03-29T11:21:04.952Z</time></trkpt><trkpt lat="40.0285547" lon="18.1350555"><ele>70.0</ele><time>2026-03-29T11:21:05.953Z</time></trkpt><trkpt lat="40.0284965" lon="18.1350906"><ele>70.0</ele><time>2026-03-29T11:21:06.953Z</time></trkpt><trkpt lat="40.0283856" lon="18.1351603"><ele>70.0</ele><time>2026-03-29T11:21:08.952Z</time></trkpt><trkpt lat="40.0282685" lon="18.1352199"><ele>69.5</ele><time>2026-03-29T11:21:10.953Z</time></trkpt><trkpt lat="40.0281524" lon="18.1352845"><ele>69.0</ele><time>2026-03-29T11:21:12.953Z</time></trkpt><trkpt lat="40.0280349" lon="18.1353378"><ele>68.5</ele><time>2026-03-29T11:21:14.953Z</time></trkpt><trkpt lat="40.0279743" lon="18.1353673"><ele>68.0</ele><time>2026-03-29T11:21:15.952Z</time></trkpt><trkpt lat="40.0279142" lon="18.1353995"><ele>67.5</ele><time>2026-03-29T11:21:16.953Z</time></trkpt><trkpt lat="40.0278528" lon="18.1354288"><ele>67.0</ele><time>2026-03-29T11:21:17.953Z</time></trkpt><trkpt lat="40.0277917" lon="18.1354586"><ele>67.0</ele><time>2026-03-29T11:21:18.952Z</time></trkpt><trkpt lat="40.0277314" lon="18.1354875"><ele>67.0</ele><time>2026-03-29T11:21:19.952Z</time></trkpt><trkpt lat="40.0276707" lon="18.1355193"><ele>67.0</ele><time>2026-03-29T11:21:20.952Z</time></trkpt><trkpt lat="40.0275538" lon="18.1355834"><ele>67.0</ele><time>2026-03-29T11:21:22.952Z</time></trkpt><trkpt lat="40.0274928" lon="18.1356136"><ele>67.0</ele><time>2026-03-29T11:21:23.952Z</time></trkpt><trkpt lat="40.0274307" lon="18.1356447"><ele>67.0</ele><time>2026-03-29T11:21:24.953Z</time></trkpt><trkpt lat="40.0273214" lon="18.135677"><ele>67.16666666666666</ele><time>2026-03-29T11:21:26.952Z</time></trkpt><trkpt lat="40.0272394" lon="18.1356806"><ele>67.33333333333333</ele><time>2026-03-29T11:21:28.952Z</time></trkpt><trkpt lat="40.0271802" lon="18.1357158"><ele>67.5</ele><time>2026-03-29T11:21:30.952Z</time></trkpt><trkpt lat="40.0270984" lon="18.1357468"><ele>67.66666666666667</ele><time>2026-03-29T11:21:33.954Z</time></trkpt><trkpt lat="40.0270301" lon="18.1357399"><ele>67.83333333333334</ele><time>2026-03-29T11:21:35.953Z</time></trkpt><trkpt lat="40.0269485" lon="18.1357446"><ele>68.0</ele><time>2026-03-29T11:21:37.953Z</time></trkpt><trkpt lat="40.0268667" lon="18.1357699"><ele>68.0</ele><time>2026-03-29T11:21:39.953Z</time></trkpt><trkpt lat="40.0267846" lon="18.1357941"><ele>68.0</ele><time>2026-03-29T11:21:41.954Z</time></trkpt><trkpt lat="40.0266974" lon="18.1358203"><ele>68.0</ele><time>2026-03-29T11:21:43.953Z</time></trkpt><trkpt lat="40.0265965" lon="18.135833"><ele>68.0</ele><time>2026-03-29T11:21:45.954Z</time></trkpt><trkpt lat="40.0264908" lon="18.1358356"><ele>68.0</ele><time>2026-03-29T11:21:47.953Z</time></trkpt><trkpt lat="40.0263735" lon="18.1358457"><ele>67.8</ele><time>2026-03-29T11:21:49.953Z</time></trkpt><trkpt lat="40.0262553" lon="18.1358502"><ele>67.6</ele><time>2026-03-29T11:21:51.953Z</time></trkpt><trkpt lat="40.0261404" lon="18.1358534"><ele>67.4</ele><time>2026-03-29T11:21:53.954Z</time></trkpt><trkpt lat="40.0260205" lon="18.1358697"><ele>67.2</ele><time>2026-03-29T11:21:55.953Z</time></trkpt><trkpt lat="40.0259546" lon="18.1358773"><ele>67.0</ele><time>2026-03-29T11:21:56.953Z</time></trkpt><trkpt lat="40.0258319" lon="18.1358735"><ele>66.66666666666666</ele><time>2026-03-29T11:21:58.953Z</time></trkpt><trkpt lat="40.0257689" lon="18.1358684"><ele>66.33333333333333</ele><time>2026-03-29T11:21:59.953Z</time></trkpt><trkpt lat="40.0257034" lon="18.1358656"><ele>66.0</ele><time>2026-03-29T11:22:00.953Z</time></trkpt><trkpt lat="40.0256379" lon="18.1358602"><ele>65.66666666666667</ele><time>2026-03-29T11:22:01.954Z</time></trkpt><trkpt lat="40.0255157" lon="18.1358442"><ele>65.33333333333334</ele><time>2026-03-29T11:22:03.954Z</time></trkpt><trkpt lat="40.0253913" lon="18.1358474"><ele>65.0</ele><time>2026-03-29T11:22:05.954Z</time></trkpt><trkpt lat="40.0253277" lon="18.135854"><ele>65.00000000000001</ele><time>2026-03-29T11:22:06.953Z</time></trkpt><trkpt lat="40.0252632" lon="18.1358599"><ele>65.0</ele><time>2026-03-29T11:22:07.953Z</time></trkpt><trkpt lat="40.0251975" lon="18.1358625"><ele>65.0</ele><time>2026-03-29T11:22:08.953Z</time></trkpt><trkpt lat="40.0251329" lon="18.135864"><ele>65.0</ele><time>2026-03-29T11:22:09.953Z</time></trkpt><trkpt lat="40.0250688" lon="18.1358673"><ele>65.0</ele><time>2026-03-29T11:22:10.953Z</time></trkpt><trkpt lat="40.0250037" lon="18.1358725"><ele>65.00000000000001</ele><time>2026-03-29T11:22:11.953Z</time></trkpt><trkpt lat="40.0249391" lon="18.1358797"><ele>65.0</ele><time>2026-03-29T11:22:12.953Z</time></trkpt><trkpt lat="40.0248744" lon="18.1358882"><ele>64.57142857142858</ele><time>2026-03-29T11:22:13.954Z</time></trkpt><trkpt lat="40.0248104" lon="18.1358968"><ele>64.14285714285714</ele><time>2026-03-29T11:22:14.953Z</time></trkpt><trkpt lat="40.0247471" lon="18.1359037"><ele>63.71428571428572</ele><time>2026-03-29T11:22:15.953Z</time></trkpt><trkpt lat="40.0246821" lon="18.1359116"><ele>63.28571428571429</ele><time>2026-03-29T11:22:16.953Z</time></trkpt><trkpt lat="40.024562" lon="18.1359315"><ele>62.85714285714286</ele><time>2026-03-29T11:22:18.954Z</time></trkpt><trkpt lat="40.0244978" lon="18.1359386"><ele>62.42857142857143</ele><time>2026-03-29T11:22:19.953Z</time></trkpt><trkpt lat="40.0244348" lon="18.1359506"><ele>62.0</ele><time>2026-03-29T11:22:20.953Z</time></trkpt><trkpt lat="40.0243723" lon="18.1359657"><ele>62.0</ele><time>2026-03-29T11:22:21.954Z</time></trkpt><trkpt lat="40.0243101" lon="18.1359807"><ele>62.00000000000001</ele><time>2026-03-29T11:22:22.953Z</time></trkpt><trkpt lat="40.0242462" lon="18.1359955"><ele>62.0</ele><time>2026-03-29T11:22:23.953Z</time></trkpt><trkpt lat="40.0241824" lon="18.1360131"><ele>62.0</ele><time>2026-03-29T11:22:24.953Z</time></trkpt><trkpt lat="40.0241182" lon="18.1360312"><ele>62.00000000000001</ele><time>2026-03-29T11:22:25.953Z</time></trkpt><trkpt lat="40.024055" lon="18.1360511"><ele>62.0</ele><time>2026-03-29T11:22:26.954Z</time></trkpt><trkpt lat="40.0239482" lon="18.1360713"><ele>62.0</ele><time>2026-03-29T11:22:28.953Z</time></trkpt><trkpt lat="40.0238701" lon="18.136097"><ele>61.400000000000006</ele><time>2026-03-29T11:22:30.953Z</time></trkpt><trkpt lat="40.0237868" lon="18.1361135"><ele>60.800000000000004</ele><time>2026-03-29T11:22:32.953Z</time></trkpt><trkpt lat="40.0236977" lon="18.1361364"><ele>60.2</ele><time>2026-03-29T11:22:34.953Z</time></trkpt><trkpt lat="40.0236046" lon="18.1361684"><ele>59.6</ele><time>2026-03-29T11:22:36.953Z</time></trkpt><trkpt lat="40.0235021" lon="18.1361924"><ele>59.0</ele><time>2026-03-29T11:22:38.953Z</time></trkpt><trkpt lat="40.0233938" lon="18.1362199"><ele>59.16666666666667</ele><time>2026-03-29T11:22:40.954Z</time></trkpt><trkpt lat="40.0232814" lon="18.1362391"><ele>59.333333333333336</ele><time>2026-03-29T11:22:42.954Z</time></trkpt><trkpt lat="40.0231621" lon="18.1362604"><ele>59.5</ele><time>2026-03-29T11:22:44.955Z</time></trkpt><trkpt lat="40.0230966" lon="18.1362732"><ele>59.66666666666667</ele><time>2026-03-29T11:22:45.954Z</time></trkpt><trkpt lat="40.023034" lon="18.1362864"><ele>59.833333333333336</ele><time>2026-03-29T11:22:46.954Z</time></trkpt><trkpt lat="40.0229705" lon="18.1363005"><ele>60.0</ele><time>2026-03-29T11:22:47.954Z</time></trkpt><trkpt lat="40.0229063" lon="18.1363137"><ele>60.0</ele><time>2026-03-29T11:22:48.954Z</time></trkpt><trkpt lat="40.0228386" lon="18.1363231"><ele>60.0</ele><time>2026-03-29T11:22:49.954Z</time></trkpt><trkpt lat="40.0227731" lon="18.1363306"><ele>60.0</ele><time>2026-03-29T11:22:50.954Z</time></trkpt><trkpt lat="40.022707" lon="18.1363364"><ele>60.0</ele><time>2026-03-29T11:22:51.955Z</time></trkpt><trkpt lat="40.0226415" lon="18.1363446"><ele>60.0</ele><time>2026-03-29T11:22:52.954Z</time></trkpt><trkpt lat="40.0225742" lon="18.1363554"><ele>60.0</ele><time>2026-03-29T11:22:53.954Z</time></trkpt><trkpt lat="40.0225104" lon="18.1363754"><ele>60.0</ele><time>2026-03-29T11:22:54.954Z</time></trkpt><trkpt lat="40.0224431" lon="18.1363874"><ele>59.85714285714286</ele><time>2026-03-29T11:22:55.954Z</time></trkpt><trkpt lat="40.0223787" lon="18.1363981"><ele>59.71428571428571</ele><time>2026-03-29T11:22:56.954Z</time></trkpt><trkpt lat="40.0223093" lon="18.1364182"><ele>59.57142857142857</ele><time>2026-03-29T11:22:57.954Z</time></trkpt><trkpt lat="40.022238" lon="18.1364441"><ele>59.42857142857143</ele><time>2026-03-29T11:22:58.954Z</time></trkpt><trkpt lat="40.0221696" lon="18.1364576"><ele>59.28571428571429</ele><time>2026-03-29T11:22:59.955Z</time></trkpt><trkpt lat="40.0221014" lon="18.1364712"><ele>59.14285714285714</ele><time>2026-03-29T11:23:00.955Z</time></trkpt><trkpt lat="40.0220358" lon="18.1364865"><ele>59.0</ele><time>2026-03-29T11:23:01.955Z</time></trkpt><trkpt lat="40.0219671" lon="18.1365008"><ele>59.00000000000001</ele><time>2026-03-29T11:23:02.955Z</time></trkpt><trkpt lat="40.021896" lon="18.1365122"><ele>59.0</ele><time>2026-03-29T11:23:03.955Z</time></trkpt><trkpt lat="40.021831" lon="18.1365258"><ele>59.0</ele><time>2026-03-29T11:23:04.954Z</time></trkpt><trkpt lat="40.0217663" lon="18.1365369"><ele>59.0</ele><time>2026-03-29T11:23:05.954Z</time></trkpt><trkpt lat="40.0217004" lon="18.136541"><ele>59.00000000000001</ele><time>2026-03-29T11:23:06.954Z</time></trkpt><trkpt lat="40.0215721" lon="18.1365529"><ele>59.0</ele><time>2026-03-29T11:23:08.955Z</time></trkpt><trkpt lat="40.0215064" lon="18.1365565"><ele>59.285714285714285</ele><time>2026-03-29T11:23:09.954Z</time></trkpt><trkpt lat="40.0214403" lon="18.1365599"><ele>59.57142857142857</ele><time>2026-03-29T11:23:10.954Z</time></trkpt><trkpt lat="40.0213714" lon="18.1365685"><ele>59.857142857142854</ele><time>2026-03-29T11:23:11.954Z</time></trkpt><trkpt lat="40.0213038" lon="18.1365902"><ele>60.14285714285714</ele><time>2026-03-29T11:23:12.955Z</time></trkpt><trkpt lat="40.0212398" lon="18.1366134"><ele>60.42857142857143</ele><time>2026-03-29T11:23:13.954Z</time></trkpt><trkpt lat="40.0211749" lon="18.1366288"><ele>60.71428571428571</ele><time>2026-03-29T11:23:14.955Z</time></trkpt><trkpt lat="40.0211078" lon="18.1366396"><ele>60.99999999999999</ele><time>2026-03-29T11:23:15.954Z</time></trkpt><trkpt lat="40.0210402" lon="18.1366541"><ele>61.0</ele><time>2026-03-29T11:23:16.954Z</time></trkpt><trkpt lat="40.0209644" lon="18.1366767"><ele>60.99999999999999</ele><time>2026-03-29T11:23:17.954Z</time></trkpt><trkpt lat="40.0208887" lon="18.1367067"><ele>60.99999999999999</ele><time>2026-03-29T11:23:18.954Z</time></trkpt><trkpt lat="40.0208212" lon="18.1367455"><ele>61.0</ele><time>2026-03-29T11:23:19.954Z</time></trkpt><trkpt lat="40.0207278" lon="18.1368439"><ele>61.0</ele><time>2026-03-29T11:23:21.954Z</time></trkpt><trkpt lat="40.0206253" lon="18.1369434"><ele>60.85714285714285</ele><time>2026-03-29T11:23:23.955Z</time></trkpt><trkpt lat="40.0205647" lon="18.1370022"><ele>60.71428571428571</ele><time>2026-03-29T11:23:24.954Z</time></trkpt><trkpt lat="40.0205065" lon="18.1370558"><ele>60.57142857142857</ele><time>2026-03-29T11:23:25.955Z</time></trkpt><trkpt lat="40.0204483" lon="18.137107"><ele>60.42857142857142</ele><time>2026-03-29T11:23:26.956Z</time></trkpt><trkpt lat="40.0203878" lon="18.1371603"><ele>60.28571428571428</ele><time>2026-03-29T11:23:27.955Z</time></trkpt><trkpt lat="40.0203333" lon="18.1372105"><ele>60.142857142857146</ele><time>2026-03-29T11:23:28.954Z</time></trkpt><trkpt lat="40.020284" lon="18.1372632"><ele>60.0</ele><time>2026-03-29T11:23:29.954Z</time></trkpt><trkpt lat="40.0201971" lon="18.1373669"><ele>60.0</ele><time>2026-03-29T11:23:31.955Z</time></trkpt><trkpt lat="40.0200855" lon="18.1374133"><ele>60.0</ele><time>2026-03-29T11:23:33.955Z</time></trkpt><trkpt lat="40.0200188" lon="18.1373831"><ele>60.0</ele><time>2026-03-29T11:23:34.954Z</time></trkpt><trkpt lat="40.0199641" lon="18.1373178"><ele>60.0</ele><time>2026-03-29T11:23:35.955Z</time></trkpt><trkpt lat="40.0198839" lon="18.1371476"><ele>60.0</ele><time>2026-03-29T11:23:37.954Z</time></trkpt><trkpt lat="40.0198161" lon="18.1371312"><ele>59.85714285714286</ele><time>2026-03-29T11:23:38.954Z</time></trkpt><trkpt lat="40.019747" lon="18.1371403"><ele>59.71428571428571</ele><time>2026-03-29T11:23:39.954Z</time></trkpt><trkpt lat="40.0196789" lon="18.137162"><ele>59.57142857142857</ele><time>2026-03-29T11:23:40.954Z</time></trkpt><trkpt lat="40.0196102" lon="18.1371868"><ele>59.42857142857143</ele><time>2026-03-29T11:23:41.954Z</time></trkpt><trkpt lat="40.0195416" lon="18.1372124"><ele>59.28571428571429</ele><time>2026-03-29T11:23:42.955Z</time></trkpt><trkpt lat="40.0194749" lon="18.1372412"><ele>59.14285714285714</ele><time>2026-03-29T11:23:43.955Z</time></trkpt><trkpt lat="40.0194077" lon="18.1372684"><ele>59.0</ele><time>2026-03-29T11:23:44.955Z</time></trkpt><trkpt lat="40.0193394" lon="18.1372955"><ele>59.0</ele><time>2026-03-29T11:23:45.954Z</time></trkpt><trkpt lat="40.0192725" lon="18.1373208"><ele>59.0</ele><time>2026-03-29T11:23:46.955Z</time></trkpt><trkpt lat="40.0192052" lon="18.1373455"><ele>59.0</ele><time>2026-03-29T11:23:47.955Z</time></trkpt><trkpt lat="40.0191375" lon="18.1373704"><ele>59.0</ele><time>2026-03-29T11:23:48.954Z</time></trkpt><trkpt lat="40.0190738" lon="18.1373915"><ele>59.0</ele><time>2026-03-29T11:23:49.954Z</time></trkpt><trkpt lat="40.0190118" lon="18.1374159"><ele>59.0</ele><time>2026-03-29T11:23:50.955Z</time></trkpt><trkpt lat="40.018946" lon="18.1374422"><ele>59.0</ele><time>2026-03-29T11:23:51.954Z</time></trkpt><trkpt lat="40.018874" lon="18.1374715"><ele>59.14285714285714</ele><time>2026-03-29T11:23:52.954Z</time></trkpt><trkpt lat="40.0188061" lon="18.1374957"><ele>59.28571428571429</ele><time>2026-03-29T11:23:53.956Z</time></trkpt><trkpt lat="40.0187452" lon="18.1375174"><ele>59.42857142857143</ele><time>2026-03-29T11:23:54.956Z</time></trkpt><trkpt lat="40.0186799" lon="18.1375428"><ele>59.57142857142857</ele><time>2026-03-29T11:23:55.955Z</time></trkpt><trkpt lat="40.0186179" lon="18.1375666"><ele>59.71428571428571</ele><time>2026-03-29T11:23:56.956Z</time></trkpt><trkpt lat="40.0185552" lon="18.1375917"><ele>59.85714285714286</ele><time>2026-03-29T11:23:57.956Z</time></trkpt><trkpt lat="40.0184896" lon="18.137614"><ele>60.0</ele><time>2026-03-29T11:23:58.955Z</time></trkpt><trkpt lat="40.0184252" lon="18.1376352"><ele>60.0</ele><time>2026-03-29T11:23:59.955Z</time></trkpt><trkpt lat="40.0183593" lon="18.1376618"><ele>60.0</ele><time>2026-03-29T11:24:00.955Z</time></trkpt><trkpt lat="40.0182935" lon="18.1376907"><ele>60.0</ele><time>2026-03-29T11:24:01.955Z</time></trkpt><trkpt lat="40.018227" lon="18.1377156"><ele>60.0</ele><time>2026-03-29T11:24:02.955Z</time></trkpt><trkpt lat="40.0181608" lon="18.1377393"><ele>60.0</ele><time>2026-03-29T11:24:03.956Z</time></trkpt><trkpt lat="40.0180959" lon="18.1377648"><ele>60.0</ele><time>2026-03-29T11:24:04.955Z</time></trkpt><trkpt lat="40.0180284" lon="18.1377932"><ele>60.0</ele><time>2026-03-29T11:24:05.955Z</time></trkpt><trkpt lat="40.0179636" lon="18.137822"><ele>59.85714285714286</ele><time>2026-03-29T11:24:06.955Z</time></trkpt><trkpt lat="40.0178961" lon="18.1378465"><ele>59.71428571428571</ele><time>2026-03-29T11:24:07.956Z</time></trkpt><trkpt lat="40.0178314" lon="18.1378689"><ele>59.57142857142857</ele><time>2026-03-29T11:24:08.956Z</time></trkpt><trkpt lat="40.0177661" lon="18.1378938"><ele>59.42857142857143</ele><time>2026-03-29T11:24:09.955Z</time></trkpt><trkpt lat="40.0177021" lon="18.1379216"><ele>59.28571428571429</ele><time>2026-03-29T11:24:10.955Z</time></trkpt><trkpt lat="40.0176399" lon="18.1379471"><ele>59.14285714285714</ele><time>2026-03-29T11:24:11.955Z</time></trkpt><trkpt lat="40.0175757" lon="18.1379682"><ele>59.0</ele><time>2026-03-29T11:24:12.956Z</time></trkpt><trkpt lat="40.0175093" lon="18.1379892"><ele>58.71428571428571</ele><time>2026-03-29T11:24:13.955Z</time></trkpt><trkpt lat="40.017444" lon="18.1380133"><ele>58.42857142857143</ele><time>2026-03-29T11:24:14.955Z</time></trkpt><trkpt lat="40.0173829" lon="18.1380423"><ele>58.14285714285714</ele><time>2026-03-29T11:24:15.955Z</time></trkpt><trkpt lat="40.0173222" lon="18.1380696"><ele>57.857142857142854</ele><time>2026-03-29T11:24:16.955Z</time></trkpt><trkpt lat="40.017257" lon="18.1380943"><ele>57.57142857142857</ele><time>2026-03-29T11:24:17.956Z</time></trkpt><trkpt lat="40.0171931" lon="18.1381206"><ele>57.285714285714285</ele><time>2026-03-29T11:24:18.956Z</time></trkpt><trkpt lat="40.0171253" lon="18.1381454"><ele>57.0</ele><time>2026-03-29T11:24:19.955Z</time></trkpt><trkpt lat="40.0170568" lon="18.1381665"><ele>57.0</ele><time>2026-03-29T11:24:20.955Z</time></trkpt><trkpt lat="40.0169893" lon="18.1381913"><ele>56.99999999999999</ele><time>2026-03-29T11:24:21.955Z</time></trkpt><trkpt lat="40.0169284" lon="18.1382172"><ele>57.0</ele><time>2026-03-29T11:24:22.955Z</time></trkpt><trkpt lat="40.0168638" lon="18.1382425"><ele>57.0</ele><time>2026-03-29T11:24:23.955Z</time></trkpt><trkpt lat="40.0167962" lon="18.1382666"><ele>56.99999999999999</ele><time>2026-03-29T11:24:24.955Z</time></trkpt><trkpt lat="40.0167302" lon="18.1382915"><ele>57.0</ele><time>2026-03-29T11:24:25.956Z</time></trkpt><trkpt lat="40.0166645" lon="18.1383161"><ele>57.0</ele><time>2026-03-29T11:24:26.956Z</time></trkpt><trkpt lat="40.0166006" lon="18.1383408"><ele>57.285714285714285</ele><time>2026-03-29T11:24:27.956Z</time></trkpt><trkpt lat="40.0165371" lon="18.1383657"><ele>57.57142857142857</ele><time>2026-03-29T11:24:28.956Z</time></trkpt><trkpt lat="40.0164725" lon="18.1383863"><ele>57.857142857142854</ele><time>2026-03-29T11:24:29.956Z</time></trkpt><trkpt lat="40.0164083" lon="18.1384109"><ele>58.14285714285714</ele><time>2026-03-29T11:24:30.955Z</time></trkpt><trkpt lat="40.0163465" lon="18.1384392"><ele>58.42857142857143</ele><time>2026-03-29T11:24:31.955Z</time></trkpt><trkpt lat="40.0162865" lon="18.138468"><ele>58.71428571428571</ele><time>2026-03-29T11:24:32.955Z</time></trkpt><trkpt lat="40.0162217" lon="18.138493"><ele>59.0</ele><time>2026-03-29T11:24:33.955Z</time></trkpt><trkpt lat="40.0161567" lon="18.1385168"><ele>59.0</ele><time>2026-03-29T11:24:34.956Z</time></trkpt><trkpt lat="40.0160926" lon="18.1385417"><ele>59.0</ele><time>2026-03-29T11:24:35.955Z</time></trkpt><trkpt lat="40.0160277" lon="18.1385671"><ele>59.0</ele><time>2026-03-29T11:24:36.956Z</time></trkpt><trkpt lat="40.0159646" lon="18.1385921"><ele>59.0</ele><time>2026-03-29T11:24:37.955Z</time></trkpt><trkpt lat="40.0158996" lon="18.1386158"><ele>59.0</ele><time>2026-03-29T11:24:38.955Z</time></trkpt><trkpt lat="40.0158356" lon="18.1386421"><ele>59.0</ele><time>2026-03-29T11:24:39.955Z</time></trkpt><trkpt lat="40.0157713" lon="18.1386719"><ele>59.0</ele><time>2026-03-29T11:24:40.955Z</time></trkpt><trkpt lat="40.0157089" lon="18.138704"><ele>58.57142857142857</ele><time>2026-03-29T11:24:41.956Z</time></trkpt><trkpt lat="40.0156476" lon="18.1387362"><ele>58.142857142857146</ele><time>2026-03-29T11:24:42.956Z</time></trkpt><trkpt lat="40.0155861" lon="18.1387674"><ele>57.714285714285715</ele><time>2026-03-29T11:24:43.955Z</time></trkpt><trkpt lat="40.0155231" lon="18.1387791"><ele>57.285714285714285</ele><time>2026-03-29T11:24:44.956Z</time></trkpt><trkpt lat="40.0154524" lon="18.1387783"><ele>56.85714285714286</ele><time>2026-03-29T11:24:45.955Z</time></trkpt><trkpt lat="40.015384" lon="18.1387911"><ele>56.42857142857143</ele><time>2026-03-29T11:24:46.955Z</time></trkpt><trkpt lat="40.0153196" lon="18.1388232"><ele>56.0</ele><time>2026-03-29T11:24:47.955Z</time></trkpt><trkpt lat="40.0152556" lon="18.1388576"><ele>56.0</ele><time>2026-03-29T11:24:48.955Z</time></trkpt><trkpt lat="40.0151909" lon="18.1388846"><ele>56.0</ele><time>2026-03-29T11:24:49.956Z</time></trkpt><trkpt lat="40.0151254" lon="18.1389085"><ele>56.0</ele><time>2026-03-29T11:24:50.955Z</time></trkpt><trkpt lat="40.0150563" lon="18.1389327"><ele>56.0</ele><time>2026-03-29T11:24:51.955Z</time></trkpt><trkpt lat="40.0149889" lon="18.1389586"><ele>56.0</ele><time>2026-03-29T11:24:52.955Z</time></trkpt><trkpt lat="40.0149255" lon="18.1389879"><ele>56.0</ele><time>2026-03-29T11:24:53.956Z</time></trkpt><trkpt lat="40.0148575" lon="18.1390186"><ele>56.0</ele><time>2026-03-29T11:24:54.956Z</time></trkpt><trkpt lat="40.0147959" lon="18.1390475"><ele>56.42857142857143</ele><time>2026-03-29T11:24:55.955Z</time></trkpt><trkpt lat="40.0147306" lon="18.1390728"><ele>56.85714285714286</ele><time>2026-03-29T11:24:56.955Z</time></trkpt><trkpt lat="40.0146612" lon="18.1390977"><ele>57.285714285714285</ele><time>2026-03-29T11:24:57.955Z</time></trkpt><trkpt lat="40.0145942" lon="18.1391191"><ele>57.714285714285715</ele><time>2026-03-29T11:24:58.955Z</time></trkpt><trkpt lat="40.0145297" lon="18.139141"><ele>58.142857142857146</ele><time>2026-03-29T11:24:59.955Z</time></trkpt><trkpt lat="40.0144608" lon="18.1391644"><ele>58.57142857142857</ele><time>2026-03-29T11:25:00.955Z</time></trkpt><trkpt lat="40.0143935" lon="18.1391891"><ele>59.0</ele><time>2026-03-29T11:25:01.955Z</time></trkpt><trkpt lat="40.0143255" lon="18.139212"><ele>59.0</ele><time>2026-03-29T11:25:02.955Z</time></trkpt><trkpt lat="40.014258" lon="18.1392355"><ele>59.0</ele><time>2026-03-29T11:25:03.956Z</time></trkpt><trkpt lat="40.0141941" lon="18.1392615"><ele>59.0</ele><time>2026-03-29T11:25:04.957Z</time></trkpt><trkpt lat="40.0141274" lon="18.1392886"><ele>59.0</ele><time>2026-03-29T11:25:05.956Z</time></trkpt><trkpt lat="40.014059" lon="18.1393166"><ele>59.0</ele><time>2026-03-29T11:25:06.956Z</time></trkpt><trkpt lat="40.0139941" lon="18.1393455"><ele>59.0</ele><time>2026-03-29T11:25:07.956Z</time></trkpt><trkpt lat="40.0139303" lon="18.1393775"><ele>59.0</ele><time>2026-03-29T11:25:08.957Z</time></trkpt><trkpt lat="40.0138682" lon="18.1394125"><ele>58.857142857142854</ele><time>2026-03-29T11:25:09.956Z</time></trkpt><trkpt lat="40.0138048" lon="18.1394486"><ele>58.71428571428572</ele><time>2026-03-29T11:25:10.956Z</time></trkpt><trkpt lat="40.0137432" lon="18.1394845"><ele>58.57142857142858</ele><time>2026-03-29T11:25:11.956Z</time></trkpt><trkpt lat="40.0136833" lon="18.139521"><ele>58.42857142857143</ele><time>2026-03-29T11:25:12.956Z</time></trkpt><trkpt lat="40.0136208" lon="18.1395596"><ele>58.28571428571429</ele><time>2026-03-29T11:25:13.957Z</time></trkpt><trkpt lat="40.0135572" lon="18.1395964"><ele>58.14285714285715</ele><time>2026-03-29T11:25:14.956Z</time></trkpt><trkpt lat="40.0134953" lon="18.139633"><ele>58.00000000000001</ele><time>2026-03-29T11:25:15.956Z</time></trkpt><trkpt lat="40.0134356" lon="18.1396689"><ele>58.00000000000001</ele><time>2026-03-29T11:25:16.956Z</time></trkpt><trkpt lat="40.0133713" lon="18.1397109"><ele>58.0</ele><time>2026-03-29T11:25:17.956Z</time></trkpt><trkpt lat="40.0133102" lon="18.1397504"><ele>58.00000000000001</ele><time>2026-03-29T11:25:18.956Z</time></trkpt><trkpt lat="40.0132479" lon="18.1397884"><ele>58.00000000000001</ele><time>2026-03-29T11:25:19.957Z</time></trkpt><trkpt lat="40.0131849" lon="18.1398246"><ele>58.0</ele><time>2026-03-29T11:25:20.956Z</time></trkpt><trkpt lat="40.0131196" lon="18.139856"><ele>58.00000000000001</ele><time>2026-03-29T11:25:21.957Z</time></trkpt><trkpt lat="40.0130565" lon="18.13989"><ele>58.00000000000001</ele><time>2026-03-29T11:25:22.957Z</time></trkpt><trkpt lat="40.0129975" lon="18.1399294"><ele>58.166666666666664</ele><time>2026-03-29T11:25:23.956Z</time></trkpt><trkpt lat="40.0129358" lon="18.1399705"><ele>58.33333333333333</ele><time>2026-03-29T11:25:24.957Z</time></trkpt><trkpt lat="40.0128737" lon="18.1400067"><ele>58.5</ele><time>2026-03-29T11:25:25.956Z</time></trkpt><trkpt lat="40.0128145" lon="18.1400416"><ele>58.66666666666667</ele><time>2026-03-29T11:25:26.956Z</time></trkpt><trkpt lat="40.0127535" lon="18.1400786"><ele>58.833333333333336</ele><time>2026-03-29T11:25:27.956Z</time></trkpt><trkpt lat="40.0126405" lon="18.1401403"><ele>59.0</ele><time>2026-03-29T11:25:29.956Z</time></trkpt><trkpt lat="40.0125762" lon="18.1401068"><ele>59.00000000000001</ele><time>2026-03-29T11:25:30.956Z</time></trkpt><trkpt lat="40.0125177" lon="18.1400317"><ele>59.0</ele><time>2026-03-29T11:25:31.956Z</time></trkpt><trkpt lat="40.0124723" lon="18.1399295"><ele>59.0</ele><time>2026-03-29T11:25:32.956Z</time></trkpt><trkpt lat="40.0124478" lon="18.1398191"><ele>59.0</ele><time>2026-03-29T11:25:33.957Z</time></trkpt><trkpt lat="40.0124339" lon="18.1397193"><ele>59.00000000000001</ele><time>2026-03-29T11:25:34.957Z</time></trkpt><trkpt lat="40.0124172" lon="18.1396269"><ele>59.0</ele><time>2026-03-29T11:25:35.956Z</time></trkpt><trkpt lat="40.0123965" lon="18.1395397"><ele>58.66666666666667</ele><time>2026-03-29T11:25:36.956Z</time></trkpt><trkpt lat="40.0123727" lon="18.1394543"><ele>58.333333333333336</ele><time>2026-03-29T11:25:37.956Z</time></trkpt><trkpt lat="40.0123462" lon="18.1393707"><ele>58.0</ele><time>2026-03-29T11:25:38.956Z</time></trkpt><trkpt lat="40.0123212" lon="18.1392875"><ele>57.66666666666667</ele><time>2026-03-29T11:25:39.956Z</time></trkpt><trkpt lat="40.0122946" lon="18.139202"><ele>57.333333333333336</ele><time>2026-03-29T11:25:40.956Z</time></trkpt><trkpt lat="40.0122561" lon="18.1390419"><ele>57.0</ele><time>2026-03-29T11:25:42.957Z</time></trkpt><trkpt lat="40.0122344" lon="18.1389558"><ele>56.57142857142857</ele><time>2026-03-29T11:25:43.956Z</time></trkpt><trkpt lat="40.012216" lon="18.1388748"><ele>56.14285714285714</ele><time>2026-03-29T11:25:44.956Z</time></trkpt><trkpt lat="40.0121965" lon="18.13879"><ele>55.71428571428571</ele><time>2026-03-29T11:25:45.956Z</time></trkpt><trkpt lat="40.0121817" lon="18.138707"><ele>55.285714285714285</ele><time>2026-03-29T11:25:46.956Z</time></trkpt><trkpt lat="40.0121686" lon="18.1386189"><ele>54.857142857142854</ele><time>2026-03-29T11:25:47.956Z</time></trkpt><trkpt lat="40.0121579" lon="18.138533"><ele>54.42857142857143</ele><time>2026-03-29T11:25:48.957Z</time></trkpt><trkpt lat="40.0121477" lon="18.1384492"><ele>54.0</ele><time>2026-03-29T11:25:49.957Z</time></trkpt><trkpt lat="40.0121368" lon="18.1383664"><ele>53.833333333333336</ele><time>2026-03-29T11:25:50.956Z</time></trkpt><trkpt lat="40.012124" lon="18.1382019"><ele>53.66666666666667</ele><time>2026-03-29T11:25:52.956Z</time></trkpt><trkpt lat="40.0121156" lon="18.1381146"><ele>53.5</ele><time>2026-03-29T11:25:53.956Z</time></trkpt><trkpt lat="40.0121072" lon="18.1380315"><ele>53.333333333333336</ele><time>2026-03-29T11:25:54.957Z</time></trkpt><trkpt lat="40.0120953" lon="18.1379482"><ele>53.16666666666667</ele><time>2026-03-29T11:25:55.957Z</time></trkpt><trkpt lat="40.0120756" lon="18.1377953"><ele>53.0</ele><time>2026-03-29T11:25:57.956Z</time></trkpt><trkpt lat="40.0120539" lon="18.1376477"><ele>53.0</ele><time>2026-03-29T11:25:59.956Z</time></trkpt><trkpt lat="40.0120419" lon="18.137501"><ele>53.0</ele><time>2026-03-29T11:26:01.956Z</time></trkpt><trkpt lat="40.0120292" lon="18.1373639"><ele>53.0</ele><time>2026-03-29T11:26:03.957Z</time></trkpt><trkpt lat="40.0120155" lon="18.1372379"><ele>53.0</ele><time>2026-03-29T11:26:05.957Z</time></trkpt><trkpt lat="40.0120183" lon="18.1371195"><ele>53.0</ele><time>2026-03-29T11:26:07.957Z</time></trkpt><trkpt lat="40.0120542" lon="18.1370019"><ele>53.0</ele><time>2026-03-29T11:26:09.957Z</time></trkpt><trkpt lat="40.0120899" lon="18.1368744"><ele>53.0</ele><time>2026-03-29T11:26:11.956Z</time></trkpt><trkpt lat="40.0120979" lon="18.1367384"><ele>53.0</ele><time>2026-03-29T11:26:13.956Z</time></trkpt><trkpt lat="40.0120197" lon="18.1366162"><ele>53.0</ele><time>2026-03-29T11:26:15.958Z</time></trkpt><trkpt lat="40.0119544" lon="18.1365872"><ele>53.0</ele><time>2026-03-29T11:26:16.958Z</time></trkpt><trkpt lat="40.0118845" lon="18.1365875"><ele>53.0</ele><time>2026-03-29T11:26:17.958Z</time></trkpt><trkpt lat="40.0118222" lon="18.1366215"><ele>53.0</ele><time>2026-03-29T11:26:18.957Z</time></trkpt><trkpt lat="40.0117628" lon="18.136683"><ele>53.0</ele><time>2026-03-29T11:26:19.957Z</time></trkpt><trkpt lat="40.0117258" lon="18.1367615"><ele>53.0</ele><time>2026-03-29T11:26:20.957Z</time></trkpt><trkpt lat="40.0117044" lon="18.1368452"><ele>53.0</ele><time>2026-03-29T11:26:21.957Z</time></trkpt><trkpt lat="40.0116928" lon="18.1369314"><ele>53.0</ele><time>2026-03-29T11:26:22.957Z</time></trkpt><trkpt lat="40.0116793" lon="18.137012"><ele>53.0</ele><time>2026-03-29T11:26:23.957Z</time></trkpt><trkpt lat="40.0116195" lon="18.1371405"><ele>53.142857142857146</ele><time>2026-03-29T11:26:25.957Z</time></trkpt><trkpt lat="40.0115656" lon="18.1371964"><ele>53.285714285714285</ele><time>2026-03-29T11:26:26.957Z</time></trkpt><trkpt lat="40.0115112" lon="18.1372507"><ele>53.42857142857143</ele><time>2026-03-29T11:26:27.957Z</time></trkpt><trkpt lat="40.0114597" lon="18.1373103"><ele>53.57142857142857</ele><time>2026-03-29T11:26:28.958Z</time></trkpt><trkpt lat="40.0114125" lon="18.137369"><ele>53.71428571428571</ele><time>2026-03-29T11:26:29.957Z</time></trkpt><trkpt lat="40.0113653" lon="18.1374308"><ele>53.857142857142854</ele><time>2026-03-29T11:26:30.957Z</time></trkpt><trkpt lat="40.011314" lon="18.1374944"><ele>54.0</ele><time>2026-03-29T11:26:31.957Z</time></trkpt><trkpt lat="40.011263" lon="18.1375502"><ele>54.166666666666664</ele><time>2026-03-29T11:26:32.957Z</time></trkpt><trkpt lat="40.0112118" lon="18.1376045"><ele>54.33333333333333</ele><time>2026-03-29T11:26:33.958Z</time></trkpt><trkpt lat="40.0111601" lon="18.1376609"><ele>54.5</ele><time>2026-03-29T11:26:34.957Z</time></trkpt><trkpt lat="40.0110641" lon="18.1377678"><ele>54.666666666666664</ele><time>2026-03-29T11:26:36.957Z</time></trkpt><trkpt lat="40.011013" lon="18.1378247"><ele>54.83333333333333</ele><time>2026-03-29T11:26:37.957Z</time></trkpt><trkpt lat="40.0109603" lon="18.1378801"><ele>55.0</ele><time>2026-03-29T11:26:38.958Z</time></trkpt><trkpt lat="40.0109091" lon="18.1379299"><ele>54.99999999999999</ele><time>2026-03-29T11:26:39.958Z</time></trkpt><trkpt lat="40.0108541" lon="18.1379876"><ele>55.0</ele><time>2026-03-29T11:26:40.957Z</time></trkpt><trkpt lat="40.0108026" lon="18.1380435"><ele>55.0</ele><time>2026-03-29T11:26:41.958Z</time></trkpt><trkpt lat="40.0107537" lon="18.1381017"><ele>55.0</ele><time>2026-03-29T11:26:42.958Z</time></trkpt><trkpt lat="40.0107" lon="18.1381665"><ele>55.0</ele><time>2026-03-29T11:26:43.957Z</time></trkpt><trkpt lat="40.0106456" lon="18.1382266"><ele>54.99999999999999</ele><time>2026-03-29T11:26:44.958Z</time></trkpt><trkpt lat="40.0105899" lon="18.1382827"><ele>55.0</ele><time>2026-03-29T11:26:45.957Z</time></trkpt><trkpt lat="40.0105379" lon="18.1383404"><ele>54.83333333333333</ele><time>2026-03-29T11:26:46.957Z</time></trkpt><trkpt lat="40.0104867" lon="18.1384001"><ele>54.666666666666664</ele><time>2026-03-29T11:26:47.957Z</time></trkpt><trkpt lat="40.010437" lon="18.1384566"><ele>54.5</ele><time>2026-03-29T11:26:48.957Z</time></trkpt><trkpt lat="40.0103869" lon="18.1385149"><ele>54.33333333333333</ele><time>2026-03-29T11:26:49.957Z</time></trkpt><trkpt lat="40.0102955" lon="18.1386341"><ele>54.166666666666664</ele><time>2026-03-29T11:26:51.958Z</time></trkpt><trkpt lat="40.0102426" lon="18.1386956"><ele>54.0</ele><time>2026-03-29T11:26:52.958Z</time></trkpt><trkpt lat="40.0101899" lon="18.1387551"><ele>54.0</ele><time>2026-03-29T11:26:53.958Z</time></trkpt><trkpt lat="40.010137" lon="18.1388143"><ele>54.0</ele><time>2026-03-29T11:26:54.957Z</time></trkpt><trkpt lat="40.0100855" lon="18.1388708"><ele>54.0</ele><time>2026-03-29T11:26:55.957Z</time></trkpt><trkpt lat="40.0100316" lon="18.1389255"><ele>54.0</ele><time>2026-03-29T11:26:56.958Z</time></trkpt><trkpt lat="40.0099774" lon="18.1389763"><ele>54.0</ele><time>2026-03-29T11:26:57.957Z</time></trkpt><trkpt lat="40.0099241" lon="18.1390279"><ele>54.0</ele><time>2026-03-29T11:26:58.957Z</time></trkpt><trkpt lat="40.0098736" lon="18.1390817"><ele>54.0</ele><time>2026-03-29T11:26:59.957Z</time></trkpt><trkpt lat="40.0098236" lon="18.1391419"><ele>54.14285714285714</ele><time>2026-03-29T11:27:00.958Z</time></trkpt><trkpt lat="40.0097751" lon="18.1392012"><ele>54.285714285714285</ele><time>2026-03-29T11:27:01.957Z</time></trkpt><trkpt lat="40.0097248" lon="18.1392543"><ele>54.42857142857143</ele><time>2026-03-29T11:27:02.957Z</time></trkpt><trkpt lat="40.0096729" lon="18.1393073"><ele>54.57142857142857</ele><time>2026-03-29T11:27:03.957Z</time></trkpt><trkpt lat="40.0096196" lon="18.1393645"><ele>54.714285714285715</ele><time>2026-03-29T11:27:04.958Z</time></trkpt><trkpt lat="40.0095723" lon="18.1394282"><ele>54.857142857142854</ele><time>2026-03-29T11:27:05.957Z</time></trkpt><trkpt lat="40.0095266" lon="18.1394924"><ele>55.0</ele><time>2026-03-29T11:27:06.957Z</time></trkpt><trkpt lat="40.0094768" lon="18.1395486"><ele>54.99999999999999</ele><time>2026-03-29T11:27:07.957Z</time></trkpt><trkpt lat="40.0094235" lon="18.1396005"><ele>55.0</ele><time>2026-03-29T11:27:08.957Z</time></trkpt><trkpt lat="40.0093688" lon="18.1396485"><ele>55.0</ele><time>2026-03-29T11:27:09.957Z</time></trkpt><trkpt lat="40.0093129" lon="18.1396992"><ele>55.0</ele><time>2026-03-29T11:27:10.957Z</time></trkpt><trkpt lat="40.0092596" lon="18.1397576"><ele>55.0</ele><time>2026-03-29T11:27:11.957Z</time></trkpt><trkpt lat="40.0092106" lon="18.1398209"><ele>54.99999999999999</ele><time>2026-03-29T11:27:12.957Z</time></trkpt><trkpt lat="40.0091628" lon="18.1398858"><ele>55.0</ele><time>2026-03-29T11:27:13.957Z</time></trkpt><trkpt lat="40.0091152" lon="18.1399527"><ele>54.99999999999999</ele><time>2026-03-29T11:27:14.958Z</time></trkpt><trkpt lat="40.0090706" lon="18.1400177"><ele>55.0</ele><time>2026-03-29T11:27:15.957Z</time></trkpt><trkpt lat="40.0090243" lon="18.1400763"><ele>55.0</ele><time>2026-03-29T11:27:16.957Z</time></trkpt><trkpt lat="40.0089265" lon="18.1401815"><ele>55.0</ele><time>2026-03-29T11:27:18.958Z</time></trkpt><trkpt lat="40.0088752" lon="18.1402367"><ele>54.99999999999999</ele><time>2026-03-29T11:27:19.957Z</time></trkpt><trkpt lat="40.0088222" lon="18.1402941"><ele>55.0</ele><time>2026-03-29T11:27:20.958Z</time></trkpt><trkpt lat="40.0087673" lon="18.1403533"><ele>54.99999999999999</ele><time>2026-03-29T11:27:21.958Z</time></trkpt><trkpt lat="40.0087137" lon="18.1404117"><ele>55.0</ele><time>2026-03-29T11:27:22.957Z</time></trkpt><trkpt lat="40.0086618" lon="18.1404693"><ele>55.0</ele><time>2026-03-29T11:27:23.957Z</time></trkpt><trkpt lat="40.008607" lon="18.1405272"><ele>55.0</ele><time>2026-03-29T11:27:24.958Z</time></trkpt><trkpt lat="40.0085523" lon="18.1405875"><ele>55.0</ele><time>2026-03-29T11:27:25.958Z</time></trkpt><trkpt lat="40.0085008" lon="18.1406451"><ele>54.99999999999999</ele><time>2026-03-29T11:27:26.958Z</time></trkpt><trkpt lat="40.008449" lon="18.1407036"><ele>55.0</ele><time>2026-03-29T11:27:27.958Z</time></trkpt><trkpt lat="40.0083994" lon="18.1407581"><ele>55.14285714285714</ele><time>2026-03-29T11:27:28.959Z</time></trkpt><trkpt lat="40.0083455" lon="18.140815"><ele>55.285714285714285</ele><time>2026-03-29T11:27:29.959Z</time></trkpt><trkpt lat="40.0082903" lon="18.1408747"><ele>55.42857142857143</ele><time>2026-03-29T11:27:30.959Z</time></trkpt><trkpt lat="40.0082369" lon="18.140935"><ele>55.57142857142857</ele><time>2026-03-29T11:27:31.959Z</time></trkpt><trkpt lat="40.0081856" lon="18.1409924"><ele>55.714285714285715</ele><time>2026-03-29T11:27:32.958Z</time></trkpt><trkpt lat="40.0081334" lon="18.1410481"><ele>55.857142857142854</ele><time>2026-03-29T11:27:33.959Z</time></trkpt><trkpt lat="40.0080817" lon="18.1411122"><ele>56.0</ele><time>2026-03-29T11:27:34.958Z</time></trkpt><trkpt lat="40.0080312" lon="18.141174"><ele>56.14285714285714</ele><time>2026-03-29T11:27:35.958Z</time></trkpt><trkpt lat="40.0079804" lon="18.1412335"><ele>56.285714285714285</ele><time>2026-03-29T11:27:36.958Z</time></trkpt><trkpt lat="40.0079295" lon="18.1412873"><ele>56.42857142857143</ele><time>2026-03-29T11:27:37.959Z</time></trkpt><trkpt lat="40.0078755" lon="18.1413389"><ele>56.57142857142857</ele><time>2026-03-29T11:27:38.959Z</time></trkpt><trkpt lat="40.0078206" lon="18.1413937"><ele>56.71428571428571</ele><time>2026-03-29T11:27:39.958Z</time></trkpt><trkpt lat="40.0077668" lon="18.1414489"><ele>56.857142857142854</ele><time>2026-03-29T11:27:40.959Z</time></trkpt><trkpt lat="40.0077134" lon="18.1415086"><ele>57.0</ele><time>2026-03-29T11:27:41.959Z</time></trkpt><trkpt lat="40.007661" lon="18.1415658"><ele>57.0</ele><time>2026-03-29T11:27:42.958Z</time></trkpt><trkpt lat="40.0076097" lon="18.1416249"><ele>56.99999999999999</ele><time>2026-03-29T11:27:43.959Z</time></trkpt><trkpt lat="40.0075581" lon="18.1416852"><ele>57.0</ele><time>2026-03-29T11:27:44.959Z</time></trkpt><trkpt lat="40.0075055" lon="18.1417417"><ele>57.0</ele><time>2026-03-29T11:27:45.959Z</time></trkpt><trkpt lat="40.0074531" lon="18.1417954"><ele>56.99999999999999</ele><time>2026-03-29T11:27:46.959Z</time></trkpt><trkpt lat="40.0074006" lon="18.1418504"><ele>57.0</ele><time>2026-03-29T11:27:47.958Z</time></trkpt><trkpt lat="40.0073518" lon="18.1419117"><ele>57.0</ele><time>2026-03-29T11:27:48.958Z</time></trkpt><trkpt lat="40.0073005" lon="18.1419697"><ele>56.71428571428571</ele><time>2026-03-29T11:27:49.958Z</time></trkpt><trkpt lat="40.0072486" lon="18.1420301"><ele>56.42857142857142</ele><time>2026-03-29T11:27:50.959Z</time></trkpt><trkpt lat="40.0071956" lon="18.1420913"><ele>56.14285714285714</ele><time>2026-03-29T11:27:51.959Z</time></trkpt><trkpt lat="40.0071446" lon="18.1421522"><ele>55.857142857142854</ele><time>2026-03-29T11:27:52.959Z</time></trkpt><trkpt lat="40.0070928" lon="18.1422107"><ele>55.57142857142857</ele><time>2026-03-29T11:27:53.958Z</time></trkpt><trkpt lat="40.0070391" lon="18.1422714"><ele>55.28571428571428</ele><time>2026-03-29T11:27:54.958Z</time></trkpt><trkpt lat="40.0069875" lon="18.1423288"><ele>55.0</ele><time>2026-03-29T11:27:55.958Z</time></trkpt><trkpt lat="40.0069366" lon="18.1423831"><ele>54.99999999999999</ele><time>2026-03-29T11:27:56.958Z</time></trkpt><trkpt lat="40.0068859" lon="18.1424407"><ele>55.0</ele><time>2026-03-29T11:27:57.959Z</time></trkpt><trkpt lat="40.0068363" lon="18.1424996"><ele>55.0</ele><time>2026-03-29T11:27:58.959Z</time></trkpt><trkpt lat="40.0067862" lon="18.1425612"><ele>55.0</ele><time>2026-03-29T11:27:59.958Z</time></trkpt><trkpt lat="40.0067356" lon="18.1426233"><ele>55.0</ele><time>2026-03-29T11:28:00.959Z</time></trkpt><trkpt lat="40.0066839" lon="18.14268"><ele>54.99999999999999</ele><time>2026-03-29T11:28:01.958Z</time></trkpt><trkpt lat="40.0066329" lon="18.1427344"><ele>55.0</ele><time>2026-03-29T11:28:02.959Z</time></trkpt><trkpt lat="40.006578" lon="18.1427908"><ele>54.99999999999999</ele><time>2026-03-29T11:28:03.959Z</time></trkpt><trkpt lat="40.006524" lon="18.1428475"><ele>55.0</ele><time>2026-03-29T11:28:04.959Z</time></trkpt><trkpt lat="40.0064734" lon="18.142907"><ele>55.0</ele><time>2026-03-29T11:28:05.959Z</time></trkpt><trkpt lat="40.006422" lon="18.1429681"><ele>55.0</ele><time>2026-03-29T11:28:06.958Z</time></trkpt><trkpt lat="40.0063707" lon="18.1430265"><ele>55.0</ele><time>2026-03-29T11:28:07.959Z</time></trkpt><trkpt lat="40.0063196" lon="18.1430824"><ele>54.99999999999999</ele><time>2026-03-29T11:28:08.958Z</time></trkpt><trkpt lat="40.0062691" lon="18.1431404"><ele>55.0</ele><time>2026-03-29T11:28:09.958Z</time></trkpt><trkpt lat="40.0062166" lon="18.1432005"><ele>54.83333333333333</ele><time>2026-03-29T11:28:10.958Z</time></trkpt><trkpt lat="40.006167" lon="18.1432608"><ele>54.666666666666664</ele><time>2026-03-29T11:28:11.958Z</time></trkpt><trkpt lat="40.0060684" lon="18.1433768"><ele>54.5</ele><time>2026-03-29T11:28:13.958Z</time></trkpt><trkpt lat="40.0060147" lon="18.1434362"><ele>54.33333333333333</ele><time>2026-03-29T11:28:14.958Z</time></trkpt><trkpt lat="40.0059652" lon="18.1434909"><ele>54.166666666666664</ele><time>2026-03-29T11:28:15.959Z</time></trkpt><trkpt lat="40.0059151" lon="18.1435495"><ele>54.0</ele><time>2026-03-29T11:28:16.959Z</time></trkpt><trkpt lat="40.0058673" lon="18.1436054"><ele>54.285714285714285</ele><time>2026-03-29T11:28:17.958Z</time></trkpt><trkpt lat="40.005819" lon="18.1436632"><ele>54.57142857142857</ele><time>2026-03-29T11:28:18.959Z</time></trkpt><trkpt lat="40.0057687" lon="18.1437245"><ele>54.85714285714286</ele><time>2026-03-29T11:28:19.958Z</time></trkpt><trkpt lat="40.0057186" lon="18.1437875"><ele>55.14285714285714</ele><time>2026-03-29T11:28:20.958Z</time></trkpt><trkpt lat="40.0056693" lon="18.1438474"><ele>55.42857142857143</ele><time>2026-03-29T11:28:21.958Z</time></trkpt><trkpt lat="40.0056176" lon="18.1439085"><ele>55.714285714285715</ele><time>2026-03-29T11:28:22.958Z</time></trkpt><trkpt lat="40.0055656" lon="18.1439674"><ele>56.0</ele><time>2026-03-29T11:28:23.958Z</time></trkpt><trkpt lat="40.0055155" lon="18.1440245"><ele>56.14285714285714</ele><time>2026-03-29T11:28:24.959Z</time></trkpt><trkpt lat="40.0054641" lon="18.1440859"><ele>56.285714285714285</ele><time>2026-03-29T11:28:25.958Z</time></trkpt><trkpt lat="40.0054143" lon="18.1441455"><ele>56.42857142857143</ele><time>2026-03-29T11:28:26.958Z</time></trkpt><trkpt lat="40.0053641" lon="18.1442028"><ele>56.57142857142857</ele><time>2026-03-29T11:28:27.958Z</time></trkpt><trkpt lat="40.0053132" lon="18.144266"><ele>56.71428571428571</ele><time>2026-03-29T11:28:28.958Z</time></trkpt><trkpt lat="40.0052639" lon="18.1443336"><ele>56.857142857142854</ele><time>2026-03-29T11:28:29.959Z</time></trkpt><trkpt lat="40.0052165" lon="18.1443978"><ele>57.0</ele><time>2026-03-29T11:28:30.958Z</time></trkpt><trkpt lat="40.0051682" lon="18.1444624"><ele>57.0</ele><time>2026-03-29T11:28:31.958Z</time></trkpt><trkpt lat="40.00512" lon="18.1445251"><ele>56.99999999999999</ele><time>2026-03-29T11:28:32.958Z</time></trkpt><trkpt lat="40.0050738" lon="18.1445872"><ele>57.0</ele><time>2026-03-29T11:28:33.958Z</time></trkpt><trkpt lat="40.0050247" lon="18.1446489"><ele>57.0</ele><time>2026-03-29T11:28:34.96Z</time></trkpt><trkpt lat="40.0049768" lon="18.1447068"><ele>56.99999999999999</ele><time>2026-03-29T11:28:35.959Z</time></trkpt><trkpt lat="40.00493" lon="18.1447672"><ele>57.0</ele><time>2026-03-29T11:28:36.96Z</time></trkpt><trkpt lat="40.0048827" lon="18.1448331"><ele>57.0</ele><time>2026-03-29T11:28:37.959Z</time></trkpt><trkpt lat="40.0048346" lon="18.1448974"><ele>56.857142857142854</ele><time>2026-03-29T11:28:38.96Z</time></trkpt><trkpt lat="40.004787" lon="18.1449621"><ele>56.71428571428571</ele><time>2026-03-29T11:28:39.959Z</time></trkpt><trkpt lat="40.0047437" lon="18.1450283"><ele>56.57142857142857</ele><time>2026-03-29T11:28:40.959Z</time></trkpt><trkpt lat="40.0047006" lon="18.145093"><ele>56.42857142857143</ele><time>2026-03-29T11:28:41.96Z</time></trkpt><trkpt lat="40.0046571" lon="18.1451597"><ele>56.285714285714285</ele><time>2026-03-29T11:28:42.959Z</time></trkpt><trkpt lat="40.0046121" lon="18.1452264"><ele>56.14285714285714</ele><time>2026-03-29T11:28:43.959Z</time></trkpt><trkpt lat="40.0045678" lon="18.1452924"><ele>56.0</ele><time>2026-03-29T11:28:44.959Z</time></trkpt><trkpt lat="40.0045228" lon="18.145359"><ele>56.0</ele><time>2026-03-29T11:28:45.959Z</time></trkpt><trkpt lat="40.0044771" lon="18.1454242"><ele>56.0</ele><time>2026-03-29T11:28:46.959Z</time></trkpt><trkpt lat="40.0044337" lon="18.1454904"><ele>56.0</ele><time>2026-03-29T11:28:47.959Z</time></trkpt><trkpt lat="40.0043921" lon="18.1455592"><ele>56.0</ele><time>2026-03-29T11:28:48.959Z</time></trkpt><trkpt lat="40.0043493" lon="18.1456311"><ele>56.0</ele><time>2026-03-29T11:28:49.959Z</time></trkpt><trkpt lat="40.004305" lon="18.1457018"><ele>56.0</ele><time>2026-03-29T11:28:50.959Z</time></trkpt><trkpt lat="40.0042624" lon="18.1457686"><ele>56.0</ele><time>2026-03-29T11:28:51.959Z</time></trkpt><trkpt lat="40.0042192" lon="18.145835"><ele>56.16666666666667</ele><time>2026-03-29T11:28:52.959Z</time></trkpt><trkpt lat="40.0041351" lon="18.145964"><ele>56.333333333333336</ele><time>2026-03-29T11:28:54.959Z</time></trkpt><trkpt lat="40.0040917" lon="18.1460289"><ele>56.5</ele><time>2026-03-29T11:28:55.959Z</time></trkpt><trkpt lat="40.0040476" lon="18.1460983"><ele>56.66666666666667</ele><time>2026-03-29T11:28:56.959Z</time></trkpt><trkpt lat="40.0040028" lon="18.1461673"><ele>56.833333333333336</ele><time>2026-03-29T11:28:57.959Z</time></trkpt><trkpt lat="40.003957" lon="18.1462362"><ele>57.0</ele><time>2026-03-29T11:28:58.959Z</time></trkpt><trkpt lat="40.0039112" lon="18.1462985"><ele>57.0</ele><time>2026-03-29T11:28:59.959Z</time></trkpt><trkpt lat="40.0038634" lon="18.1463588"><ele>57.0</ele><time>2026-03-29T11:29:00.96Z</time></trkpt><trkpt lat="40.0038149" lon="18.1464159"><ele>57.0</ele><time>2026-03-29T11:29:01.959Z</time></trkpt><trkpt lat="40.0037059" lon="18.1464961"><ele>57.0</ele><time>2026-03-29T11:29:03.959Z</time></trkpt><trkpt lat="40.0036429" lon="18.1465129"><ele>57.0</ele><time>2026-03-29T11:29:04.959Z</time></trkpt><trkpt lat="40.0035751" lon="18.1465232"><ele>57.0</ele><time>2026-03-29T11:29:05.959Z</time></trkpt><trkpt lat="40.0035118" lon="18.1465167"><ele>57.0</ele><time>2026-03-29T11:29:06.959Z</time></trkpt><trkpt lat="40.003449" lon="18.1464855"><ele>56.99999999999999</ele><time>2026-03-29T11:29:07.959Z</time></trkpt><trkpt lat="40.0033918" lon="18.1464354"><ele>57.0</ele><time>2026-03-29T11:29:08.96Z</time></trkpt><trkpt lat="40.0033387" lon="18.1463789"><ele>57.0</ele><time>2026-03-29T11:29:09.959Z</time></trkpt><trkpt lat="40.0032846" lon="18.146327"><ele>56.99999999999999</ele><time>2026-03-29T11:29:10.959Z</time></trkpt><trkpt lat="40.0032265" lon="18.1462944"><ele>57.0</ele><time>2026-03-29T11:29:11.959Z</time></trkpt><trkpt lat="40.0031568" lon="18.1462859"><ele>57.0</ele><time>2026-03-29T11:29:12.96Z</time></trkpt><trkpt lat="40.0030947" lon="18.1463108"><ele>57.2</ele><time>2026-03-29T11:29:13.959Z</time></trkpt><trkpt lat="40.0030391" lon="18.1463617"><ele>57.400000000000006</ele><time>2026-03-29T11:29:14.959Z</time></trkpt><trkpt lat="40.0029944" lon="18.1464272"><ele>57.599999999999994</ele><time>2026-03-29T11:29:15.959Z</time></trkpt><trkpt lat="40.0029253" lon="18.1465467"><ele>57.8</ele><time>2026-03-29T11:29:17.959Z</time></trkpt><trkpt lat="40.0028389" lon="18.1466417"><ele>58.0</ele><time>2026-03-29T11:29:19.959Z</time></trkpt><trkpt lat="40.0027449" lon="18.146726"><ele>58.0</ele><time>2026-03-29T11:29:21.959Z</time></trkpt><trkpt lat="40.0026583" lon="18.1468169"><ele>58.0</ele><time>2026-03-29T11:29:23.959Z</time></trkpt><trkpt lat="40.0025683" lon="18.146911"><ele>58.0</ele><time>2026-03-29T11:29:25.96Z</time></trkpt><trkpt lat="40.0024745" lon="18.1469969"><ele>58.0</ele><time>2026-03-29T11:29:27.959Z</time></trkpt><trkpt lat="40.0023775" lon="18.1470796"><ele>57.75</ele><time>2026-03-29T11:29:29.96Z</time></trkpt><trkpt lat="40.0022824" lon="18.1471588"><ele>57.5</ele><time>2026-03-29T11:29:31.959Z</time></trkpt><trkpt lat="40.0021883" lon="18.1472391"><ele>57.25</ele><time>2026-03-29T11:29:33.959Z</time></trkpt><trkpt lat="40.0020902" lon="18.1473366"><ele>57.0</ele><time>2026-03-29T11:29:35.959Z</time></trkpt><trkpt lat="40.002006" lon="18.1474229"><ele>56.75</ele><time>2026-03-29T11:29:37.959Z</time></trkpt><trkpt lat="40.0019124" lon="18.1475112"><ele>56.5</ele><time>2026-03-29T11:29:39.96Z</time></trkpt><trkpt lat="40.0018169" lon="18.1476035"><ele>56.25</ele><time>2026-03-29T11:29:41.96Z</time></trkpt><trkpt lat="40.0017155" lon="18.1476895"><ele>56.0</ele><time>2026-03-29T11:29:43.96Z</time></trkpt><trkpt lat="40.0016131" lon="18.1477776"><ele>56.0</ele><time>2026-03-29T11:29:45.961Z</time></trkpt><trkpt lat="40.0015154" lon="18.147865"><ele>55.99999999999999</ele><time>2026-03-29T11:29:47.96Z</time></trkpt><trkpt lat="40.0014636" lon="18.147918"><ele>55.99999999999999</ele><time>2026-03-29T11:29:48.96Z</time></trkpt><trkpt lat="40.0013702" lon="18.1480196"><ele>56.0</ele><time>2026-03-29T11:29:50.961Z</time></trkpt><trkpt lat="40.0013183" lon="18.1480674"><ele>56.0</ele><time>2026-03-29T11:29:51.961Z</time></trkpt><trkpt lat="40.0012142" lon="18.1481542"><ele>55.8</ele><time>2026-03-29T11:29:53.96Z</time></trkpt><trkpt lat="40.0011113" lon="18.1482429"><ele>55.599999999999994</ele><time>2026-03-29T11:29:55.961Z</time></trkpt><trkpt lat="40.0010118" lon="18.1483307"><ele>55.4</ele><time>2026-03-29T11:29:57.96Z</time></trkpt><trkpt lat="40.0009611" lon="18.1483858"><ele>55.2</ele><time>2026-03-29T11:29:58.96Z</time></trkpt><trkpt lat="40.0008637" lon="18.148472"><ele>55.0</ele><time>2026-03-29T11:30:00.961Z</time></trkpt><trkpt lat="40.0007658" lon="18.1485659"><ele>55.33333333333333</ele><time>2026-03-29T11:30:02.96Z</time></trkpt><trkpt lat="40.0006634" lon="18.1486638"><ele>55.666666666666664</ele><time>2026-03-29T11:30:04.96Z</time></trkpt><trkpt lat="40.0005585" lon="18.1487481"><ele>56.0</ele><time>2026-03-29T11:30:06.96Z</time></trkpt><trkpt lat="40.0005003" lon="18.1487995"><ele>56.33333333333333</ele><time>2026-03-29T11:30:07.96Z</time></trkpt><trkpt lat="40.000448" lon="18.1488458"><ele>56.666666666666664</ele><time>2026-03-29T11:30:08.961Z</time></trkpt><trkpt lat="40.0003933" lon="18.1488887"><ele>57.0</ele><time>2026-03-29T11:30:09.96Z</time></trkpt><trkpt lat="40.0002816" lon="18.1489674"><ele>57.0</ele><time>2026-03-29T11:30:11.96Z</time></trkpt><trkpt lat="40.0002221" lon="18.1490103"><ele>57.0</ele><time>2026-03-29T11:30:12.96Z</time></trkpt><trkpt lat="40.0001646" lon="18.1490555"><ele>57.0</ele><time>2026-03-29T11:30:13.96Z</time></trkpt><trkpt lat="40.0001065" lon="18.1491003"><ele>57.0</ele><time>2026-03-29T11:30:14.96Z</time></trkpt><trkpt lat="40.0000486" lon="18.14914"><ele>57.0</ele><time>2026-03-29T11:30:15.96Z</time></trkpt><trkpt lat="39.9999886" lon="18.1491788"><ele>57.0</ele><time>2026-03-29T11:30:16.96Z</time></trkpt><trkpt lat="39.9998741" lon="18.1492512"><ele>57.0</ele><time>2026-03-29T11:30:18.96Z</time></trkpt><trkpt lat="39.9998146" lon="18.1492901"><ele>56.99999999999999</ele><time>2026-03-29T11:30:19.961Z</time></trkpt><trkpt lat="39.9997571" lon="18.1493287"><ele>57.0</ele><time>2026-03-29T11:30:20.96Z</time></trkpt><trkpt lat="39.9996985" lon="18.1493676"><ele>57.0</ele><time>2026-03-29T11:30:21.96Z</time></trkpt><trkpt lat="39.9996388" lon="18.1494022"><ele>56.99999999999999</ele><time>2026-03-29T11:30:22.961Z</time></trkpt><trkpt lat="39.9995783" lon="18.1494331"><ele>57.0</ele><time>2026-03-29T11:30:23.96Z</time></trkpt><trkpt lat="39.9995192" lon="18.1494628"><ele>57.0</ele><time>2026-03-29T11:30:24.96Z</time></trkpt><trkpt lat="39.9994553" lon="18.1494933"><ele>57.0</ele><time>2026-03-29T11:30:25.96Z</time></trkpt><trkpt lat="39.9993954" lon="18.1495249"><ele>57.0</ele><time>2026-03-29T11:30:26.961Z</time></trkpt><trkpt lat="39.9992775" lon="18.149596"><ele>57.0</ele><time>2026-03-29T11:30:28.961Z</time></trkpt><trkpt lat="39.9992175" lon="18.1496302"><ele>57.0</ele><time>2026-03-29T11:30:29.96Z</time></trkpt><trkpt lat="39.9991577" lon="18.1496651"><ele>57.0</ele><time>2026-03-29T11:30:30.96Z</time></trkpt><trkpt lat="39.9990975" lon="18.1496997"><ele>57.0</ele><time>2026-03-29T11:30:31.96Z</time></trkpt><trkpt lat="39.9990352" lon="18.1497314"><ele>57.0</ele><time>2026-03-29T11:30:32.961Z</time></trkpt><trkpt lat="39.9989108" lon="18.1497934"><ele>57.0</ele><time>2026-03-29T11:30:34.961Z</time></trkpt><trkpt lat="39.9988525" lon="18.1498255"><ele>57.0</ele><time>2026-03-29T11:30:35.961Z</time></trkpt><trkpt lat="39.9987891" lon="18.1498577"><ele>57.0</ele><time>2026-03-29T11:30:36.96Z</time></trkpt><trkpt lat="39.9987261" lon="18.1498899"><ele>57.0</ele><time>2026-03-29T11:30:37.96Z</time></trkpt><trkpt lat="39.9986618" lon="18.1499225"><ele>57.0</ele><time>2026-03-29T11:30:38.96Z</time></trkpt><trkpt lat="39.9985956" lon="18.1499567"><ele>57.0</ele><time>2026-03-29T11:30:39.96Z</time></trkpt><trkpt lat="39.9985262" lon="18.1499929"><ele>56.99999999999999</ele><time>2026-03-29T11:30:40.961Z</time></trkpt><trkpt lat="39.9984586" lon="18.1500292"><ele>57.0</ele><time>2026-03-29T11:30:41.961Z</time></trkpt><trkpt lat="39.9983894" lon="18.1500657"><ele>57.0</ele><time>2026-03-29T11:30:42.96Z</time></trkpt><trkpt lat="39.9983228" lon="18.1501047"><ele>56.99999999999999</ele><time>2026-03-29T11:30:43.961Z</time></trkpt><trkpt lat="39.9982555" lon="18.1501495"><ele>57.0</ele><time>2026-03-29T11:30:44.961Z</time></trkpt><trkpt lat="39.9981866" lon="18.1501953"><ele>57.0</ele><time>2026-03-29T11:30:45.96Z</time></trkpt><trkpt lat="39.9981134" lon="18.1502335"><ele>57.0</ele><time>2026-03-29T11:30:46.96Z</time></trkpt><trkpt lat="39.9980391" lon="18.1502667"><ele>57.0</ele><time>2026-03-29T11:30:47.96Z</time></trkpt><trkpt lat="39.9979683" lon="18.1503028"><ele>57.0</ele><time>2026-03-29T11:30:48.96Z</time></trkpt><trkpt lat="39.9978962" lon="18.1503436"><ele>57.0</ele><time>2026-03-29T11:30:49.96Z</time></trkpt><trkpt lat="39.9978214" lon="18.1503838"><ele>57.0</ele><time>2026-03-29T11:30:50.96Z</time></trkpt><trkpt lat="39.9977428" lon="18.1504252"><ele>57.0</ele><time>2026-03-29T11:30:51.96Z</time></trkpt><trkpt lat="39.9976647" lon="18.150467"><ele>57.0</ele><time>2026-03-29T11:30:52.962Z</time></trkpt><trkpt lat="39.9975853" lon="18.15051"><ele>57.0</ele><time>2026-03-29T11:30:53.961Z</time></trkpt><trkpt lat="39.9975048" lon="18.1505523"><ele>57.0</ele><time>2026-03-29T11:30:54.962Z</time></trkpt><trkpt lat="39.9974235" lon="18.1505959"><ele>57.0</ele><time>2026-03-29T11:30:55.962Z</time></trkpt><trkpt lat="39.9973431" lon="18.1506391"><ele>57.0</ele><time>2026-03-29T11:30:56.962Z</time></trkpt><trkpt lat="39.9972613" lon="18.1506833"><ele>57.0</ele><time>2026-03-29T11:30:57.961Z</time></trkpt><trkpt lat="39.9971768" lon="18.1507219"><ele>57.166666666666664</ele><time>2026-03-29T11:30:58.962Z</time></trkpt><trkpt lat="39.9970908" lon="18.1507399"><ele>57.33333333333333</ele><time>2026-03-29T11:30:59.961Z</time></trkpt><trkpt lat="39.9970022" lon="18.1507286"><ele>57.5</ele><time>2026-03-29T11:31:00.962Z</time></trkpt><trkpt lat="39.9969114" lon="18.150695"><ele>57.666666666666664</ele><time>2026-03-29T11:31:01.961Z</time></trkpt><trkpt lat="39.9968268" lon="18.1506766"><ele>57.83333333333333</ele><time>2026-03-29T11:31:02.961Z</time></trkpt><trkpt lat="39.996741" lon="18.1507069"><ele>58.0</ele><time>2026-03-29T11:31:03.961Z</time></trkpt><trkpt lat="39.9966697" lon="18.1507884"><ele>57.99999999999999</ele><time>2026-03-29T11:31:04.962Z</time></trkpt><trkpt lat="39.9966335" lon="18.1508884"><ele>58.0</ele><time>2026-03-29T11:31:05.961Z</time></trkpt><trkpt lat="39.9966238" lon="18.1510152"><ele>58.0</ele><time>2026-03-29T11:31:06.961Z</time></trkpt><trkpt lat="39.9966438" lon="18.1511223"><ele>58.0</ele><time>2026-03-29T11:31:07.961Z</time></trkpt><trkpt lat="39.9966906" lon="18.1512092"><ele>57.99999999999999</ele><time>2026-03-29T11:31:08.962Z</time></trkpt><trkpt lat="39.9967465" lon="18.1512636"><ele>58.0</ele><time>2026-03-29T11:31:09.961Z</time></trkpt><trkpt lat="39.9968123" lon="18.151309"><ele>58.00000000000001</ele><time>2026-03-29T11:31:10.962Z</time></trkpt><trkpt lat="39.9968685" lon="18.1513622"><ele>58.0</ele><time>2026-03-29T11:31:11.962Z</time></trkpt><trkpt lat="39.9969179" lon="18.1514292"><ele>58.00000000000001</ele><time>2026-03-29T11:31:12.962Z</time></trkpt><trkpt lat="39.9969473" lon="18.1515126"><ele>58.00000000000001</ele><time>2026-03-29T11:31:13.961Z</time></trkpt><trkpt lat="39.9969709" lon="18.151604"><ele>58.0</ele><time>2026-03-29T11:31:14.962Z</time></trkpt><trkpt lat="39.9969928" lon="18.1516937"><ele>58.00000000000001</ele><time>2026-03-29T11:31:15.962Z</time></trkpt><trkpt lat="39.997013" lon="18.1517795"><ele>58.00000000000001</ele><time>2026-03-29T11:31:16.961Z</time></trkpt><trkpt lat="39.9970321" lon="18.151862"><ele>57.85714285714286</ele><time>2026-03-29T11:31:17.961Z</time></trkpt><trkpt lat="39.9970526" lon="18.15194"><ele>57.714285714285715</ele><time>2026-03-29T11:31:18.961Z</time></trkpt><trkpt lat="39.9970748" lon="18.1520206"><ele>57.57142857142857</ele><time>2026-03-29T11:31:19.961Z</time></trkpt><trkpt lat="39.997099" lon="18.1521028"><ele>57.42857142857143</ele><time>2026-03-29T11:31:20.961Z</time></trkpt><trkpt lat="39.9971221" lon="18.152185"><ele>57.28571428571428</ele><time>2026-03-29T11:31:21.962Z</time></trkpt><trkpt lat="39.9971428" lon="18.1522681"><ele>57.14285714285714</ele><time>2026-03-29T11:31:22.961Z</time></trkpt><trkpt lat="39.9971618" lon="18.1523487"><ele>57.0</ele><time>2026-03-29T11:31:23.961Z</time></trkpt><trkpt lat="39.9971997" lon="18.152507"><ele>57.285714285714285</ele><time>2026-03-29T11:31:25.962Z</time></trkpt><trkpt lat="39.9972181" lon="18.1525882"><ele>57.57142857142857</ele><time>2026-03-29T11:31:26.961Z</time></trkpt><trkpt lat="39.997235" lon="18.1526711"><ele>57.857142857142854</ele><time>2026-03-29T11:31:27.961Z</time></trkpt><trkpt lat="39.997249" lon="18.1527552"><ele>58.14285714285714</ele><time>2026-03-29T11:31:28.962Z</time></trkpt><trkpt lat="39.9972549" lon="18.1528409"><ele>58.42857142857143</ele><time>2026-03-29T11:31:29.962Z</time></trkpt><trkpt lat="39.9972585" lon="18.1529238"><ele>58.71428571428571</ele><time>2026-03-29T11:31:30.961Z</time></trkpt><trkpt lat="39.9972892" lon="18.153075"><ele>59.0</ele><time>2026-03-29T11:31:32.961Z</time></trkpt><trkpt lat="39.9973145" lon="18.1531537"><ele>59.0</ele><time>2026-03-29T11:31:33.961Z</time></trkpt><trkpt lat="39.9973395" lon="18.1532335"><ele>59.0</ele><time>2026-03-29T11:31:34.961Z</time></trkpt><trkpt lat="39.9973632" lon="18.1533132"><ele>59.0</ele><time>2026-03-29T11:31:35.961Z</time></trkpt><trkpt lat="39.997388" lon="18.1533909"><ele>59.0</ele><time>2026-03-29T11:31:36.962Z</time></trkpt><trkpt lat="39.9974115" lon="18.1534704"><ele>59.0</ele><time>2026-03-29T11:31:37.961Z</time></trkpt><trkpt lat="39.9974305" lon="18.1535497"><ele>59.0</ele><time>2026-03-29T11:31:38.962Z</time></trkpt><trkpt lat="39.9974492" lon="18.1536282"><ele>59.0</ele><time>2026-03-29T11:31:39.961Z</time></trkpt><trkpt lat="39.9974951" lon="18.1537799"><ele>59.16666666666667</ele><time>2026-03-29T11:31:41.961Z</time></trkpt><trkpt lat="39.9975221" lon="18.1538555"><ele>59.333333333333336</ele><time>2026-03-29T11:31:42.961Z</time></trkpt><trkpt lat="39.9975504" lon="18.1539316"><ele>59.5</ele><time>2026-03-29T11:31:43.961Z</time></trkpt><trkpt lat="39.9975772" lon="18.1540063"><ele>59.66666666666667</ele><time>2026-03-29T11:31:44.961Z</time></trkpt><trkpt lat="39.9976285" lon="18.1541509"><ele>59.833333333333336</ele><time>2026-03-29T11:31:46.961Z</time></trkpt><trkpt lat="39.9976898" lon="18.154293"><ele>60.0</ele><time>2026-03-29T11:31:48.961Z</time></trkpt><trkpt lat="39.9977525" lon="18.1544324"><ele>60.25</ele><time>2026-03-29T11:31:50.962Z</time></trkpt><trkpt lat="39.9978112" lon="18.1545748"><ele>60.5</ele><time>2026-03-29T11:31:52.961Z</time></trkpt><trkpt lat="39.9978703" lon="18.1547139"><ele>60.75</ele><time>2026-03-29T11:31:54.961Z</time></trkpt><trkpt lat="39.997934" lon="18.1548506"><ele>61.0</ele><time>2026-03-29T11:31:56.962Z</time></trkpt><trkpt lat="39.998002" lon="18.1549841"><ele>61.0</ele><time>2026-03-29T11:31:58.961Z</time></trkpt><trkpt lat="39.9980729" lon="18.1551124"><ele>61.0</ele><time>2026-03-29T11:32:00.961Z</time></trkpt><trkpt lat="39.9981416" lon="18.155246"><ele>61.0</ele><time>2026-03-29T11:32:02.963Z</time></trkpt><trkpt lat="39.9982068" lon="18.1553788"><ele>61.0</ele><time>2026-03-29T11:32:04.962Z</time></trkpt><trkpt lat="39.9982681" lon="18.1555117"><ele>61.0</ele><time>2026-03-29T11:32:06.962Z</time></trkpt><trkpt lat="39.9983177" lon="18.1556574"><ele>61.0</ele><time>2026-03-29T11:32:08.962Z</time></trkpt><trkpt lat="39.9983614" lon="18.1558008"><ele>61.0</ele><time>2026-03-29T11:32:10.963Z</time></trkpt><trkpt lat="39.9984491" lon="18.1559083"><ele>61.0</ele><time>2026-03-29T11:32:12.962Z</time></trkpt><trkpt lat="39.9985678" lon="18.1559676"><ele>61.5</ele><time>2026-03-29T11:32:14.963Z</time></trkpt><trkpt lat="39.9986698" lon="18.1560308"><ele>62.0</ele><time>2026-03-29T11:32:16.963Z</time></trkpt><trkpt lat="39.9987638" lon="18.1561248"><ele>62.5</ele><time>2026-03-29T11:32:18.963Z</time></trkpt><trkpt lat="39.9988434" lon="18.1562391"><ele>63.0</ele><time>2026-03-29T11:32:20.962Z</time></trkpt><trkpt lat="39.9989248" lon="18.156344"><ele>63.0</ele><time>2026-03-29T11:32:22.962Z</time></trkpt><trkpt lat="39.999015" lon="18.156437"><ele>63.0</ele><time>2026-03-29T11:32:24.962Z</time></trkpt><trkpt lat="39.9991165" lon="18.1565249"><ele>63.0</ele><time>2026-03-29T11:32:26.962Z</time></trkpt><trkpt lat="39.9992153" lon="18.1566148"><ele>63.0</ele><time>2026-03-29T11:32:28.962Z</time></trkpt><trkpt lat="39.9993116" lon="18.1567054"><ele>63.0</ele><time>2026-03-29T11:32:30.963Z</time></trkpt><trkpt lat="39.9994064" lon="18.1567964"><ele>63.0</ele><time>2026-03-29T11:32:32.963Z</time></trkpt><trkpt lat="39.9995024" lon="18.1568832"><ele>63.0</ele><time>2026-03-29T11:32:34.963Z</time></trkpt><trkpt lat="39.9996059" lon="18.1569784"><ele>63.0</ele><time>2026-03-29T11:32:36.962Z</time></trkpt><trkpt lat="39.9997049" lon="18.1570644"><ele>63.0</ele><time>2026-03-29T11:32:38.962Z</time></trkpt><trkpt lat="39.9997658" lon="18.1571121"><ele>63.0</ele><time>2026-03-29T11:32:39.962Z</time></trkpt><trkpt lat="39.999824" lon="18.1571589"><ele>63.0</ele><time>2026-03-29T11:32:40.962Z</time></trkpt><trkpt lat="39.9998792" lon="18.1572063"><ele>63.0</ele><time>2026-03-29T11:32:41.963Z</time></trkpt><trkpt lat="39.9999343" lon="18.1572515"><ele>63.0</ele><time>2026-03-29T11:32:42.962Z</time></trkpt><trkpt lat="39.9999877" lon="18.1573007"><ele>63.0</ele><time>2026-03-29T11:32:43.962Z</time></trkpt><trkpt lat="40.0000808" lon="18.1574124"><ele>62.8</ele><time>2026-03-29T11:32:45.962Z</time></trkpt><trkpt lat="40.0001729" lon="18.1575151"><ele>62.599999999999994</ele><time>2026-03-29T11:32:47.963Z</time></trkpt><trkpt lat="40.0002227" lon="18.1575661"><ele>62.400000000000006</ele><time>2026-03-29T11:32:48.963Z</time></trkpt><trkpt lat="40.0003138" lon="18.1576764"><ele>62.2</ele><time>2026-03-29T11:32:50.962Z</time></trkpt><trkpt lat="40.0003606" lon="18.1577344"><ele>62.0</ele><time>2026-03-29T11:32:51.962Z</time></trkpt><trkpt lat="40.0004511" lon="18.1578483"><ele>62.0</ele><time>2026-03-29T11:32:53.963Z</time></trkpt><trkpt lat="40.0004983" lon="18.1579059"><ele>62.0</ele><time>2026-03-29T11:32:54.963Z</time></trkpt><trkpt lat="40.0005845" lon="18.1580218"><ele>62.0</ele><time>2026-03-29T11:32:56.963Z</time></trkpt><trkpt lat="40.0006717" lon="18.1581394"><ele>62.0</ele><time>2026-03-29T11:32:58.963Z</time></trkpt><trkpt lat="40.0007149" lon="18.1582013"><ele>62.0</ele><time>2026-03-29T11:32:59.962Z</time></trkpt><trkpt lat="40.0007872" lon="18.1583196"><ele>62.75</ele><time>2026-03-29T11:33:01.962Z</time></trkpt><trkpt lat="40.000864" lon="18.1584393"><ele>63.5</ele><time>2026-03-29T11:33:03.962Z</time></trkpt><trkpt lat="40.000939" lon="18.1585646"><ele>64.25</ele><time>2026-03-29T11:33:05.962Z</time></trkpt><trkpt lat="40.0010075" lon="18.1586883"><ele>65.0</ele><time>2026-03-29T11:33:07.962Z</time></trkpt><trkpt lat="40.0010795" lon="18.1588139"><ele>65.0</ele><time>2026-03-29T11:33:09.963Z</time></trkpt><trkpt lat="40.0011466" lon="18.1589447"><ele>65.0</ele><time>2026-03-29T11:33:11.963Z</time></trkpt><trkpt lat="40.0012043" lon="18.1590796"><ele>65.0</ele><time>2026-03-29T11:33:13.963Z</time></trkpt><trkpt lat="40.0012634" lon="18.1592168"><ele>65.0</ele><time>2026-03-29T11:33:15.963Z</time></trkpt><trkpt lat="40.0013205" lon="18.1593491"><ele>65.0</ele><time>2026-03-29T11:33:17.964Z</time></trkpt><trkpt lat="40.0013798" lon="18.1594814"><ele>65.0</ele><time>2026-03-29T11:33:19.964Z</time></trkpt><trkpt lat="40.001413" lon="18.1595542"><ele>65.0</ele><time>2026-03-29T11:33:20.963Z</time></trkpt><trkpt lat="40.0014536" lon="18.1597026"><ele>65.0</ele><time>2026-03-29T11:33:22.963Z</time></trkpt><trkpt lat="40.0014985" lon="18.1598494"><ele>65.0</ele><time>2026-03-29T11:33:24.963Z</time></trkpt><trkpt lat="40.0015486" lon="18.1599906"><ele>65.0</ele><time>2026-03-29T11:33:26.963Z</time></trkpt><trkpt lat="40.0015907" lon="18.1601404"><ele>65.0</ele><time>2026-03-29T11:33:28.963Z</time></trkpt><trkpt lat="40.0016264" lon="18.1602877"><ele>65.0</ele><time>2026-03-29T11:33:30.963Z</time></trkpt><trkpt lat="40.0016562" lon="18.1604333"><ele>65.0</ele><time>2026-03-29T11:33:32.964Z</time></trkpt><trkpt lat="40.0016895" lon="18.1605826"><ele>65.8</ele><time>2026-03-29T11:33:34.963Z</time></trkpt><trkpt lat="40.0017183" lon="18.1607339"><ele>66.6</ele><time>2026-03-29T11:33:36.964Z</time></trkpt><trkpt lat="40.0017368" lon="18.1608918"><ele>67.4</ele><time>2026-03-29T11:33:38.964Z</time></trkpt><trkpt lat="40.0017656" lon="18.161045"><ele>68.2</ele><time>2026-03-29T11:33:40.964Z</time></trkpt><trkpt lat="40.0017847" lon="18.1611245"><ele>69.0</ele><time>2026-03-29T11:33:41.963Z</time></trkpt><trkpt lat="40.0018093" lon="18.1612793"><ele>69.0</ele><time>2026-03-29T11:33:43.963Z</time></trkpt><trkpt lat="40.0018233" lon="18.1613596"><ele>69.0</ele><time>2026-03-29T11:33:44.963Z</time></trkpt><trkpt lat="40.0018375" lon="18.1615153"><ele>69.0</ele><time>2026-03-29T11:33:46.963Z</time></trkpt><trkpt lat="40.0018495" lon="18.1616691"><ele>69.0</ele><time>2026-03-29T11:33:48.964Z</time></trkpt><trkpt lat="40.0018518" lon="18.1618252"><ele>69.0</ele><time>2026-03-29T11:33:50.964Z</time></trkpt><trkpt lat="40.0018459" lon="18.1619747"><ele>69.25</ele><time>2026-03-29T11:33:52.963Z</time></trkpt><trkpt lat="40.0018175" lon="18.1621259"><ele>69.5</ele><time>2026-03-29T11:33:54.963Z</time></trkpt><trkpt lat="40.0017749" lon="18.162273"><ele>69.75</ele><time>2026-03-29T11:33:56.963Z</time></trkpt><trkpt lat="40.0017197" lon="18.1624067"><ele>70.0</ele><time>2026-03-29T11:33:58.963Z</time></trkpt><trkpt lat="40.0016668" lon="18.1625369"><ele>70.0</ele><time>2026-03-29T11:34:00.963Z</time></trkpt><trkpt lat="40.001647" lon="18.1626791"><ele>70.0</ele><time>2026-03-29T11:34:02.964Z</time></trkpt><trkpt lat="40.0016929" lon="18.1628192"><ele>70.0</ele><time>2026-03-29T11:34:04.963Z</time></trkpt><trkpt lat="40.0018015" lon="18.1629062"><ele>70.0</ele><time>2026-03-29T11:34:06.963Z</time></trkpt><trkpt lat="40.0019012" lon="18.1629674"><ele>70.6</ele><time>2026-03-29T11:34:08.963Z</time></trkpt><trkpt lat="40.0020069" lon="18.1630056"><ele>71.2</ele><time>2026-03-29T11:34:10.964Z</time></trkpt><trkpt lat="40.0021073" lon="18.1630073"><ele>71.8</ele><time>2026-03-29T11:34:12.963Z</time></trkpt><trkpt lat="40.0022196" lon="18.1629868"><ele>72.4</ele><time>2026-03-29T11:34:14.963Z</time></trkpt><trkpt lat="40.0023204" lon="18.1629511"><ele>73.0</ele><time>2026-03-29T11:34:16.964Z</time></trkpt><trkpt lat="40.0024228" lon="18.1629407"><ele>73.8</ele><time>2026-03-29T11:34:18.963Z</time></trkpt><trkpt lat="40.0025129" lon="18.1629195"><ele>74.6</ele><time>2026-03-29T11:34:20.964Z</time></trkpt><trkpt lat="40.0026087" lon="18.1628866"><ele>75.4</ele><time>2026-03-29T11:34:22.964Z</time></trkpt><trkpt lat="40.0026964" lon="18.1628691"><ele>76.2</ele><time>2026-03-29T11:34:24.964Z</time></trkpt><trkpt lat="40.0027699" lon="18.1629279"><ele>77.0</ele><time>2026-03-29T11:34:26.964Z</time></trkpt><trkpt lat="40.0027703" lon="18.1630527"><ele>77.0</ele><time>2026-03-29T11:34:28.964Z</time></trkpt><trkpt lat="40.002747" lon="18.1631603"><ele>77.0</ele><time>2026-03-29T11:34:30.964Z</time></trkpt><trkpt lat="40.0027711" lon="18.1632799"><ele>77.0</ele><time>2026-03-29T11:34:32.964Z</time></trkpt><trkpt lat="40.0028084" lon="18.1634117"><ele>77.0</ele><time>2026-03-29T11:34:34.964Z</time></trkpt><trkpt lat="40.0028371" lon="18.1635535"><ele>77.0</ele><time>2026-03-29T11:34:36.964Z</time></trkpt><trkpt lat="40.0028718" lon="18.1636959"><ele>77.0</ele><time>2026-03-29T11:34:38.964Z</time></trkpt><trkpt lat="40.0029096" lon="18.1638338"><ele>77.0</ele><time>2026-03-29T11:34:40.964Z</time></trkpt><trkpt lat="40.0029488" lon="18.1639669"><ele>77.0</ele><time>2026-03-29T11:34:42.964Z</time></trkpt><trkpt lat="40.0029844" lon="18.1640833"><ele>77.0</ele><time>2026-03-29T11:34:44.965Z</time></trkpt><trkpt lat="40.0030022" lon="18.1641928"><ele>77.0</ele><time>2026-03-29T11:34:46.965Z</time></trkpt><trkpt lat="40.0030159" lon="18.1643086"><ele>77.0</ele><time>2026-03-29T11:34:48.964Z</time></trkpt><trkpt lat="40.0030197" lon="18.1644413"><ele>77.0</ele><time>2026-03-29T11:34:50.964Z</time></trkpt><trkpt lat="40.0030102" lon="18.1645808"><ele>77.0</ele><time>2026-03-29T11:34:52.964Z</time></trkpt><trkpt lat="40.0030053" lon="18.1647255"><ele>77.0</ele><time>2026-03-29T11:34:54.964Z</time></trkpt><trkpt lat="40.0030091" lon="18.1648705"><ele>77.0</ele><time>2026-03-29T11:34:56.964Z</time></trkpt><trkpt lat="40.0030052" lon="18.1650221"><ele>77.0</ele><time>2026-03-29T11:34:58.964Z</time></trkpt><trkpt lat="40.0029926" lon="18.1651638"><ele>77.0</ele><time>2026-03-29T11:35:00.965Z</time></trkpt><trkpt lat="40.0030012" lon="18.1653073"><ele>77.0</ele><time>2026-03-29T11:35:02.964Z</time></trkpt><trkpt lat="40.003031" lon="18.1654413"><ele>77.0</ele><time>2026-03-29T11:35:04.964Z</time></trkpt><trkpt lat="40.0030556" lon="18.1655539"><ele>77.0</ele><time>2026-03-29T11:35:06.964Z</time></trkpt><trkpt lat="40.0030995" lon="18.1656533"><ele>77.33333333333334</ele><time>2026-03-29T11:35:08.965Z</time></trkpt><trkpt lat="40.0031511" lon="18.1657279"><ele>77.66666666666667</ele><time>2026-03-29T11:35:10.965Z</time></trkpt><trkpt lat="40.0032229" lon="18.1657533"><ele>78.0</ele><time>2026-03-29T11:35:12.964Z</time></trkpt><trkpt lat="40.0032862" lon="18.1657156"><ele>78.33333333333333</ele><time>2026-03-29T11:35:14.964Z</time></trkpt><trkpt lat="40.0033667" lon="18.1656613"><ele>78.66666666666666</ele><time>2026-03-29T11:35:16.964Z</time></trkpt><trkpt lat="40.0034433" lon="18.1656236"><ele>79.0</ele><time>2026-03-29T11:35:18.964Z</time></trkpt><trkpt lat="40.0035153" lon="18.1655757"><ele>79.14285714285715</ele><time>2026-03-29T11:35:20.964Z</time></trkpt><trkpt lat="40.0035782" lon="18.1655272"><ele>79.28571428571429</ele><time>2026-03-29T11:35:22.964Z</time></trkpt><trkpt lat="40.003645" lon="18.1655169"><ele>79.42857142857143</ele><time>2026-03-29T11:35:25.964Z</time></trkpt><trkpt lat="40.0036965" lon="18.1655816"><ele>79.57142857142858</ele><time>2026-03-29T11:35:28.965Z</time></trkpt><trkpt lat="40.0037184" lon="18.1656695"><ele>79.71428571428572</ele><time>2026-03-29T11:35:31.966Z</time></trkpt><trkpt lat="40.0037944" lon="18.1657199"><ele>79.85714285714286</ele><time>2026-03-29T11:36:52.966Z</time></trkpt><trkpt lat="40.0038642" lon="18.1657434"><ele>80.0</ele><time>2026-03-29T11:36:54.966Z</time></trkpt><trkpt lat="40.0037881" lon="18.1657345"><ele>81.0</ele><time>2026-03-29T11:37:04.966Z</time></trkpt><trkpt lat="40.0037251" lon="18.1656883"><ele>80.0</ele><time>2026-03-29T11:39:19.968Z</time></trkpt></trkseg></trk></gpx>